[[[{"header":{"parameterUnit":"kt","parameterCategory":2,"dx":1,"dy":1,"la1":29.764190673828125,"la2":30.86408042907715,"lo1":-88.46762084960938,"lo2":-86.9344482421875,"nx":47,"ny":34,"refTime":"2022-10-07T00:00:00:Z","depth":"0","parameterNumber":2,"parameterNumberName":"U-component_of_CURRENTS"},"data":[-0.2029,-0.1543,-0.1196,-0.0982,-0.0822,-0.078,-0.0876,-0.141,-0.2232,-0.2493,-0.22,-0.2066,-0.2232,-0.2392,-0.2435,-0.236,-0.2178,-0.2082,-0.2141,-0.2178,-0.221,-0.2467,-0.3006,-0.3604,-0.4026,-0.4229,-0.4255,-0.4303,-0.4266,-0.393,-0.3486,-0.3711,-0.4004,-0.3599,-0.3337,-0.3406,-0.3465,-0.3433,-0.3337,-0.3268,-0.3251,-0.3284,-0.3332,-0.3321,-0.3209,-0.2942,-0.2573,-0.2435,-0.2328,-0.1997,-0.1773,-0.1692,-0.1815,-0.2205,-0.2712,-0.2899,-0.2584,-0.2253,-0.2269,-0.2387,-0.236,-0.221,-0.1986,-0.1805,-0.1805,-0.1927,-0.1927,-0.1911,-0.2173,-0.267,-0.3235,-0.3689,-0.3983,-0.4223,-0.4522,-0.4757,-0.4666,-0.4277,-0.3785,-0.3807,-0.402,-0.3769,-0.3465,-0.331,-0.3235,-0.3086,-0.2953,-0.2942,-0.2974,-0.2969,-0.2883,-0.2648,-0.2264,-0.1869,-0.2477,-0.291,-0.2936,-0.2872,-0.2904,-0.307,-0.3209,-0.3123,-0.2771,-0.2387,-0.228,-0.2403,-0.2392,-0.221,-0.1943,-0.166,-0.157,-0.165,-0.1757,-0.1698,-0.1644,-0.1778,-0.2136,-0.2643,-0.307,-0.3422,-0.3743,-0.4106,-0.4506,-0.4709,-0.4618,-0.433,-0.3769,-0.3593,-0.3727,-0.3631,-0.3433,-0.3139,-0.2835,-0.2605,-0.2515,-0.2472,-0.2397,-0.2258,-0.2034,-0.1741,-0.1522,-0.2376,-0.2926,-0.3289,-0.3401,-0.3348,-0.3225,-0.2969,-0.2648,-0.2408,-0.2296,-0.2317,-0.2317,-0.2184,-0.1943,-0.1671,-0.1516,-0.1548,-0.1682,-0.1767,-0.166,-0.1532,-0.1543,-0.165,-0.1938,-0.2355,-0.268,-0.2974,-0.3321,-0.3727,-0.4159,-0.4463,-0.4458,-0.417,-0.3711,-0.3097,-0.3043,-0.3214,-0.3043,-0.2835,-0.2547,-0.2317,-0.2141,-0.2024,-0.1901,-0.1757,-0.1623,-0.1532,-0.1954,-0.2435,-0.2798,-0.2926,-0.2867,-0.2707,-0.2515,-0.2424,-0.2424,-0.2419,-0.2306,-0.2093,-0.1863,-0.1655,-0.1543,-0.1564,-0.165,-0.1746,-0.1757,-0.1634,-0.1559,-0.1751,-0.1911,-0.1911,-0.1954,-0.2077,-0.2242,-0.2456,-0.2851,-0.3374,-0.386,-0.4143,-0.4127,-0.3962,-0.3657,-0.3155,-0.2595,-0.2445,-0.2499,-0.2365,-0.221,-0.2002,-0.1863,-0.1789,-0.1714,-0.1618,-0.1543,-0.1463,-0.181,-0.2173,-0.2403,-0.2499,-0.2488,-0.2461,-0.2413,-0.2285,-0.2072,-0.1858,-0.1671,-0.1564,-0.1575,-0.1634,-0.1687,-0.1735,-0.1751,-0.1719,-0.1628,-0.157,-0.1602,-0.1682,-0.1725,-0.1607,-0.15,-0.1543,-0.173,-0.2088,-0.2557,-0.3075,-0.3518,-0.3849,-0.4004,-0.3882,-0.3599,-0.3059,-0.2552,-0.2114,-0.1885,-0.1986,-0.1933,-0.1799,-0.165,-0.1516,-0.1431,-0.1361,-0.1313,-0.1271,-0.1313,-0.1458,-0.1596,-0.166,-0.166,-0.1602,-0.1522,-0.1468,-0.1479,-0.1548,-0.1623,-0.1692,-0.1741,-0.1757,-0.1746,-0.1714,-0.1666,-0.1602,-0.1543,-0.1495,-0.1431,-0.1324,-0.1212,-0.1137,-0.1078,-0.1068,-0.1297,-0.1666,-0.1997,-0.236,-0.2787,-0.3219,-0.3534,-0.3454,-0.3257,-0.3006,-0.2451,-0.2077,-0.1751,-0.1538,-0.1586,-0.1458,-0.1265,-0.1143,-0.1057,-0.1522,-0.1442,-0.1372,-0.1329,-0.1303,-0.1297,-0.1319,-0.1367,-0.1442,-0.1532,-0.1634,-0.1714,-0.1746,-0.1773,-0.1794,-0.1778,-0.173,-0.1676,-0.1628,-0.1559,-0.1468,-0.1356,-0.126,-0.1233,-0.1249,-0.1265,-0.1223,-0.1143,-0.1127,-0.1175,-0.1265,-0.1431,-0.1735,-0.2232,-0.2771,-0.3145,-0.3145,-0.2915,-0.2904,-0.2616,-0.1954,-0.1687,-0.1506,-0.1223,-0.1105,-0.1004,-0.0924,-0.1975,-0.1783,-0.1607,-0.1474,-0.1404,-0.1383,-0.1404,-0.1458,-0.1548,-0.1655,-0.1741,-0.1789,-0.1789,-0.1799,-0.1821,-0.1805,-0.1757,-0.1692,-0.1628,-0.1543,-0.1426,-0.1308,-0.1255,-0.1297,-0.1383,-0.1431,-0.1383,-0.1281,-0.1191,-0.1153,-0.1159,-0.1169,-0.126,-0.1612,-0.2216,-0.267,-0.2894,-0.307,-0.284,-0.2515,-0.2605,-0.2483,-0.1815,-0.141,-0.1287,-0.0977,-0.0705,-0.2093,-0.1863,-0.1644,-0.149,-0.142,-0.141,-0.1436,-0.1516,-0.165,-0.1783,-0.1847,-0.1847,-0.1831,-0.1837,-0.1863,-0.1837,-0.1767,-0.1687,-0.1612,-0.1506,-0.141,-0.1367,-0.1383,-0.1436,-0.1484,-0.1479,-0.1393,-0.1265,-0.1153,-0.1121,-0.1153,-0.1164,-0.1175,-0.1281,-0.1575,-0.2007,-0.2387,-0.268,-0.3075,-0.3321,-0.2862,-0.2173,-0.2157,-0.2333,-0.1751,-0.0892,-0.0416,-0.2093,-0.1949,-0.1767,-0.1575,-0.1484,-0.1516,-0.1564,-0.1602,-0.1692,-0.1821,-0.1917,-0.1938,-0.1901,-0.1874,-0.1863,-0.1831,-0.1767,-0.1687,-0.1596,-0.1522,-0.1495,-0.1527,-0.1564,-0.1575,-0.1559,-0.149,-0.1361,-0.1223,-0.1132,-0.1111,-0.1111,-0.1095,-0.1057,-0.1052,-0.1196,-0.1447,-0.1682,-0.1975,-0.2445,-0.2744,-0.2702,-0.2718,-0.2536,-0.1879,-0.1452,-0.158,-0.1618,-0.2157,-0.2104,-0.2013,-0.189,-0.1815,-0.1863,-0.2082,-0.2296,-0.2456,-0.2568,-0.2557,-0.2611,-0.2718,-0.2456,-0.2024,-0.1821,-0.1735,-0.1698,-0.165,-0.1612,-0.1634,-0.1687,-0.1709,-0.1703,-0.1676,-0.1596,-0.1479,-0.1345,-0.1228,-0.1143,-0.1084,-0.1036,-0.0998,-0.0961,-0.0924,-0.0966,-0.1201,-0.1554,-0.1789,-0.1815,-0.1719,-0.1757,-0.1917,-0.1965,-0.2109,-0.1901,-0.1532,-0.2205,-0.2056,-0.1997,-0.2184,-0.2718,-0.3278,-0.3609,-0.3599,-0.3518,-0.3502,-0.3577,-0.378,-0.3476,-0.2488,-0.1837,-0.1746,-0.1698,-0.1714,-0.173,-0.1735,-0.1757,-0.181,-0.1794,-0.1757,-0.1757,-0.1751,-0.1735,-0.1698,-0.1575,-0.1404,-0.1239,-0.1084,-0.0966,-0.0881,-0.079,-0.0715,-0.0747,-0.095,-0.1196,-0.1351,-0.1442,-0.1511,-0.1559,-0.166,-0.1959,-0.2328,-0.2595,0,0,-0.1431,-0.339,-0.4207,-0.4229,-0.3769,-0.3454,-0.3684,-0.3486,-0.2467,-0.1991,0,-0.0881,-0.1714,-0.1682,-0.1709,-0.1741,-0.1767,-0.1773,-0.1805,-0.1927,-0.1821,-0.1639,-0.1676,-0.1762,-0.1879,-0.197,-0.1906,-0.1815,-0.1874,-0.1975,-0.1949,-0.1634,-0.1089,-0.0641,-0.0481,-0.0646,-0.0929,-0.1084,-0.1217,-0.1484,-0.1692,-0.1885,-0.2301,-0.2675,-0.2803,-0.2296,-0.2979,-0.3396,-0.3113,-0.2872,0,0,-0.2109,-0.4431,-0.4207,-0.3059,-0.2424,-0.0966,0.0571,0,0,0,0,0,0,0,0,-0.0555,-0.1212,-0.1399,-0.1548,-0.1762,-0.2088,-0.2109,-0.2088,-0.244,-0.2878,-0.3123,-0.2899,-0.2296,-0.1602,-0.0972,-0.071,-0.0812,-0.087,-0.087,-0.0929,-0.0966,-0.0934,-0.1036,-0.1345,-0.1751,-0.3583,-0.4239,-0.4522,-0.488,-0.5435,-0.5013,-0.4106,-0.3444,-0.3102,0,0,0,-0.0352,-0.2098,-0.3043,-0.2056,-0.1335,-0.087,-0.0427,-0.0267,-0.0272,0,0,0,0,0,0,0,-0.0812,-0.1719,-0.1911,-0.2264,-0.268,-0.2702,-0.2547,-0.2488,-0.221,-0.1703,-0.1212,-0.086,-0.0678,-0.0571,-0.047,-0.0438,-0.0491,-0.0641,-0.0774,-0.3294,-0.3033,-0.2969,-0.3209,-0.3529,-0.401,-0.4346,-0.3732,-0.3022,-0.2835,-0.2787,-0.1415,-0.0187,-0.1153,-0.1815,-0.1474,-0.1057,-0.0854,-0.0694,-0.0651,-0.0705,0,0,0,0,0,0,0,0,0,0,0,0,-0.0753,-0.2072,-0.2515,-0.2355,-0.2397,-0.1922,-0.0982,-0.0566,-0.0481,-0.039,-0.0304,-0.0272,-0.0326,-0.04,0,-0.0598,-0.0828,-0.0406,-0.0667,-0.0988,0,0,0,0,0,-0.0294,-0.1287,-0.2242,-0.204,-0.1239,-0.0774,-0.0635,-0.055,-0.0481,0,0,0,0,0,0,0,0,0,0,0,0,0,0,0,0,-0.1458,-0.1233,0,0,-0.0582,-0.0475,-0.0352,-0.0224,-0.0139,-0.0027,-0.0021,0,0,0,-0.0219,-0.0336,-0.024,0,0,0,0,0,-0.039,-0.1837,-0.2846,-0.2301,-0.1596,-0.0988,-0.0769,-0.0806,0,0,0,0,0,0,0,0,0,0,0,0,0,0,0,0,0,0,-0.1671,-0.1869,0,0,0,0,0,0,0,-0.0069,0,0,0,0,0,0,0,0,0,0,0,-0.0326,-0.165,-0.2536,-0.2285,-0.1991,-0.1196,-0.0555,0,0,0,0,0,0,0,0,0,0,0,0,0,0,0,0,0,0,0,0,-0.0379,-0.0833,-0.0924,-0.094,0,0,0,0,0,0,0,0,0,0,0,0,0,0,0,0,-0.0529,-0.1383,-0.181,-0.204,-0.2333,-0.2504,0,0,0,0,0,0,0,0,0,0,0,0,0,0,0,0,0,0,0,0,0,0,-0.0865,-0.2141,-0.2632,-0.1725,-0.0726,-0.0721,0,0,0,0,0,0,0,0,0,0,0,0,0,0,-0.0342,-0.1057,-0.2168,-0.2686,-0.2755,0,0,0,0,0,0,0,0,0,0,0,0,0,0,0,0,0,0,0,0,0,0,0,0,0,0,-0.0352,-0.071,0,0,0,0,0,0,0,0,0,0,0,0,0,0,-0.0315,-0.165,-0.2744,-0.2734,-0.2659,0,0,0,0,0,0,0,0,0,0,0,0,0,0,0,0,0,0,0,0,0,0,0,0,0,0,0,0,0,0,0,0,0,0,0,0,0,0,0,0,0,0,-0.0854,-0.2285,-0.2552,-0.2072,-0.1895,0,0,0,0,0,0,0,0,0,0,0,0,0,0,0,0,0,0,0,0,0,0,0,0,0,0,0,0,0,0,0,0,0,0,0,0,0,0,0,0,0,0,-0.024,-0.0929,-0.1436,-0.1164,-0.0833,0,0,0,0,0,0,0,0,0,0,0,0,0,0,0,0,0,0,0,0,0,0,0,0,0,0,0,0,0,0,0,0,0,0,0,0,0,0,0,0,0,0,0,-0.1452,-0.2066,-0.0977,-0.0731,0,0,0,0,0,0,0,0,0,0,0,0,0,0,0,0,0,0,0,0,0,0,0,0,0,0,0,0,0,0,0,0,0,0,0,0,0,0,0,0,0,0,0,-0.0454,0.0064,0.0342,-0.0347,0,0,0,0,0,0,0,0,0,0,0,0,0,0,0,0,0,0,0,0,0,0,0,0,0,0,0,0,0,0,0,0,0,0,0,0,0,0,0,0,0,0,0,0,0.0678,0.1351,0,0,0,0,0,0,0,0,0,0,0,0,0,0,0,0,0,0,0,0,0,0,0,0,0,0,0,0,0,0,0,0,0,0,0,0,0,0,0,0,0,0,0,0,0,0,0,0,0,0,0,0,0,0,0,0,0,0,0,0,0,0,0,0,0,0,0,0,0,0,0,0,0,0,0,0,0,0,0,0,0,0,0,0,0,0,0,0,0,0,0,0,0,0,0,0,0,0,0,0,0,0,0,0,0,0,0,0,0,0,0,0,0,0,0,0,0,0,0,0,0,0,0,0,0,0,0,0,0,0,0,0,0,0,0,0,0,0,0,0,0,0,0,0,0,0,0,0,0,0,0,0,0,0,0,0,0,0,0,0,0,0,0,0,0,0,0,0,0,0,0,0,0,0,0,0,0,0,0,0,0,0,0,0,0,0,0,0,0,0,0,0,0,0,0,0,0,0,0,0,0,0,0,0,0,0,0,0,0,0,0,0,0,0,0,0,0,0,0,0,0,0,0,0,0,0,0,0,0,0,0,0,0,0,0,0,0,0,0,0,0,0,0,0,0,0,0,0,0,0,0,0,0,0,0,0,0,0,0,0,0,0,0,0,0,0,0,0,0,0,0,0,0,0,0,0,0,0,0,0,0,0,0,0,0,0,0,0,0,0,0,0,0,0,0,0,0,0,0,0,0,0,0,0,0,0,0,0,0,0,0,0,0]}],[{"header":{"parameterUnit":"kt","parameterCategory":2,"dx":1,"dy":1,"la1":29.764190673828125,"la2":30.86408042907715,"lo1":-88.46762084960938,"lo2":-86.9344482421875,"nx":47,"ny":34,"refTime":"2022-10-07T00:00:00:Z","depth":"0","parameterNumber":3,"parameterNumberName":"V-component_of_CURRENTS"},"data":[0.0043,0.0758,0.1116,0.1452,0.1639,0.1639,0.1575,0.1543,0.1367,0.0924,0.0566,0.055,0.0657,0.0454,0.0288,0.0075,-0.0128,-0.0155,-0.0304,-0.0603,-0.0673,-0.0406,-0.0486,-0.1084,-0.1762,-0.2002,-0.1676,-0.0913,-0.0096,0.0096,-0.0053,0.0299,0.118,0.1522,0.1692,0.1949,0.229,0.2563,0.2686,0.2707,0.2568,0.228,0.1938,0.1607,0.1292,0.103,0.0972,-0.0571,0.0534,0.0972,0.1356,0.1591,0.1644,0.1655,0.1559,0.1297,0.0886,0.0683,0.0758,0.0667,0.0459,0.0299,-0.0043,-0.0096,-0.0064,-0.0133,-0.0534,-0.0758,-0.0288,-0.008,-0.0657,-0.1506,-0.2034,-0.2109,-0.1762,-0.1153,-0.0491,-0.0027,0.0112,0.0619,0.1436,0.1821,0.2093,0.2242,0.2381,0.2429,0.2392,0.2274,0.2093,0.1906,0.1709,0.1522,0.142,0.158,-0.1062,-0.0048,0.0571,0.0993,0.126,0.1367,0.1292,0.1132,0.0972,0.0876,0.0854,0.0806,0.0587,0.0416,0.0128,-0.0149,-0.0091,-0.0032,-0.0053,-0.0331,-0.0721,-0.031,0.0262,-0.0053,-0.0902,-0.1676,-0.2125,-0.2152,-0.1842,-0.1383,-0.0801,-0.0107,0.0336,0.0833,0.1383,0.2098,0.2424,0.2718,0.2803,0.2728,0.2579,0.2445,0.2349,0.2242,0.212,0.2018,0.2098,-0.0972,-0.0507,0.0011,0.04,0.0641,0.0774,0.0774,0.0758,0.0731,0.079,0.0822,0.0678,0.0502,0.0267,-0.0075,-0.0149,-0.0112,-0.0053,-0.0043,-0.0176,-0.0555,-0.0518,0.0198,0.0363,-0.0123,-0.0902,-0.1666,-0.2056,-0.2024,-0.1762,-0.1458,-0.094,-0.0139,0.047,0.0972,0.1329,0.181,0.2461,0.284,0.299,0.292,0.2835,0.2782,0.2696,0.2579,0.2387,0.2317,-0.0454,-0.0443,-0.0198,0.0048,0.0246,0.0363,0.0448,0.0513,0.0555,0.0561,0.0513,0.0363,0.0224,0.0011,-0.0144,-0.0149,-0.0128,-0.0091,-0.0053,-0.0101,-0.0406,-0.0721,-0.0363,0.0096,0.0117,-0.023,-0.0908,-0.1511,-0.1719,-0.1709,-0.166,-0.1554,-0.1116,-0.0203,0.0635,0.1041,0.1393,0.1714,0.2093,0.2536,0.2696,0.2712,0.2691,0.2648,0.2611,0.2493,0.2397,0.0043,-0.0107,-0.0112,-0.0021,0.0128,0.0192,0.024,0.0267,0.0272,0.024,0.0155,0.0011,-0.0107,-0.016,-0.0149,-0.0144,-0.0133,-0.0112,-0.0069,-0.008,-0.0267,-0.0582,-0.0673,-0.0422,-0.0251,-0.0176,-0.0363,-0.0828,-0.1148,-0.1356,-0.1532,-0.1735,-0.1687,-0.1217,-0.0368,0.0641,0.1436,0.1698,0.1938,0.2072,0.2136,0.2264,0.2285,0.2333,0.244,0.2493,0.2483,0.0299,0.0187,0.008,0.0069,0.0123,0.0144,0.0139,0.0133,0.0112,0.0064,-0.0027,-0.0117,-0.0176,-0.0171,-0.0128,-0.0112,-0.0096,-0.0075,-0.0053,-0.0059,-0.0133,-0.0262,-0.0395,-0.04,-0.0294,-0.0166,-0.0059,-0.0246,-0.0539,-0.0844,-0.1116,-0.142,-0.1644,-0.157,-0.1041,-0.0214,0.0715,0.1586,0.2184,0.2205,0.2306,0.228,0.2136,0.22,0.2317,0.2461,0.2536,0.0224,0.0182,0.0133,0.0133,0.0149,0.0155,0.0144,0.0133,0.0128,0.0085,0.0011,-0.0053,-0.0101,-0.0107,-0.0091,-0.0069,-0.0053,-0.0043,-0.0032,-0.0048,-0.0085,-0.0149,-0.023,-0.0219,-0.0101,0.0016,0.0123,0.0069,-0.0128,-0.0352,-0.0561,-0.0774,-0.1084,-0.1297,-0.1089,-0.0448,0.0182,0.0945,0.1575,0.2232,0.2691,0.26,0.2509,0.2515,0.2397,0.2488,0.2627,-0.0032,-0.0048,-0.0037,0.0021,0.0091,0.016,0.0176,0.0176,0.0176,0.0155,0.0101,0.0043,-0.0011,-0.0037,-0.0053,-0.0053,-0.0048,-0.0048,-0.0043,-0.0069,-0.0117,-0.0208,-0.0304,-0.0294,-0.016,0.0011,0.0128,0.0128,0.0027,-0.0069,-0.0155,-0.0262,-0.0464,-0.078,-0.095,-0.0577,0.0043,0.0582,0.11,0.1623,0.1933,0.2339,0.2766,0.2723,0.2611,0.2734,0.2942,-0.0182,-0.0251,-0.0235,-0.0128,0.0,0.0144,0.0208,0.0219,0.0219,0.0192,0.0139,0.0075,0.0027,0.0005,-0.0005,-0.0043,-0.0043,-0.0048,-0.0053,-0.0091,-0.0166,-0.0272,-0.0358,-0.0347,-0.023,-0.0053,0.0064,0.0085,0.0043,0.0,0.0,0.0,-0.0091,-0.0358,-0.0689,-0.0678,-0.0182,0.0326,0.0886,0.118,0.1372,0.1676,0.1842,0.2088,0.2728,0.3065,0.3171,-0.0198,-0.0374,-0.0427,-0.0288,-0.0123,0.0059,0.0166,0.0214,0.0256,0.0251,0.0192,0.008,0.0,-0.0005,0.0064,-0.0048,-0.0059,-0.0053,-0.0075,-0.0133,-0.0224,-0.0315,-0.0363,-0.0347,-0.0278,-0.0171,-0.0096,-0.0075,-0.0075,-0.0048,0.0005,0.0069,0.008,-0.0064,-0.0358,-0.0614,-0.0379,0.0096,0.0486,0.0753,0.0929,0.1052,0.1132,0.1207,0.1538,0.1612,0.1917,-0.0235,-0.0454,-0.0529,-0.0352,-0.0214,-0.0085,0.0128,0.0299,0.0464,0.0459,0.0352,0.0176,-0.0133,-0.0288,0.0059,-0.0101,-0.0123,-0.0117,-0.0144,-0.0203,-0.0278,-0.0336,-0.039,-0.0368,-0.0347,-0.0331,-0.0347,-0.0363,-0.0342,-0.0235,-0.0101,0.0005,0.0096,0.0085,-0.0085,-0.0368,-0.0438,-0.0069,0.016,0.0149,0.0192,0.0518,0.0865,0.0566,0.0448,0.0785,0.1057,-0.0278,-0.047,-0.0443,-0.0048,-0.0021,-0.0203,-0.0059,0.0117,0.0577,0.0678,0.0705,0.0689,-0.0256,-0.0806,-0.0166,-0.0176,-0.0219,-0.0224,-0.023,-0.0256,-0.0294,-0.0352,-0.0475,-0.0411,-0.039,-0.0427,-0.0523,-0.0625,-0.0662,-0.0561,-0.0374,-0.0208,-0.0016,0.0085,0.0048,-0.0144,-0.0294,-0.0149,0.0005,-0.0085,-0.016,0.0075,0.031,0.0112,0.0224,0.087,0.0993,0,0,0.0785,0.0577,0.0603,-0.0246,-0.0256,-0.0315,0.0715,0.0593,0.0486,0.0491,0,-0.0769,-0.0336,-0.0214,-0.0272,-0.0288,-0.0272,-0.0272,-0.0283,-0.0358,-0.0758,-0.0432,-0.0352,-0.0395,-0.0497,-0.0646,-0.078,-0.0806,-0.0753,-0.0699,-0.0491,-0.0363,-0.0235,-0.0176,-0.023,-0.0011,0.0144,-0.0043,-0.032,-0.0336,-0.0144,-0.0235,-0.0299,-0.0107,0.0053,-0.0069,0.0139,0.1474,0.0187,-0.0299,0,0,0.0432,0.0913,0.0432,0.0021,-0.0139,-0.0924,0.0491,0,0,0,0,0,0,0,0,-0.0977,-0.0432,-0.031,-0.0347,-0.0422,-0.0582,-0.078,-0.0673,-0.0801,-0.0918,-0.0924,-0.1078,-0.1014,-0.0769,-0.0523,0.0005,0.0347,0.0117,-0.0224,-0.0539,-0.0534,-0.0448,-0.0438,-0.0395,-0.0411,0.0101,0.0502,0.0838,-0.0283,-0.1196,-0.0561,-0.008,0.0545,-0.0096,0,0,0,-0.1799,0.1682,-0.0529,-0.0646,-0.0448,-0.039,-0.0272,0.0021,-0.0021,0,0,0,0,0,0,0,-0.0432,-0.0272,-0.0646,-0.0801,-0.0961,-0.1255,-0.1228,-0.11,-0.0897,-0.0395,0.0203,0.0096,-0.0155,-0.0374,-0.0459,-0.0422,-0.0384,-0.0347,-0.0363,0.0342,0.0352,0.0934,0.0224,-0.0561,-0.103,-0.016,-0.023,-0.1089,0.0,0.0,-0.1207,-0.0523,0.1313,-0.118,-0.1442,-0.0982,-0.0678,-0.0448,-0.0005,-0.0037,0,0,0,0,0,0,0,0,0,0,0,0,-0.1137,-0.0972,-0.0673,-0.0961,-0.1111,-0.0037,-0.0149,-0.0235,-0.0166,-0.0219,-0.0246,-0.0272,-0.0256,-0.0283,0,-0.0021,0.1217,0.0208,-0.023,-0.0742,0,0,0,0,0,-0.2344,0.0753,0.0577,-0.1335,-0.1789,-0.134,-0.0347,-0.0155,-0.0064,0,0,0,0,0,0,0,0,0,0,0,0,0,0,0,0,-0.079,-0.1009,0,0,-0.0304,-0.0091,-0.0117,-0.0107,-0.0176,-0.0192,0.0027,0,0,0,-0.0037,-0.0123,-0.0545,0,0,0,0,0,-0.1917,0.0705,0.0598,-0.1415,-0.2237,-0.1943,-0.024,0.0037,0,0,0,0,0,0,0,0,0,0,0,0,0,0,0,0,0,0,-0.0539,-0.0187,0,0,0,0,0,0,0,0.0267,0,0,0,0,0,0,0,0,0,0,0,-0.1372,0.0534,0.1014,-0.1308,-0.2712,-0.2819,-0.0363,0,0,0,0,0,0,0,0,0,0,0,0,0,0,0,0,0,0,0,0,-0.0374,-0.0507,-0.0096,-0.0016,0,0,0,0,0,0,0,0,0,0,0,0,0,0,0,0,-0.0881,-0.0069,0.1233,-0.0854,-0.3177,-0.3844,0,0,0,0,0,0,0,0,0,0,0,0,0,0,0,0,0,0,0,0,0,0,-0.102,-0.0187,-0.0027,0.0,-0.0198,0.0011,0,0,0,0,0,0,0,0,0,0,0,0,0,0,-0.094,0.1287,-0.0379,-0.3486,-0.4666,0,0,0,0,0,0,0,0,0,0,0,0,0,0,0,0,0,0,0,0,0,0,0,0,0,0,-0.0395,0.0016,0,0,0,0,0,0,0,0,0,0,0,0,0,0,-0.1297,0.1367,-0.0149,-0.3534,-0.5142,0,0,0,0,0,0,0,0,0,0,0,0,0,0,0,0,0,0,0,0,0,0,0,0,0,0,0,0,0,0,0,0,0,0,0,0,0,0,0,0,0,0,-0.086,0.0737,-0.0251,-0.3145,-0.4768,0,0,0,0,0,0,0,0,0,0,0,0,0,0,0,0,0,0,0,0,0,0,0,0,0,0,0,0,0,0,0,0,0,0,0,0,0,0,0,0,0,0,-0.0422,-0.0123,-0.0192,-0.2456,-0.3449,0,0,0,0,0,0,0,0,0,0,0,0,0,0,0,0,0,0,0,0,0,0,0,0,0,0,0,0,0,0,0,0,0,0,0,0,0,0,0,0,0,0,0,0.0187,-0.0256,-0.2296,-0.2029,0,0,0,0,0,0,0,0,0,0,0,0,0,0,0,0,0,0,0,0,0,0,0,0,0,0,0,0,0,0,0,0,0,0,0,0,0,0,0,0,0,0,0,0.0742,0.0769,-0.2173,-0.1426,0,0,0,0,0,0,0,0,0,0,0,0,0,0,0,0,0,0,0,0,0,0,0,0,0,0,0,0,0,0,0,0,0,0,0,0,0,0,0,0,0,0,0,0,0.2066,-0.1901,0,0,0,0,0,0,0,0,0,0,0,0,0,0,0,0,0,0,0,0,0,0,0,0,0,0,0,0,0,0,0,0,0,0,0,0,0,0,0,0,0,0,0,0,0,0,0,0,0,0,0,0,0,0,0,0,0,0,0,0,0,0,0,0,0,0,0,0,0,0,0,0,0,0,0,0,0,0,0,0,0,0,0,0,0,0,0,0,0,0,0,0,0,0,0,0,0,0,0,0,0,0,0,0,0,0,0,0,0,0,0,0,0,0,0,0,0,0,0,0,0,0,0,0,0,0,0,0,0,0,0,0,0,0,0,0,0,0,0,0,0,0,0,0,0,0,0,0,0,0,0,0,0,0,0,0,0,0,0,0,0,0,0,0,0,0,0,0,0,0,0,0,0,0,0,0,0,0,0,0,0,0,0,0,0,0,0,0,0,0,0,0,0,0,0,0,0,0,0,0,0,0,0,0,0,0,0,0,0,0,0,0,0,0,0,0,0,0,0,0,0,0,0,0,0,0,0,0,0,0,0,0,0,0,0,0,0,0,0,0,0,0,0,0,0,0,0,0,0,0,0,0,0,0,0,0,0,0,0,0,0,0,0,0,0,0,0,0,0,0,0,0,0,0,0,0,0,0,0,0,0,0,0,0,0,0,0,0,0,0,0,0,0,0,0,0,0,0,0,0,0,0,0,0,0,0,0,0,0,0,0,0,0]}]],[[{"header":{"parameterUnit":"kt","parameterCategory":2,"dx":1,"dy":1,"la1":29.764190673828125,"la2":30.86408042907715,"lo1":-88.46762084960938,"lo2":-86.9344482421875,"nx":47,"ny":34,"refTime":"2022-10-07T00:00:00:Z","depth":"2","parameterNumber":2,"parameterNumberName":"U-component_of_CURRENTS"},"data":[-0.1698,-0.1207,-0.0865,-0.0657,-0.0497,-0.0454,-0.055,-0.1084,-0.1895,-0.2152,-0.1858,-0.1725,-0.189,-0.205,-0.2093,-0.2018,-0.1831,-0.1735,-0.1794,-0.1831,-0.1869,-0.2114,-0.2648,-0.3241,-0.3663,-0.386,-0.3887,-0.393,-0.3892,-0.355,-0.3102,-0.3332,-0.3625,-0.3225,-0.2963,-0.3038,-0.3097,-0.3075,-0.2979,-0.2915,-0.2904,-0.2936,-0.2979,-0.2963,-0.2846,-0.2579,-0.2205,-0.2114,-0.2002,-0.1671,-0.1458,-0.1383,-0.15,-0.189,-0.2387,-0.2563,-0.2248,-0.1922,-0.1938,-0.2056,-0.2029,-0.1874,-0.1655,-0.1468,-0.1468,-0.1591,-0.1591,-0.158,-0.1831,-0.2317,-0.2878,-0.3332,-0.3625,-0.386,-0.4159,-0.4383,-0.4293,-0.3903,-0.3412,-0.3433,-0.3652,-0.3401,-0.3102,-0.2947,-0.2872,-0.2728,-0.26,-0.2589,-0.2627,-0.2621,-0.2531,-0.229,-0.1906,-0.1506,-0.2178,-0.2605,-0.2632,-0.2563,-0.26,-0.2755,-0.2894,-0.2798,-0.2445,-0.2061,-0.1959,-0.2082,-0.2072,-0.189,-0.1618,-0.134,-0.1244,-0.1324,-0.1426,-0.1367,-0.1319,-0.1447,-0.1794,-0.229,-0.2723,-0.3075,-0.339,-0.3753,-0.4148,-0.4341,-0.425,-0.3962,-0.3401,-0.3225,-0.3364,-0.3268,-0.3075,-0.2776,-0.2472,-0.2253,-0.2168,-0.2125,-0.205,-0.1906,-0.1676,-0.1388,-0.1164,-0.2088,-0.2632,-0.2985,-0.3097,-0.3043,-0.292,-0.2659,-0.2339,-0.2098,-0.1986,-0.2013,-0.2007,-0.1874,-0.1628,-0.1356,-0.1201,-0.1228,-0.1361,-0.1442,-0.134,-0.1217,-0.1223,-0.1324,-0.1602,-0.2013,-0.2344,-0.2638,-0.2979,-0.338,-0.3807,-0.41,-0.4095,-0.3807,-0.3348,-0.2734,-0.268,-0.2851,-0.268,-0.2477,-0.2194,-0.1965,-0.1794,-0.1676,-0.1554,-0.141,-0.1271,-0.118,-0.1671,-0.2146,-0.2504,-0.2632,-0.2573,-0.2408,-0.2221,-0.2125,-0.213,-0.2125,-0.2013,-0.1799,-0.1564,-0.1351,-0.1233,-0.1255,-0.134,-0.1431,-0.1442,-0.1319,-0.1249,-0.1442,-0.1596,-0.1586,-0.1623,-0.1746,-0.1917,-0.2125,-0.2515,-0.3033,-0.3513,-0.3791,-0.3775,-0.3604,-0.33,-0.2798,-0.2237,-0.2082,-0.2141,-0.2013,-0.1863,-0.1655,-0.1522,-0.1447,-0.1367,-0.1271,-0.1196,-0.1185,-0.1538,-0.1895,-0.2125,-0.2216,-0.2205,-0.2184,-0.2136,-0.2002,-0.1789,-0.1575,-0.1388,-0.1271,-0.1276,-0.1329,-0.1388,-0.1431,-0.1447,-0.1415,-0.1324,-0.1271,-0.1297,-0.1372,-0.1415,-0.1292,-0.1185,-0.1228,-0.1415,-0.1767,-0.2232,-0.2744,-0.3177,-0.3502,-0.3652,-0.3524,-0.3241,-0.2707,-0.22,-0.1757,-0.1532,-0.1634,-0.158,-0.1452,-0.1303,-0.1175,-0.1089,-0.1014,-0.1041,-0.1004,-0.1052,-0.1191,-0.1329,-0.1393,-0.1393,-0.1335,-0.1255,-0.1201,-0.1207,-0.1271,-0.1335,-0.1399,-0.1447,-0.1458,-0.1452,-0.142,-0.1367,-0.1303,-0.1244,-0.1191,-0.1121,-0.102,-0.0902,-0.0828,-0.0769,-0.0763,-0.0988,-0.1356,-0.1682,-0.204,-0.2456,-0.2878,-0.3182,-0.3102,-0.2904,-0.2654,-0.2098,-0.1725,-0.1399,-0.1185,-0.1239,-0.1116,-0.0924,-0.0801,-0.0715,-0.1249,-0.1175,-0.1111,-0.1068,-0.1041,-0.1036,-0.1057,-0.11,-0.1175,-0.126,-0.1356,-0.1431,-0.1463,-0.149,-0.1506,-0.149,-0.1442,-0.1388,-0.1335,-0.1265,-0.1169,-0.1052,-0.0956,-0.0924,-0.094,-0.0956,-0.0913,-0.0844,-0.0828,-0.087,-0.0961,-0.1121,-0.142,-0.1906,-0.2429,-0.2798,-0.2792,-0.2563,-0.2552,-0.2264,-0.1607,-0.134,-0.1159,-0.0881,-0.0763,-0.0667,-0.0582,-0.1698,-0.1511,-0.134,-0.1212,-0.1143,-0.1121,-0.1137,-0.1196,-0.1281,-0.1383,-0.1468,-0.1506,-0.1511,-0.1522,-0.1538,-0.1522,-0.1468,-0.1399,-0.1335,-0.1244,-0.1121,-0.1004,-0.095,-0.0988,-0.1078,-0.1127,-0.1084,-0.0982,-0.0892,-0.0854,-0.086,-0.087,-0.0961,-0.1303,-0.189,-0.2328,-0.2552,-0.2723,-0.2488,-0.2157,-0.2253,-0.213,-0.1463,-0.1057,-0.0945,-0.0625,-0.0368,-0.181,-0.1591,-0.1377,-0.1223,-0.1153,-0.1148,-0.1175,-0.1249,-0.1383,-0.1506,-0.157,-0.157,-0.1554,-0.1559,-0.158,-0.1554,-0.1479,-0.1399,-0.1313,-0.1201,-0.11,-0.1052,-0.1068,-0.1121,-0.118,-0.1175,-0.1084,-0.0961,-0.0854,-0.0822,-0.0849,-0.0865,-0.0876,-0.0982,-0.1265,-0.1682,-0.205,-0.2333,-0.2718,-0.2963,-0.2509,-0.1815,-0.1789,-0.1949,-0.1399,-0.0507,-0.0064,-0.1805,-0.1666,-0.1495,-0.1308,-0.1223,-0.1249,-0.1292,-0.1324,-0.1415,-0.1538,-0.1634,-0.1655,-0.1623,-0.1591,-0.158,-0.1543,-0.1468,-0.1383,-0.1287,-0.1201,-0.1169,-0.1196,-0.1228,-0.1244,-0.1228,-0.1153,-0.1025,-0.0902,-0.0822,-0.0806,-0.0812,-0.0796,-0.0758,-0.0758,-0.0892,-0.1137,-0.1361,-0.1639,-0.2098,-0.2392,-0.2339,-0.2333,-0.2136,-0.1463,-0.1057,-0.1175,-0.1212,-0.1858,-0.181,-0.173,-0.1618,-0.1548,-0.1586,-0.1789,-0.1991,-0.2146,-0.2253,-0.2237,-0.2285,-0.2392,-0.2152,-0.1735,-0.1522,-0.1426,-0.1372,-0.1313,-0.1276,-0.1287,-0.1329,-0.1351,-0.1345,-0.1319,-0.1233,-0.1111,-0.1004,-0.0892,-0.0817,-0.0769,-0.0726,-0.0699,-0.0662,-0.0625,-0.0657,-0.0886,-0.1212,-0.1426,-0.1436,-0.1329,-0.1351,-0.1506,-0.1564,-0.1709,-0.1468,-0.1089,-0.189,-0.1751,-0.1703,-0.1906,-0.2429,-0.2974,-0.3284,-0.3246,-0.3155,-0.3097,-0.3011,-0.2985,-0.2894,-0.2141,-0.1559,-0.1436,-0.1383,-0.1377,-0.1383,-0.1377,-0.1393,-0.142,-0.1399,-0.1367,-0.1372,-0.1356,-0.1345,-0.1324,-0.1207,-0.1052,-0.0892,-0.0742,-0.0635,-0.055,-0.0464,-0.039,-0.0411,-0.0609,-0.0854,-0.1004,-0.1084,-0.1137,-0.1169,-0.1244,-0.1527,-0.1885,-0.2168,0,0,-0.1207,-0.2931,-0.3663,-0.3796,-0.3342,-0.2883,-0.3118,-0.2819,-0.1522,-0.0812,0,-0.0609,-0.1281,-0.1367,-0.1367,-0.1377,-0.1404,-0.1404,-0.142,-0.1468,-0.1324,-0.1169,-0.1223,-0.1303,-0.1426,-0.1532,-0.1495,-0.1431,-0.1495,-0.1586,-0.1564,-0.126,-0.0726,-0.0283,-0.0128,-0.031,-0.0593,-0.0726,-0.0838,-0.1095,-0.1303,-0.1484,-0.1879,-0.2248,-0.2371,-0.1954,-0.2579,-0.2936,-0.2461,-0.2056,0,0,-0.1522,-0.3278,-0.3139,-0.2072,-0.1426,-0.0144,0.1201,0,0,0,0,0,0,0,0,-0.0299,-0.0721,-0.0913,-0.1062,-0.1265,-0.1543,-0.1527,-0.1575,-0.1997,-0.2461,-0.2707,-0.2488,-0.1901,-0.1217,-0.0598,-0.0358,-0.047,-0.0507,-0.0491,-0.0539,-0.0566,-0.0534,-0.0614,-0.0897,-0.1287,-0.3134,-0.3732,-0.3988,-0.4255,-0.4709,-0.4373,-0.3518,-0.2173,-0.1201,0,0,0,-0.0069,-0.1463,-0.2483,-0.1644,-0.0934,-0.0497,0.0,0.0224,0.0208,0,0,0,0,0,0,0,-0.0422,-0.102,-0.1372,-0.1847,-0.2205,-0.2152,-0.2029,-0.204,-0.181,-0.1287,-0.0822,-0.0481,-0.0288,-0.016,-0.0048,-0.0032,-0.0101,-0.024,-0.0352,-0.2776,-0.2451,-0.2381,-0.2627,-0.2888,-0.3118,-0.2963,-0.2141,-0.1644,-0.1917,-0.2269,-0.1046,0.0133,-0.0715,-0.1308,-0.1041,-0.0673,-0.0464,-0.0256,-0.0149,-0.0182,0,0,0,0,0,0,0,0,0,0,0,0,-0.0486,-0.1447,-0.1847,-0.1639,-0.1554,-0.1223,-0.0438,-0.0096,-0.0011,0.0053,0.0112,0.0171,0.0149,0.0064,0,-0.0331,-0.0267,0.0133,-0.0139,-0.0411,0,0,0,0,0,-0.0096,-0.0833,-0.1666,-0.149,-0.0828,-0.0406,-0.0219,-0.0053,0.0059,0,0,0,0,0,0,0,0,0,0,0,0,0,0,0,0,-0.0379,0.0112,0,0,-0.0048,-0.0048,0.0128,0.0219,0.0304,0.0529,0.0561,0,0,0,0.0075,0.0166,0.0187,0,0,0,0,0,-0.0219,-0.1335,-0.221,-0.1799,-0.1201,-0.0625,-0.0331,-0.0315,0,0,0,0,0,0,0,0,0,0,0,0,0,0,0,0,0,0,-0.0641,-0.0641,0,0,0,0,0,0,0,0.0208,0,0,0,0,0,0,0,0,0,0,0,-0.0112,-0.1062,-0.1847,-0.1709,-0.1442,-0.0641,-0.0032,0,0,0,0,0,0,0,0,0,0,0,0,0,0,0,0,0,0,0,0,-0.0011,-0.0112,-0.0176,-0.0144,0,0,0,0,0,0,0,0,0,0,0,0,0,0,0,0,-0.0267,-0.0828,-0.1217,-0.1436,-0.1447,-0.134,0,0,0,0,0,0,0,0,0,0,0,0,0,0,0,0,0,0,0,0,0,0,-0.0609,-0.1426,-0.1564,-0.0742,-0.0021,-0.0053,0,0,0,0,0,0,0,0,0,0,0,0,0,0,0.0166,-0.0464,-0.1474,-0.1644,-0.1415,0,0,0,0,0,0,0,0,0,0,0,0,0,0,0,0,0,0,0,0,0,0,0,0,0,0,0.0027,0.0053,0,0,0,0,0,0,0,0,0,0,0,0,0,0,-0.0027,-0.0993,-0.197,-0.1703,-0.1393,0,0,0,0,0,0,0,0,0,0,0,0,0,0,0,0,0,0,0,0,0,0,0,0,0,0,0,0,0,0,0,0,0,0,0,0,0,0,0,0,0,0,-0.0529,-0.1602,-0.1826,-0.1164,-0.0817,0,0,0,0,0,0,0,0,0,0,0,0,0,0,0,0,0,0,0,0,0,0,0,0,0,0,0,0,0,0,0,0,0,0,0,0,0,0,0,0,0,0,0.0048,-0.0251,-0.0662,-0.0331,0.0064,0,0,0,0,0,0,0,0,0,0,0,0,0,0,0,0,0,0,0,0,0,0,0,0,0,0,0,0,0,0,0,0,0,0,0,0,0,0,0,0,0,0,0,-0.0395,-0.031,0.0507,0.0849,0,0,0,0,0,0,0,0,0,0,0,0,0,0,0,0,0,0,0,0,0,0,0,0,0,0,0,0,0,0,0,0,0,0,0,0,0,0,0,0,0,0,0,0.0464,0.1313,0.1639,0.1548,0,0,0,0,0,0,0,0,0,0,0,0,0,0,0,0,0,0,0,0,0,0,0,0,0,0,0,0,0,0,0,0,0,0,0,0,0,0,0,0,0,0,0,0,0.1057,0.2114,0,0,0,0,0,0,0,0,0,0,0,0,0,0,0,0,0,0,0,0,0,0,0,0,0,0,0,0,0,0,0,0,0,0,0,0,0,0,0,0,0,0,0,0,0,0,0,0,0,0,0,0,0,0,0,0,0,0,0,0,0,0,0,0,0,0,0,0,0,0,0,0,0,0,0,0,0,0,0,0,0,0,0,0,0,0,0,0,0,0,0,0,0,0,0,0,0,0,0,0,0,0,0,0,0,0,0,0,0,0,0,0,0,0,0,0,0,0,0,0,0,0,0,0,0,0,0,0,0,0,0,0,0,0,0,0,0,0,0,0,0,0,0,0,0,0,0,0,0,0,0,0,0,0,0,0,0,0,0,0,0,0,0,0,0,0,0,0,0,0,0,0,0,0,0,0,0,0,0,0,0,0,0,0,0,0,0,0,0,0,0,0,0,0,0,0,0,0,0,0,0,0,0,0,0,0,0,0,0,0,0,0,0,0,0,0,0,0,0,0,0,0,0,0,0,0,0,0,0,0,0,0,0,0,0,0,0,0,0,0,0,0,0,0,0,0,0,0,0,0,0,0,0,0,0,0,0,0,0,0,0,0,0,0,0,0,0,0,0,0,0,0,0,0,0,0,0,0,0,0,0,0,0,0,0,0,0,0,0,0,0,0,0,0,0,0,0,0,0,0,0,0,0,0,0,0,0,0,0,0,0,0,0]}],[{"header":{"parameterUnit":"kt","parameterCategory":2,"dx":1,"dy":1,"la1":29.764190673828125,"la2":30.86408042907715,"lo1":-88.46762084960938,"lo2":-86.9344482421875,"nx":47,"ny":34,"refTime":"2022-10-07T00:00:00:Z","depth":"2","parameterNumber":3,"parameterNumberName":"V-component_of_CURRENTS"},"data":[0.0176,0.0892,0.1249,0.1586,0.1778,0.1778,0.1709,0.1676,0.1506,0.1068,0.0705,0.0689,0.0796,0.0593,0.0427,0.0214,0.0011,-0.0011,-0.016,-0.0464,-0.0534,-0.0267,-0.0342,-0.0934,-0.1612,-0.1853,-0.1532,-0.0774,0.0037,0.023,0.0069,0.0416,0.1292,0.1634,0.1794,0.205,0.2387,0.2654,0.2776,0.2792,0.2654,0.236,0.2018,0.1692,0.1377,0.1111,0.1046,-0.0438,0.0662,0.1105,0.149,0.1725,0.1778,0.1789,0.1698,0.1442,0.1025,0.0817,0.0892,0.0806,0.0598,0.0438,0.0096,0.0037,0.0069,0.0005,-0.0395,-0.0619,-0.0155,0.0064,-0.0513,-0.1356,-0.1885,-0.1959,-0.1612,-0.1014,-0.0352,0.0107,0.0235,0.0737,0.1548,0.1927,0.22,0.2349,0.2483,0.2525,0.2483,0.2365,0.2178,0.1991,0.1794,0.1607,0.1506,0.1655,-0.0918,0.0091,0.071,0.1132,0.1399,0.1511,0.1436,0.1276,0.1116,0.1014,0.0988,0.094,0.0726,0.0555,0.0262,-0.0016,0.0037,0.0096,0.008,-0.0198,-0.0587,-0.0182,0.0395,0.0085,-0.0758,-0.1527,-0.1975,-0.1997,-0.1692,-0.1239,-0.0667,0.0027,0.0459,0.095,0.1495,0.221,0.2531,0.2824,0.2904,0.2824,0.267,0.2536,0.2435,0.2322,0.2205,0.2104,0.2178,-0.0822,-0.0363,0.016,0.0545,0.079,0.0924,0.0918,0.0897,0.087,0.0924,0.0956,0.0812,0.0635,0.04,0.0053,-0.0021,0.0021,0.0075,0.0085,-0.0043,-0.0422,-0.0384,0.0331,0.0497,0.0011,-0.0763,-0.1522,-0.1911,-0.1874,-0.1618,-0.1313,-0.0806,-0.0005,0.0593,0.1089,0.1442,0.1917,0.2563,0.2942,0.3086,0.3017,0.2926,0.2867,0.2782,0.2664,0.2472,0.2403,-0.031,-0.0299,-0.0053,0.0192,0.039,0.0507,0.0593,0.0651,0.0689,0.0694,0.0646,0.0497,0.0358,0.0139,-0.0016,-0.0021,0.0,0.0037,0.0075,0.0027,-0.0278,-0.0593,-0.0235,0.0224,0.0246,-0.0107,-0.0774,-0.1372,-0.1575,-0.1564,-0.1516,-0.141,-0.0977,-0.0075,0.0758,0.1159,0.1506,0.1815,0.2189,0.2632,0.2792,0.2808,0.2782,0.2734,0.2696,0.2579,0.2483,0.0187,0.0037,0.0027,0.0123,0.0267,0.0336,0.0379,0.0406,0.0411,0.0374,0.0288,0.0144,0.0027,-0.0032,-0.0016,-0.0016,-0.0005,0.0016,0.0053,0.0048,-0.0139,-0.0454,-0.0539,-0.0294,-0.0123,-0.0053,-0.0235,-0.0694,-0.1009,-0.1212,-0.1388,-0.1591,-0.1543,-0.1078,-0.024,0.0763,0.1554,0.1805,0.2045,0.2173,0.2232,0.236,0.2381,0.2424,0.2525,0.2579,0.2563,0.0432,0.0326,0.0219,0.0208,0.0262,0.0283,0.0278,0.0267,0.0251,0.0198,0.0107,0.0021,-0.0037,-0.0037,0.0,0.0021,0.0032,0.0048,0.0069,0.0064,-0.0011,-0.0139,-0.0272,-0.0272,-0.0171,-0.0048,0.0064,-0.0123,-0.0411,-0.071,-0.0977,-0.1276,-0.15,-0.1426,-0.0908,-0.0085,0.0838,0.1703,0.2296,0.2312,0.2413,0.2381,0.2232,0.229,0.2403,0.2547,0.2621,0.0368,0.032,0.0272,0.0272,0.0283,0.0288,0.0283,0.0272,0.0262,0.0224,0.0155,0.0091,0.0043,0.0032,0.0043,0.0059,0.0075,0.0085,0.0091,0.0075,0.0032,-0.0032,-0.0112,-0.0107,0.0005,0.0128,0.0235,0.0187,-0.0005,-0.023,-0.0432,-0.0641,-0.0945,-0.1159,-0.095,-0.032,0.0304,0.1062,0.1692,0.2344,0.2798,0.2707,0.2611,0.2611,0.2493,0.2573,0.2712,0.0128,0.0107,0.0117,0.0166,0.0235,0.0299,0.032,0.0315,0.032,0.0299,0.0246,0.0187,0.0133,0.0101,0.0085,0.008,0.0085,0.008,0.008,0.0053,0.0,-0.0091,-0.0192,-0.0187,-0.0053,0.0117,0.0235,0.0235,0.0139,0.0043,-0.0043,-0.0139,-0.0336,-0.0646,-0.0817,-0.0448,0.0166,0.0699,0.1212,0.1735,0.2045,0.244,0.2867,0.2824,0.2712,0.2835,0.3038,-0.0011,-0.008,-0.0069,0.0032,0.0149,0.0294,0.0358,0.0368,0.0368,0.0342,0.0288,0.0219,0.0171,0.0144,0.0133,0.0096,0.0091,0.008,0.0075,0.0032,-0.0048,-0.016,-0.024,-0.024,-0.0123,0.0048,0.0166,0.0187,0.0149,0.0112,0.0107,0.0112,0.0032,-0.023,-0.0561,-0.055,-0.0059,0.0443,0.0998,0.1287,0.1479,0.1778,0.1943,0.2184,0.2824,0.3166,0.3262,-0.0021,-0.0203,-0.0251,-0.0123,0.0037,0.0214,0.032,0.0374,0.0422,0.0411,0.0352,0.024,0.016,0.0144,0.0208,0.0096,0.008,0.0075,0.0048,-0.0011,-0.0107,-0.0198,-0.0251,-0.024,-0.0171,-0.0069,0.0005,0.0032,0.0037,0.0064,0.0117,0.0176,0.0198,0.0059,-0.023,-0.0486,-0.0251,0.0214,0.0603,0.0865,0.103,0.1153,0.1228,0.1297,0.1623,0.1692,0.1997,-0.0059,-0.0262,-0.0342,-0.0176,-0.0048,0.008,0.0294,0.047,0.0641,0.0635,0.0534,0.0368,0.008,-0.0101,0.0214,0.0043,0.0016,0.0016,-0.0016,-0.008,-0.0155,-0.0219,-0.0272,-0.0262,-0.024,-0.0224,-0.024,-0.0251,-0.0224,-0.0117,0.0016,0.0117,0.0208,0.0203,0.0037,-0.024,-0.031,0.0053,0.0283,0.0267,0.0299,0.0614,0.0961,0.0662,0.0534,0.086,0.1127,-0.0091,-0.0256,-0.023,0.0139,0.0144,-0.0016,0.0139,0.031,0.078,0.0892,0.1014,0.1004,0.0075,-0.0566,0.0011,-0.0032,-0.0059,-0.0069,-0.0085,-0.0117,-0.0155,-0.0219,-0.0342,-0.0299,-0.0278,-0.0315,-0.0406,-0.0497,-0.0523,-0.0427,-0.0246,-0.0091,0.0101,0.0198,0.0166,-0.0016,-0.0171,-0.0027,0.0123,0.0032,-0.0048,0.0176,0.0411,0.0208,0.0315,0.095,0.1078,0,0,0.0998,0.0817,0.087,-0.0016,-0.0005,0.0016,0.0993,0.094,0.0977,0.1137,0,-0.0336,-0.0123,-0.0064,-0.0091,-0.0107,-0.0107,-0.0107,-0.0139,-0.0198,-0.0555,-0.0283,-0.0214,-0.0256,-0.0352,-0.0491,-0.0625,-0.0641,-0.0603,-0.0555,-0.0352,-0.023,-0.0107,-0.0053,-0.0101,0.0101,0.0262,0.0075,-0.0198,-0.0219,-0.0037,-0.0128,-0.0198,-0.0016,0.0144,0.0011,0.0219,0.166,0.0464,0.0128,0,0,0.0988,0.1335,0.0812,0.0507,0.0763,-0.0694,0.0982,0,0,0,0,0,0,0,0,-0.071,-0.0262,-0.0149,-0.0182,-0.0267,-0.04,-0.0571,-0.0486,-0.0614,-0.0747,-0.0742,-0.0886,-0.0833,-0.0609,-0.0363,0.0133,0.0459,0.0235,-0.0091,-0.0406,-0.0406,-0.0331,-0.0326,-0.0294,-0.0315,0.0246,0.0651,0.102,-0.0043,-0.0822,-0.0432,0.0037,0.1276,0.0817,0,0,0,-0.1361,0.197,-0.04,-0.0534,-0.0331,-0.0294,-0.0182,0.0112,0.0117,0,0,0,0,0,0,0,-0.0214,-0.0166,-0.04,-0.0619,-0.0747,-0.0982,-0.0972,-0.086,-0.0641,-0.0214,0.0352,0.0246,0.0,-0.0235,-0.032,-0.0299,-0.0267,-0.024,-0.0267,0.0464,0.0475,0.1078,0.0384,-0.04,-0.0833,0.008,0.0513,0.0166,0.0,0.0,-0.1062,-0.0214,0.158,-0.0897,-0.1201,-0.0769,-0.0491,-0.0235,0.0283,0.0235,0,0,0,0,0,0,0,0,0,0,0,0,-0.0854,-0.0651,-0.0352,-0.0459,-0.0577,0.0192,0.0069,-0.0021,-0.0016,-0.0069,-0.0112,-0.0128,-0.0107,-0.0176,0,0.0091,0.1335,0.0384,-0.0117,-0.0523,0,0,0,0,0,-0.2007,0.0966,0.087,-0.1014,-0.1506,-0.1121,-0.0182,0.0059,0.031,0,0,0,0,0,0,0,0,0,0,0,0,0,0,0,0,-0.0379,-0.0133,0,0,-0.0027,0.0085,0.0101,0.0096,-0.0011,-0.0016,0.0187,0,0,0,0.0187,0.0005,-0.024,0,0,0,0,0,-0.15,0.095,0.0854,-0.1111,-0.1906,-0.1639,0.0011,0.023,0,0,0,0,0,0,0,0,0,0,0,0,0,0,0,0,0,0,0.0304,0.0037,0,0,0,0,0,0,0,0.0497,0,0,0,0,0,0,0,0,0,0,0,-0.0886,0.0796,0.1217,-0.1052,-0.2317,-0.2264,-0.0011,0,0,0,0,0,0,0,0,0,0,0,0,0,0,0,0,0,0,0,0,0.0075,-0.0352,0.0053,0.0214,0,0,0,0,0,0,0,0,0,0,0,0,0,0,0,0,-0.04,0.0267,0.1404,-0.0641,-0.2691,-0.2696,0,0,0,0,0,0,0,0,0,0,0,0,0,0,0,0,0,0,0,0,0,0,-0.071,0.0112,0.0422,0.0,0.0037,0.0091,0,0,0,0,0,0,0,0,0,0,0,0,0,0,-0.0438,0.1479,-0.0149,-0.2856,-0.3107,0,0,0,0,0,0,0,0,0,0,0,0,0,0,0,0,0,0,0,0,0,0,0,0,0,0,0.0069,0.0176,0,0,0,0,0,0,0,0,0,0,0,0,0,0,-0.0721,0.1586,0.0096,-0.2867,-0.3684,0,0,0,0,0,0,0,0,0,0,0,0,0,0,0,0,0,0,0,0,0,0,0,0,0,0,0,0,0,0,0,0,0,0,0,0,0,0,0,0,0,0,-0.0363,0.1036,-0.0043,-0.2643,-0.3476,0,0,0,0,0,0,0,0,0,0,0,0,0,0,0,0,0,0,0,0,0,0,0,0,0,0,0,0,0,0,0,0,0,0,0,0,0,0,0,0,0,0,0.0037,0.0363,0.0037,-0.2104,-0.2301,0,0,0,0,0,0,0,0,0,0,0,0,0,0,0,0,0,0,0,0,0,0,0,0,0,0,0,0,0,0,0,0,0,0,0,0,0,0,0,0,0,0,0,0.063,0.0251,-0.1799,-0.095,0,0,0,0,0,0,0,0,0,0,0,0,0,0,0,0,0,0,0,0,0,0,0,0,0,0,0,0,0,0,0,0,0,0,0,0,0,0,0,0,0,0,0,0.1025,0.0796,-0.1538,-0.031,0,0,0,0,0,0,0,0,0,0,0,0,0,0,0,0,0,0,0,0,0,0,0,0,0,0,0,0,0,0,0,0,0,0,0,0,0,0,0,0,0,0,0,0,0.1383,-0.1297,0,0,0,0,0,0,0,0,0,0,0,0,0,0,0,0,0,0,0,0,0,0,0,0,0,0,0,0,0,0,0,0,0,0,0,0,0,0,0,0,0,0,0,0,0,0,0,0,0,0,0,0,0,0,0,0,0,0,0,0,0,0,0,0,0,0,0,0,0,0,0,0,0,0,0,0,0,0,0,0,0,0,0,0,0,0,0,0,0,0,0,0,0,0,0,0,0,0,0,0,0,0,0,0,0,0,0,0,0,0,0,0,0,0,0,0,0,0,0,0,0,0,0,0,0,0,0,0,0,0,0,0,0,0,0,0,0,0,0,0,0,0,0,0,0,0,0,0,0,0,0,0,0,0,0,0,0,0,0,0,0,0,0,0,0,0,0,0,0,0,0,0,0,0,0,0,0,0,0,0,0,0,0,0,0,0,0,0,0,0,0,0,0,0,0,0,0,0,0,0,0,0,0,0,0,0,0,0,0,0,0,0,0,0,0,0,0,0,0,0,0,0,0,0,0,0,0,0,0,0,0,0,0,0,0,0,0,0,0,0,0,0,0,0,0,0,0,0,0,0,0,0,0,0,0,0,0,0,0,0,0,0,0,0,0,0,0,0,0,0,0,0,0,0,0,0,0,0,0,0,0,0,0,0,0,0,0,0,0,0,0,0,0,0,0,0,0,0,0,0,0,0,0,0,0,0,0,0,0,0,0,0,0]}]],[[{"header":{"parameterUnit":"kt","parameterCategory":2,"dx":1,"dy":1,"la1":29.764190673828125,"la2":30.86408042907715,"lo1":-88.46762084960938,"lo2":-86.9344482421875,"nx":47,"ny":34,"refTime":"2022-10-07T00:00:00:Z","depth":"4","parameterNumber":2,"parameterNumberName":"U-component_of_CURRENTS"},"data":[-0.1383,-0.0886,-0.0555,-0.0352,-0.0203,-0.016,-0.0256,-0.078,-0.1559,-0.1799,-0.1511,-0.1393,-0.1564,-0.1714,-0.1751,-0.1676,-0.149,-0.1393,-0.1458,-0.1506,-0.1548,-0.1789,-0.2306,-0.2888,-0.3316,-0.3524,-0.3545,-0.3577,-0.354,-0.3193,-0.2734,-0.2953,-0.3257,-0.2862,-0.26,-0.2664,-0.2723,-0.2696,-0.2611,-0.2547,-0.2536,-0.2563,-0.26,-0.2579,-0.2451,-0.2184,-0.1815,-0.1837,-0.1703,-0.1377,-0.1169,-0.11,-0.1217,-0.1586,-0.2061,-0.2221,-0.1911,-0.1591,-0.1618,-0.173,-0.1692,-0.1548,-0.1329,-0.1148,-0.1143,-0.126,-0.1271,-0.1271,-0.1506,-0.1975,-0.2525,-0.299,-0.3294,-0.3529,-0.3812,-0.4026,-0.3935,-0.3545,-0.3043,-0.3065,-0.3294,-0.3043,-0.2739,-0.2579,-0.2509,-0.2371,-0.2242,-0.2232,-0.2253,-0.2237,-0.2141,-0.1906,-0.1516,-0.1121,-0.1933,-0.2339,-0.236,-0.229,-0.2322,-0.2467,-0.2579,-0.2472,-0.212,-0.1746,-0.165,-0.1773,-0.1751,-0.157,-0.1303,-0.1025,-0.0929,-0.0998,-0.1095,-0.1057,-0.102,-0.1137,-0.1458,-0.1943,-0.2376,-0.2744,-0.3065,-0.3417,-0.3801,-0.3988,-0.3898,-0.3609,-0.3043,-0.2867,-0.3006,-0.2904,-0.2712,-0.2413,-0.2125,-0.1906,-0.181,-0.1757,-0.1671,-0.1522,-0.1297,-0.1009,-0.0785,-0.1858,-0.2387,-0.2728,-0.283,-0.2766,-0.2632,-0.2355,-0.2034,-0.1799,-0.1692,-0.1714,-0.1703,-0.157,-0.1324,-0.1052,-0.0897,-0.0924,-0.1041,-0.1116,-0.1036,-0.0929,-0.0929,-0.1004,-0.126,-0.1666,-0.2013,-0.2317,-0.2659,-0.3054,-0.3465,-0.3753,-0.3748,-0.3465,-0.3006,-0.2376,-0.2317,-0.2488,-0.2317,-0.2125,-0.1847,-0.1623,-0.1436,-0.1308,-0.118,-0.1036,-0.0902,-0.0806,-0.1458,-0.1917,-0.2253,-0.2371,-0.2301,-0.2136,-0.1943,-0.1853,-0.1853,-0.1847,-0.1735,-0.1511,-0.1271,-0.1052,-0.0934,-0.095,-0.103,-0.1116,-0.1127,-0.102,-0.0966,-0.1159,-0.1292,-0.1265,-0.1292,-0.142,-0.1602,-0.1826,-0.221,-0.2718,-0.3182,-0.3454,-0.3438,-0.3273,-0.2953,-0.244,-0.1869,-0.1719,-0.1783,-0.166,-0.1516,-0.1308,-0.1164,-0.1084,-0.0998,-0.0902,-0.0828,-0.0982,-0.1319,-0.1666,-0.1885,-0.197,-0.1959,-0.1933,-0.1879,-0.1746,-0.1532,-0.1313,-0.1116,-0.0988,-0.0977,-0.103,-0.1084,-0.1127,-0.1143,-0.1111,-0.1025,-0.0977,-0.1009,-0.1084,-0.1111,-0.0977,-0.087,-0.0918,-0.1116,-0.1474,-0.1938,-0.2435,-0.2862,-0.3177,-0.3316,-0.3182,-0.2904,-0.236,-0.1847,-0.1404,-0.118,-0.1281,-0.1239,-0.1105,-0.0956,-0.0817,-0.0726,-0.0651,-0.0833,-0.0801,-0.0844,-0.0977,-0.1111,-0.1169,-0.1164,-0.11,-0.1014,-0.095,-0.0945,-0.0998,-0.1057,-0.1111,-0.1148,-0.1164,-0.1153,-0.1121,-0.1073,-0.1009,-0.095,-0.0902,-0.0833,-0.0726,-0.0603,-0.0523,-0.047,-0.0475,-0.0705,-0.1062,-0.1383,-0.1735,-0.2146,-0.2552,-0.2846,-0.276,-0.2563,-0.2317,-0.1757,-0.1377,-0.1052,-0.0844,-0.0897,-0.078,-0.0582,-0.0448,-0.0352,-0.1036,-0.0961,-0.0902,-0.086,-0.0828,-0.0817,-0.0833,-0.087,-0.0929,-0.1004,-0.1084,-0.1153,-0.1185,-0.1207,-0.1217,-0.1201,-0.1159,-0.11,-0.1046,-0.0972,-0.0881,-0.0769,-0.0667,-0.063,-0.0641,-0.0651,-0.0619,-0.0555,-0.0545,-0.0587,-0.0673,-0.0838,-0.1137,-0.1607,-0.2109,-0.2461,-0.2451,-0.2216,-0.2205,-0.1922,-0.1255,-0.0993,-0.0822,-0.055,-0.0422,-0.0315,-0.0219,-0.1463,-0.1287,-0.1121,-0.0998,-0.0924,-0.0897,-0.0908,-0.0956,-0.103,-0.1116,-0.1185,-0.1223,-0.1228,-0.1244,-0.1255,-0.1239,-0.1185,-0.1121,-0.1046,-0.0956,-0.0833,-0.0715,-0.0662,-0.0694,-0.0769,-0.0817,-0.078,-0.0689,-0.0603,-0.0566,-0.0571,-0.0593,-0.0689,-0.1025,-0.1591,-0.2013,-0.2216,-0.2376,-0.2136,-0.1805,-0.189,-0.1773,-0.1116,-0.0715,-0.0593,-0.0283,0.0011,-0.1559,-0.1356,-0.1153,-0.1009,-0.0929,-0.0913,-0.0929,-0.0998,-0.1116,-0.1228,-0.1281,-0.1287,-0.1271,-0.1281,-0.1292,-0.1271,-0.1201,-0.1116,-0.1025,-0.0908,-0.0801,-0.0747,-0.0763,-0.0817,-0.087,-0.0865,-0.0785,-0.0667,-0.0566,-0.0534,-0.0561,-0.0582,-0.0603,-0.071,-0.0982,-0.1383,-0.1735,-0.2002,-0.2371,-0.2605,-0.2136,-0.1436,-0.1426,-0.1602,-0.1014,-0.0155,0.0331,-0.1543,-0.142,-0.1255,-0.1084,-0.0988,-0.0993,-0.1014,-0.1041,-0.1121,-0.1233,-0.1329,-0.1361,-0.1329,-0.1297,-0.1287,-0.126,-0.1191,-0.11,-0.0993,-0.0902,-0.086,-0.0876,-0.0908,-0.0929,-0.0913,-0.0844,-0.0721,-0.0598,-0.0523,-0.0507,-0.0513,-0.0502,-0.0475,-0.0481,-0.0614,-0.0849,-0.1057,-0.1308,-0.1741,-0.2018,-0.197,-0.1975,-0.1783,-0.1111,-0.0667,-0.0806,-0.0838,-0.1586,-0.1543,-0.1479,-0.1383,-0.1297,-0.1287,-0.1436,-0.1607,-0.1757,-0.1858,-0.1863,-0.1927,-0.2034,-0.1831,-0.1452,-0.1244,-0.1153,-0.1089,-0.1025,-0.0977,-0.0977,-0.1004,-0.1025,-0.102,-0.0993,-0.0913,-0.079,-0.0673,-0.0566,-0.0502,-0.0459,-0.0422,-0.0395,-0.0358,-0.0331,-0.0368,-0.0587,-0.0897,-0.1095,-0.1105,-0.0993,-0.1009,-0.1148,-0.1191,-0.1313,-0.1073,-0.0694,-0.1586,-0.1468,-0.1495,-0.173,-0.2125,-0.2515,-0.2702,-0.2675,-0.2595,-0.2536,-0.2504,-0.2568,-0.2499,-0.1975,-0.1393,-0.1153,-0.1105,-0.1095,-0.1095,-0.1089,-0.1089,-0.1105,-0.1078,-0.1046,-0.1041,-0.1025,-0.0998,-0.0956,-0.0854,-0.0715,-0.0577,-0.0438,-0.0326,-0.024,-0.016,-0.0101,-0.0128,-0.0304,-0.0523,-0.0667,-0.0742,-0.078,-0.0806,-0.0886,-0.1169,-0.1527,-0.1767,0,0,-0.0908,-0.2157,-0.2579,-0.2798,-0.2541,-0.2205,-0.2125,-0.1725,-0.0619,0.0112,0,-0.0518,-0.1062,-0.1078,-0.1057,-0.1073,-0.11,-0.1116,-0.1127,-0.1175,-0.1062,-0.0913,-0.0945,-0.1004,-0.1078,-0.1143,-0.1121,-0.1068,-0.1121,-0.1196,-0.1164,-0.087,-0.0379,0.0021,0.0144,0.0,-0.0256,-0.0395,-0.0518,-0.0758,-0.0945,-0.1111,-0.1484,-0.1826,-0.1943,-0.1628,-0.2098,-0.228,-0.1415,-0.071,0,0,-0.0924,-0.1842,-0.1522,-0.0539,0.0785,0.1324,0.1191,0,0,0,0,0,0,0,0,-0.0267,-0.063,-0.079,-0.0886,-0.1004,-0.1196,-0.1201,-0.1223,-0.1484,-0.181,-0.2018,-0.1922,-0.1458,-0.0844,-0.0288,-0.0048,-0.0128,-0.0155,-0.0139,-0.0182,-0.0198,-0.0166,-0.0246,-0.0518,-0.0892,-0.2573,-0.3033,-0.3193,-0.3171,-0.3177,-0.291,-0.2445,-0.087,0.0448,0,0,0,0.0443,0.0048,-0.1041,-0.103,-0.0577,-0.0032,0.0358,0.0347,0.024,0,0,0,0,0,0,0,-0.0283,-0.0683,-0.087,-0.1036,-0.1303,-0.1356,-0.1436,-0.1522,-0.1442,-0.0977,-0.0448,-0.0128,0.0064,0.0192,0.0288,0.0326,0.0288,0.0171,0.0064,-0.2157,-0.1783,-0.1682,-0.1901,-0.1853,-0.1447,-0.1073,-0.0422,0.0801,0.1132,0.0294,0.0448,0.0801,0.0304,-0.0139,-0.032,-0.0198,-0.0043,0.0027,-0.0032,-0.0107,0,0,0,0,0,0,0,0,0,0,0,0,-0.0358,-0.0822,-0.103,-0.1105,-0.1084,-0.079,-0.0219,0.016,0.032,0.039,0.0491,0.0545,0.0529,0.047,0,-0.0149,0.0203,0.063,0.0416,0.0288,0,0,0,0,0,0.0027,-0.0368,-0.0833,-0.0721,-0.0384,-0.0075,0.0133,0.0133,0.0059,0,0,0,0,0,0,0,0,0,0,0,0,0,0,0,0,0.0828,0.1602,0,0,0.0032,0.0123,0.0288,0.0432,0.0603,0.0844,0.0913,0,0,0,0.0133,0.0272,0.0283,0,0,0,0,0,-0.016,-0.0742,-0.1217,-0.1132,-0.0806,-0.0352,-0.0187,-0.0224,0,0,0,0,0,0,0,0,0,0,0,0,0,0,0,0,0,0,0.1089,0.1741,0,0,0,0,0,0,0,0.0272,0,0,0,0,0,0,0,0,0,0,0,-0.0059,-0.0464,-0.0902,-0.1025,-0.0742,-0.0224,-0.0032,0,0,0,0,0,0,0,0,0,0,0,0,0,0,0,0,0,0,0,0,0.0368,0.0545,0.0502,0.063,0,0,0,0,0,0,0,0,0,0,0,0,0,0,0,0,-0.0107,-0.0176,-0.0272,-0.0587,-0.0336,0.0085,0,0,0,0,0,0,0,0,0,0,0,0,0,0,0,0,0,0,0,0,0,0,-0.0166,-0.0123,0.0384,0.047,0.0326,0.0384,0,0,0,0,0,0,0,0,0,0,0,0,0,0,0.0897,0.0379,-0.047,-0.039,0.0059,0,0,0,0,0,0,0,0,0,0,0,0,0,0,0,0,0,0,0,0,0,0,0,0,0,0,0.0032,0.0059,0,0,0,0,0,0,0,0,0,0,0,0,0,0,0.0203,-0.0112,-0.0662,-0.0251,0.0192,0,0,0,0,0,0,0,0,0,0,0,0,0,0,0,0,0,0,0,0,0,0,0,0,0,0,0,0,0,0,0,0,0,0,0,0,0,0,0,0,0,0,-0.0294,-0.0614,-0.0101,0.0865,0.1287,0,0,0,0,0,0,0,0,0,0,0,0,0,0,0,0,0,0,0,0,0,0,0,0,0,0,0,0,0,0,0,0,0,0,0,0,0,0,0,0,0,0,0.0486,0.1073,0.1586,0.2061,0.2109,0,0,0,0,0,0,0,0,0,0,0,0,0,0,0,0,0,0,0,0,0,0,0,0,0,0,0,0,0,0,0,0,0,0,0,0,0,0,0,0,0,0,0,0.1169,0.2253,0.1815,0.1474,0,0,0,0,0,0,0,0,0,0,0,0,0,0,0,0,0,0,0,0,0,0,0,0,0,0,0,0,0,0,0,0,0,0,0,0,0,0,0,0,0,0,0,-0.0043,-0.0085,-0.016,-0.023,0,0,0,0,0,0,0,0,0,0,0,0,0,0,0,0,0,0,0,0,0,0,0,0,0,0,0,0,0,0,0,0,0,0,0,0,0,0,0,0,0,0,0,0,0.0075,0.0144,0,0,0,0,0,0,0,0,0,0,0,0,0,0,0,0,0,0,0,0,0,0,0,0,0,0,0,0,0,0,0,0,0,0,0,0,0,0,0,0,0,0,0,0,0,0,0,0,0,0,0,0,0,0,0,0,0,0,0,0,0,0,0,0,0,0,0,0,0,0,0,0,0,0,0,0,0,0,0,0,0,0,0,0,0,0,0,0,0,0,0,0,0,0,0,0,0,0,0,0,0,0,0,0,0,0,0,0,0,0,0,0,0,0,0,0,0,0,0,0,0,0,0,0,0,0,0,0,0,0,0,0,0,0,0,0,0,0,0,0,0,0,0,0,0,0,0,0,0,0,0,0,0,0,0,0,0,0,0,0,0,0,0,0,0,0,0,0,0,0,0,0,0,0,0,0,0,0,0,0,0,0,0,0,0,0,0,0,0,0,0,0,0,0,0,0,0,0,0,0,0,0,0,0,0,0,0,0,0,0,0,0,0,0,0,0,0,0,0,0,0,0,0,0,0,0,0,0,0,0,0,0,0,0,0,0,0,0,0,0,0,0,0,0,0,0,0,0,0,0,0,0,0,0,0,0,0,0,0,0,0,0,0,0,0,0,0,0,0,0,0,0,0,0,0,0,0,0,0,0,0,0,0,0,0,0,0,0,0,0,0,0,0,0,0,0,0,0,0,0,0,0,0,0,0,0,0,0,0,0,0,0,0]}],[{"header":{"parameterUnit":"kt","parameterCategory":2,"dx":1,"dy":1,"la1":29.764190673828125,"la2":30.86408042907715,"lo1":-88.46762084960938,"lo2":-86.9344482421875,"nx":47,"ny":34,"refTime":"2022-10-07T00:00:00:Z","depth":"4","parameterNumber":3,"parameterNumberName":"V-component_of_CURRENTS"},"data":[0.0256,0.0972,0.134,0.1687,0.1879,0.1874,0.1799,0.1773,0.1618,0.1185,0.0817,0.0796,0.0902,0.071,0.0545,0.0331,0.0128,0.0101,-0.0048,-0.0347,-0.0427,-0.0155,-0.0219,-0.0801,-0.1468,-0.1714,-0.141,-0.0667,0.0139,0.0331,0.016,0.0491,0.1372,0.1714,0.1874,0.213,0.2461,0.2728,0.2846,0.2862,0.2723,0.2435,0.2093,0.1762,0.1447,0.1175,0.1105,-0.0347,0.0742,0.1185,0.1575,0.181,0.1869,0.1885,0.181,0.1559,0.1143,0.0929,0.0998,0.0913,0.071,0.0555,0.0208,0.0144,0.0176,0.0112,-0.0278,-0.0507,-0.0043,0.0182,-0.0379,-0.1212,-0.173,-0.1805,-0.1474,-0.0886,-0.024,0.0214,0.0331,0.0817,0.1628,0.2013,0.2285,0.2429,0.2563,0.2605,0.2557,0.244,0.2248,0.2061,0.1863,0.1676,0.157,0.1714,-0.0812,0.0187,0.0801,0.1223,0.15,0.1618,0.1554,0.1399,0.1228,0.1121,0.1095,0.1046,0.0833,0.0662,0.0374,0.0091,0.0139,0.0198,0.0182,-0.008,-0.047,-0.0069,0.0502,0.0203,-0.063,-0.1383,-0.1815,-0.1842,-0.1543,-0.1105,-0.0545,0.0139,0.0555,0.1036,0.1575,0.2296,0.2616,0.2904,0.299,0.2904,0.275,0.2611,0.2509,0.2392,0.2274,0.2168,0.2242,-0.0705,-0.0246,0.0272,0.0662,0.0908,0.1046,0.1041,0.1009,0.0977,0.1025,0.1057,0.0918,0.0737,0.0502,0.016,0.008,0.0123,0.0182,0.0192,0.0064,-0.031,-0.0278,0.0432,0.0598,0.0117,-0.0635,-0.1377,-0.1751,-0.1719,-0.1468,-0.118,-0.0678,0.0101,0.0683,0.1175,0.1522,0.1991,0.2638,0.3022,0.3171,0.3097,0.3006,0.2942,0.2851,0.2728,0.2541,0.2467,-0.0198,-0.0182,0.0064,0.031,0.0507,0.0619,0.0705,0.0758,0.0796,0.0796,0.0753,0.0603,0.0459,0.024,0.0085,0.0085,0.0107,0.0144,0.0182,0.0133,-0.0155,-0.0464,-0.0112,0.0336,0.0347,0.0005,-0.0651,-0.1233,-0.1426,-0.1415,-0.1372,-0.1271,-0.0854,0.0032,0.086,0.1244,0.158,0.189,0.2264,0.2712,0.2872,0.2888,0.2856,0.2803,0.2766,0.2648,0.2547,0.0283,0.0144,0.0139,0.023,0.0379,0.0443,0.0486,0.0513,0.0523,0.0486,0.0395,0.0256,0.0139,0.0075,0.0091,0.0096,0.0107,0.0128,0.0166,0.0155,-0.0021,-0.032,-0.0406,-0.016,-0.0005,0.0053,-0.0123,-0.0571,-0.0881,-0.1073,-0.1239,-0.1431,-0.1388,-0.0945,-0.0123,0.0865,0.1644,0.189,0.2125,0.2248,0.2312,0.244,0.2461,0.2493,0.2595,0.2643,0.2627,0.0518,0.0416,0.0315,0.031,0.0363,0.0384,0.0384,0.0374,0.0358,0.031,0.0224,0.0139,0.008,0.008,0.0117,0.0133,0.0144,0.016,0.0176,0.0171,0.0096,-0.0027,-0.016,-0.016,-0.0069,0.0053,0.016,-0.0016,-0.0294,-0.0577,-0.0833,-0.1121,-0.134,-0.1276,-0.078,0.0032,0.0945,0.1805,0.2392,0.2403,0.2499,0.2467,0.2312,0.2365,0.2472,0.2611,0.2686,0.0459,0.0416,0.0368,0.0368,0.0384,0.039,0.0384,0.0379,0.0368,0.0336,0.0272,0.0214,0.0166,0.0155,0.0166,0.0176,0.0187,0.0192,0.0198,0.0176,0.0133,0.0059,-0.0027,-0.0027,0.008,0.0203,0.0315,0.0278,0.0096,-0.0117,-0.031,-0.0507,-0.0801,-0.1014,-0.0828,-0.0203,0.0411,0.1164,0.1794,0.244,0.2888,0.2798,0.2702,0.2702,0.2579,0.2654,0.2787,0.0267,0.0235,0.024,0.0283,0.0342,0.0406,0.0427,0.0427,0.0432,0.0416,0.0368,0.031,0.0256,0.0224,0.0214,0.0203,0.0203,0.0192,0.0187,0.0155,0.0096,-0.0005,-0.0107,-0.0107,0.0016,0.0187,0.031,0.0315,0.0224,0.0133,0.0053,-0.0037,-0.0214,-0.0513,-0.0694,-0.0331,0.0267,0.079,0.1308,0.1831,0.2136,0.2531,0.2963,0.2926,0.2814,0.2931,0.3129,0.016,0.008,0.0085,0.0171,0.0278,0.0411,0.0475,0.0497,0.0497,0.0475,0.0422,0.0352,0.0299,0.0272,0.0262,0.0219,0.0203,0.0192,0.0176,0.0128,0.0037,-0.0075,-0.0155,-0.0155,-0.0048,0.0117,0.0235,0.0262,0.0224,0.0187,0.0187,0.0203,0.0133,-0.0107,-0.0427,-0.0427,0.0053,0.0534,0.1084,0.1372,0.1554,0.1858,0.2018,0.2258,0.2904,0.3246,0.3342,0.0149,-0.0027,-0.0075,0.0043,0.0192,0.0352,0.0464,0.0529,0.0582,0.0571,0.0507,0.039,0.0304,0.0288,0.0336,0.0208,0.0182,0.0166,0.0139,0.0075,-0.0027,-0.0112,-0.016,-0.0155,-0.0091,0.0005,0.008,0.0107,0.0117,0.0144,0.0198,0.0262,0.0288,0.0166,-0.0101,-0.0352,-0.0133,0.0315,0.0694,0.095,0.1105,0.1217,0.1287,0.1345,0.1666,0.1725,0.2029,0.0117,-0.0059,-0.0133,0.0005,0.0123,0.0267,0.0464,0.0646,0.0817,0.0812,0.0715,0.0555,0.031,0.0096,0.0331,0.016,0.0117,0.0101,0.0069,0.0011,-0.0059,-0.0117,-0.0171,-0.0171,-0.0149,-0.0133,-0.0139,-0.0144,-0.0112,-0.0011,0.0112,0.0208,0.0304,0.0299,0.0155,-0.0101,-0.0182,0.0166,0.0395,0.0374,0.039,0.0689,0.103,0.0726,0.0577,0.087,0.1143,0.0101,-0.0032,-0.0005,0.0294,0.0342,0.0262,0.0454,0.0566,0.1014,0.1169,0.1255,0.1137,0.0347,-0.04,0.0117,0.0085,0.0059,0.0037,0.0021,-0.0005,-0.0048,-0.0101,-0.023,-0.0192,-0.0176,-0.0203,-0.0278,-0.0336,-0.0347,-0.0267,-0.0112,0.0027,0.0203,0.0299,0.0278,0.0112,-0.0032,0.0091,0.0246,0.0149,0.0059,0.0267,0.0497,0.0288,0.0374,0.0993,0.1127,0,0,0.1127,0.1095,0.1078,0.039,0.0464,0.0416,0.1356,0.141,0.134,0.1703,0,0.0101,-0.0037,0.0053,0.0037,0.0027,0.0016,0.0005,-0.0021,-0.008,-0.0454,-0.0198,-0.0128,-0.0155,-0.0235,-0.031,-0.0406,-0.0411,-0.0379,-0.0358,-0.0176,-0.0075,0.0043,0.0091,0.0048,0.023,0.0384,0.0208,-0.0059,-0.0085,0.0091,0.0,-0.008,0.008,0.0235,0.0091,0.0278,0.1799,0.0993,0.0806,0,0,0.1463,0.1773,0.1271,0.1025,0.1853,-0.008,0.1303,0,0,0,0,0,0,0,0,-0.0635,-0.0203,-0.0091,-0.0101,-0.0166,-0.023,-0.0422,-0.0256,-0.0294,-0.0384,-0.0374,-0.0561,-0.0566,-0.0374,-0.0139,0.0294,0.0587,0.0384,0.008,-0.0208,-0.0214,-0.0149,-0.016,-0.0155,-0.0187,0.0347,0.0737,0.1191,0.04,-0.0101,-0.0208,0.0053,0.1741,0.2066,0,0,0,-0.008,0.2146,-0.023,-0.04,-0.024,-0.0166,-0.0075,0.0112,0.0112,0,0,0,0,0,0,0,-0.0166,-0.0101,-0.0091,-0.0182,-0.0246,-0.0667,-0.0545,-0.04,-0.0208,0.0021,0.0518,0.0427,0.0219,-0.0027,-0.0101,-0.0096,-0.0085,-0.008,-0.0123,0.0518,0.0497,0.1121,0.0545,-0.0272,-0.0731,0.0101,0.094,0.2141,0.0,0.0,-0.0731,0.0534,0.2098,-0.0454,-0.0838,-0.0561,-0.0278,0.0011,0.0299,0.023,0,0,0,0,0,0,0,0,0,0,0,0,-0.0683,-0.0144,0.0166,0.0262,0.0149,0.0374,0.0224,0.0187,0.0171,0.0128,0.0085,0.0075,0.0059,-0.0005,0,0.008,0.1281,0.0422,-0.0128,-0.0625,0,0,0,0,0,-0.1212,0.1271,0.1319,-0.0464,-0.103,-0.0828,-0.0064,0.0192,0.0342,0,0,0,0,0,0,0,0,0,0,0,0,0,0,0,0,0.0251,0.0966,0,0,0.0048,0.024,0.0214,0.0208,0.0192,0.0166,0.0331,0,0,0,0.0224,0.0027,-0.0203,0,0,0,0,0,-0.0726,0.1399,0.1143,-0.0625,-0.1361,-0.1132,0.0203,0.0219,0,0,0,0,0,0,0,0,0,0,0,0,0,0,0,0,0,0,0.1458,0.0577,0,0,0,0,0,0,0,0.0566,0,0,0,0,0,0,0,0,0,0,0,-0.0278,0.1303,0.1377,-0.0699,-0.1676,-0.1132,0.031,0,0,0,0,0,0,0,0,0,0,0,0,0,0,0,0,0,0,0,0,0.1159,-0.0133,0.0262,0.0529,0,0,0,0,0,0,0,0,0,0,0,0,0,0,0,0,0.04,0.0924,0.1543,-0.0379,-0.1927,-0.0929,0,0,0,0,0,0,0,0,0,0,0,0,0,0,0,0,0,0,0,0,0,0,-0.0267,0.0529,0.1062,0.0,0.0085,0.0085,0,0,0,0,0,0,0,0,0,0,0,0,0,0,0.0507,0.1741,0.0144,-0.1815,-0.094,0,0,0,0,0,0,0,0,0,0,0,0,0,0,0,0,0,0,0,0,0,0,0,0,0,0,0.0166,0.0176,0,0,0,0,0,0,0,0,0,0,0,0,0,0,0.0107,0.1965,0.0497,-0.1666,-0.1196,0,0,0,0,0,0,0,0,0,0,0,0,0,0,0,0,0,0,0,0,0,0,0,0,0,0,0,0,0,0,0,0,0,0,0,0,0,0,0,0,0,0,0.0299,0.1596,0.0315,-0.189,-0.1404,0,0,0,0,0,0,0,0,0,0,0,0,0,0,0,0,0,0,0,0,0,0,0,0,0,0,0,0,0,0,0,0,0,0,0,0,0,0,0,0,0,0,0.0817,0.1159,0.024,-0.1885,-0.1014,0,0,0,0,0,0,0,0,0,0,0,0,0,0,0,0,0,0,0,0,0,0,0,0,0,0,0,0,0,0,0,0,0,0,0,0,0,0,0,0,0,0,0,0.0763,-0.0053,-0.1303,-0.0139,0,0,0,0,0,0,0,0,0,0,0,0,0,0,0,0,0,0,0,0,0,0,0,0,0,0,0,0,0,0,0,0,0,0,0,0,0,0,0,0,0,0,0,0.0395,-0.0315,-0.0817,0.0342,0,0,0,0,0,0,0,0,0,0,0,0,0,0,0,0,0,0,0,0,0,0,0,0,0,0,0,0,0,0,0,0,0,0,0,0,0,0,0,0,0,0,0,0,-0.0075,-0.0737,0,0,0,0,0,0,0,0,0,0,0,0,0,0,0,0,0,0,0,0,0,0,0,0,0,0,0,0,0,0,0,0,0,0,0,0,0,0,0,0,0,0,0,0,0,0,0,0,0,0,0,0,0,0,0,0,0,0,0,0,0,0,0,0,0,0,0,0,0,0,0,0,0,0,0,0,0,0,0,0,0,0,0,0,0,0,0,0,0,0,0,0,0,0,0,0,0,0,0,0,0,0,0,0,0,0,0,0,0,0,0,0,0,0,0,0,0,0,0,0,0,0,0,0,0,0,0,0,0,0,0,0,0,0,0,0,0,0,0,0,0,0,0,0,0,0,0,0,0,0,0,0,0,0,0,0,0,0,0,0,0,0,0,0,0,0,0,0,0,0,0,0,0,0,0,0,0,0,0,0,0,0,0,0,0,0,0,0,0,0,0,0,0,0,0,0,0,0,0,0,0,0,0,0,0,0,0,0,0,0,0,0,0,0,0,0,0,0,0,0,0,0,0,0,0,0,0,0,0,0,0,0,0,0,0,0,0,0,0,0,0,0,0,0,0,0,0,0,0,0,0,0,0,0,0,0,0,0,0,0,0,0,0,0,0,0,0,0,0,0,0,0,0,0,0,0,0,0,0,0,0,0,0,0,0,0,0,0,0,0,0,0,0,0,0,0,0,0,0,0,0,0,0,0,0,0,0,0,0,0,0,0,0]}]],[[{"header":{"parameterUnit":"kt","parameterCategory":2,"dx":1,"dy":1,"la1":29.764190673828125,"la2":30.86408042907715,"lo1":-88.46762084960938,"lo2":-86.9344482421875,"nx":47,"ny":34,"refTime":"2022-10-07T00:00:00:Z","depth":"6","parameterNumber":2,"parameterNumberName":"U-component_of_CURRENTS"},"data":[-0.1121,-0.0614,-0.0299,-0.0112,0.0027,0.0069,-0.0027,-0.0534,-0.1276,-0.149,-0.1217,-0.1116,-0.1287,-0.1426,-0.1463,-0.1383,-0.1207,-0.1111,-0.1175,-0.1239,-0.1297,-0.1538,-0.2034,-0.26,-0.3038,-0.3262,-0.3278,-0.3305,-0.3262,-0.291,-0.2435,-0.2643,-0.2958,-0.2573,-0.2312,-0.2365,-0.2419,-0.2397,-0.2312,-0.2253,-0.2237,-0.2264,-0.229,-0.2264,-0.213,-0.1863,-0.1495,-0.1607,-0.1458,-0.1143,-0.095,-0.0881,-0.0993,-0.134,-0.1783,-0.1917,-0.1612,-0.1319,-0.1345,-0.1458,-0.1415,-0.1271,-0.1057,-0.0876,-0.0865,-0.0982,-0.102,-0.103,-0.1249,-0.1692,-0.2232,-0.2707,-0.3027,-0.3273,-0.3534,-0.3737,-0.3652,-0.3268,-0.275,-0.2771,-0.3006,-0.2755,-0.2445,-0.228,-0.2216,-0.2088,-0.1965,-0.1943,-0.1954,-0.1927,-0.1826,-0.1586,-0.1207,-0.0812,-0.1746,-0.2125,-0.2146,-0.2077,-0.2098,-0.2221,-0.2312,-0.2184,-0.1831,-0.1474,-0.1388,-0.1511,-0.1484,-0.1303,-0.1036,-0.0769,-0.0678,-0.0731,-0.0822,-0.0806,-0.079,-0.0897,-0.1185,-0.165,-0.2093,-0.2477,-0.2803,-0.315,-0.3518,-0.3705,-0.362,-0.3332,-0.276,-0.2579,-0.2718,-0.2611,-0.2413,-0.213,-0.1853,-0.1639,-0.1532,-0.1463,-0.1367,-0.1212,-0.0988,-0.071,-0.0486,-0.1692,-0.2194,-0.2509,-0.2605,-0.2531,-0.2376,-0.2093,-0.1778,-0.1548,-0.1447,-0.1474,-0.1452,-0.1313,-0.1068,-0.0796,-0.0646,-0.0667,-0.0774,-0.0844,-0.0785,-0.071,-0.0705,-0.0747,-0.0972,-0.1377,-0.1746,-0.2066,-0.2413,-0.2798,-0.3193,-0.347,-0.3476,-0.3198,-0.2734,-0.2093,-0.2018,-0.2184,-0.2024,-0.1842,-0.158,-0.1351,-0.1159,-0.1014,-0.0876,-0.0731,-0.0603,-0.0513,-0.1297,-0.1735,-0.205,-0.2146,-0.2072,-0.1906,-0.1714,-0.1623,-0.1628,-0.1623,-0.1506,-0.1281,-0.103,-0.0806,-0.0683,-0.0699,-0.078,-0.0849,-0.086,-0.078,-0.0747,-0.0934,-0.1046,-0.0998,-0.1009,-0.1148,-0.1356,-0.1591,-0.1981,-0.2472,-0.292,-0.3182,-0.3177,-0.3011,-0.2686,-0.2157,-0.157,-0.142,-0.1495,-0.1383,-0.1244,-0.1036,-0.0876,-0.079,-0.0705,-0.0614,-0.0539,-0.0828,-0.1159,-0.1484,-0.1692,-0.1773,-0.1762,-0.1735,-0.1676,-0.1543,-0.1329,-0.11,-0.0892,-0.0758,-0.0731,-0.078,-0.0828,-0.087,-0.0886,-0.0854,-0.0785,-0.0747,-0.078,-0.0849,-0.086,-0.0721,-0.0609,-0.0667,-0.0892,-0.1255,-0.1709,-0.22,-0.2611,-0.2915,-0.3049,-0.291,-0.2632,-0.2088,-0.1564,-0.1121,-0.0892,-0.1004,-0.0972,-0.0838,-0.0683,-0.0539,-0.0438,-0.0363,-0.0673,-0.0646,-0.0689,-0.0812,-0.094,-0.0993,-0.0982,-0.0913,-0.0822,-0.0758,-0.0737,-0.0769,-0.0817,-0.0865,-0.0902,-0.0913,-0.0908,-0.0881,-0.0833,-0.0774,-0.0721,-0.0678,-0.0609,-0.0491,-0.0363,-0.0283,-0.0235,-0.0251,-0.0486,-0.0844,-0.1159,-0.1511,-0.1911,-0.2301,-0.2573,-0.2488,-0.2296,-0.205,-0.149,-0.11,-0.0769,-0.0571,-0.0646,-0.0523,-0.0315,-0.0166,-0.0064,-0.0865,-0.0801,-0.0742,-0.0699,-0.0662,-0.0646,-0.0657,-0.0689,-0.0737,-0.0796,-0.0865,-0.0918,-0.095,-0.0977,-0.0982,-0.0966,-0.0924,-0.0876,-0.0822,-0.0747,-0.0662,-0.0555,-0.0454,-0.0406,-0.0406,-0.0411,-0.0379,-0.0331,-0.032,-0.0368,-0.0459,-0.063,-0.0929,-0.1388,-0.1863,-0.2194,-0.2184,-0.1938,-0.1922,-0.1644,-0.0982,-0.0721,-0.0566,-0.0299,-0.0166,-0.0043,0.0064,-0.1271,-0.1116,-0.0961,-0.0838,-0.0758,-0.0726,-0.0731,-0.0769,-0.0828,-0.0897,-0.0956,-0.0988,-0.1004,-0.102,-0.103,-0.1014,-0.0966,-0.0902,-0.0833,-0.0742,-0.063,-0.0518,-0.0459,-0.0475,-0.0534,-0.0571,-0.0539,-0.0459,-0.0384,-0.0347,-0.0358,-0.039,-0.0497,-0.0828,-0.1367,-0.1767,-0.1959,-0.2104,-0.1853,-0.1516,-0.1602,-0.1495,-0.0854,-0.0459,-0.0336,-0.0011,0.0288,-0.1361,-0.118,-0.0998,-0.0854,-0.0769,-0.0731,-0.0742,-0.0801,-0.0897,-0.0988,-0.1036,-0.1046,-0.1046,-0.1057,-0.1073,-0.1057,-0.0998,-0.0918,-0.0828,-0.0721,-0.0619,-0.0561,-0.0566,-0.0603,-0.0641,-0.063,-0.0555,-0.0448,-0.0347,-0.0315,-0.0336,-0.0363,-0.0406,-0.0518,-0.078,-0.1159,-0.15,-0.1751,-0.2104,-0.2322,-0.1847,-0.1159,-0.1153,-0.1335,-0.0753,0.0112,0.0609,-0.1351,-0.1239,-0.1089,-0.0929,-0.0828,-0.0796,-0.079,-0.0806,-0.087,-0.0977,-0.1078,-0.1121,-0.11,-0.1073,-0.1073,-0.1062,-0.1004,-0.0924,-0.0828,-0.0737,-0.0689,-0.0694,-0.0715,-0.0726,-0.0705,-0.0625,-0.0502,-0.0379,-0.0299,-0.0283,-0.0288,-0.0283,-0.0262,-0.0283,-0.0416,-0.0651,-0.0844,-0.1073,-0.1474,-0.1741,-0.1703,-0.1714,-0.1516,-0.0844,-0.0406,-0.0529,-0.0561,-0.1388,-0.1345,-0.1308,-0.1223,-0.1127,-0.1062,-0.1127,-0.126,-0.1383,-0.149,-0.1538,-0.166,-0.1778,-0.1612,-0.1271,-0.1078,-0.0998,-0.094,-0.0876,-0.0828,-0.0812,-0.0828,-0.0838,-0.0833,-0.0796,-0.0705,-0.0571,-0.0443,-0.0342,-0.0278,-0.0235,-0.0203,-0.0171,-0.0144,-0.0128,-0.0187,-0.0395,-0.0678,-0.0854,-0.0849,-0.0742,-0.0742,-0.0892,-0.094,-0.1062,-0.0806,-0.0395,-0.1377,-0.1319,-0.1442,-0.1692,-0.1991,-0.2194,-0.2258,-0.213,-0.1949,-0.1991,-0.2007,-0.2146,-0.2392,-0.1927,-0.1356,-0.1052,-0.0977,-0.0961,-0.0956,-0.0945,-0.0934,-0.094,-0.0918,-0.0881,-0.086,-0.0828,-0.0774,-0.071,-0.0619,-0.0491,-0.0347,-0.0203,-0.0091,-0.0005,0.0053,0.008,0.0053,-0.0096,-0.0299,-0.0438,-0.0507,-0.0534,-0.055,-0.0635,-0.0908,-0.1249,-0.1479,0,0,-0.0689,-0.1586,-0.1789,-0.221,-0.2029,-0.1351,-0.1009,-0.0384,0.0171,0.0304,0,-0.0513,-0.103,-0.0993,-0.0945,-0.095,-0.0972,-0.0988,-0.0993,-0.103,-0.094,-0.0806,-0.0817,-0.0844,-0.087,-0.0902,-0.0892,-0.0844,-0.0844,-0.0865,-0.0806,-0.0539,-0.0112,0.0214,0.0315,0.0198,-0.0021,-0.0171,-0.0299,-0.0529,-0.0699,-0.0865,-0.1228,-0.1543,-0.1644,-0.141,-0.1655,-0.157,-0.0539,0.0198,0,0,-0.0214,-0.047,0.0005,0.0566,0.1297,0.1159,0.0416,0,0,0,0,0,0,0,0,-0.0251,-0.0593,-0.0731,-0.0801,-0.0854,-0.0977,-0.0982,-0.0977,-0.1046,-0.1121,-0.1164,-0.1111,-0.0913,-0.0518,-0.0096,0.0123,0.0107,0.0069,0.0075,0.0032,0.0021,0.0053,-0.0016,-0.0262,-0.0609,-0.2013,-0.2248,-0.2264,-0.1965,-0.1458,-0.0913,-0.0662,0.0246,0.1148,0,0,0,-0.0219,0.0304,0.0651,0.0486,0.0753,0.0657,0.0497,0.0358,0.0235,0,0,0,0,0,0,0,-0.0219,-0.0342,-0.0256,-0.0203,-0.0043,-0.0139,-0.047,-0.0918,-0.1212,-0.0833,-0.0299,0.0021,0.0262,0.0406,0.0475,0.0513,0.0502,0.0411,0.0326,-0.15,-0.0945,-0.0667,-0.0683,-0.0272,0.0203,0.0299,0.008,0.0112,0.0497,0.094,0.0924,0.0128,0.063,0.1249,0.0908,0.0715,0.0486,0.0187,-0.0032,-0.0096,0,0,0,0,0,0,0,0,0,0,0,0,-0.0037,0.0235,0.0267,-0.0288,-0.0817,-0.0721,-0.0192,0.0192,0.0443,0.055,0.0635,0.0705,0.0705,0.0667,0,0.0187,0.0897,0.1447,0.1329,0.1159,0,0,0,0,0,0.0224,0.0374,0.0529,0.0481,0.0182,0.0208,0.0283,0.0149,0.0037,0,0,0,0,0,0,0,0,0,0,0,0,0,0,0,0,0.1692,0.1324,0,0,0.0048,0.0139,0.0304,0.0454,0.0646,0.094,0.1036,0,0,0,0.0192,0.0347,0.0315,0,0,0,0,0,-0.0069,0.0037,0.0171,-0.0053,-0.0144,-0.008,-0.0192,-0.0214,0,0,0,0,0,0,0,0,0,0,0,0,0,0,0,0,0,0,0.1847,0.2734,0,0,0,0,0,0,0,0.0283,0,0,0,0,0,0,0,0,0,0,0,-0.0021,0.0347,0.0518,0.023,0.0427,0.0288,-0.0112,0,0,0,0,0,0,0,0,0,0,0,0,0,0,0,0,0,0,0,0,0.1095,0.2285,0.212,0.1885,0,0,0,0,0,0,0,0,0,0,0,0,0,0,0,0,0.0091,0.0673,0.1116,0.095,0.0988,0.1148,0,0,0,0,0,0,0,0,0,0,0,0,0,0,0,0,0,0,0,0,0,0,0.0464,0.1335,0.2349,0.2013,0.0785,0.0464,0,0,0,0,0,0,0,0,0,0,0,0,0,0,0.1917,0.1623,0.1404,0.1426,0.1452,0,0,0,0,0,0,0,0,0,0,0,0,0,0,0,0,0,0,0,0,0,0,0,0,0,0,0.0032,0.0064,0,0,0,0,0,0,0,0,0,0,0,0,0,0,0.0539,0.1313,0.165,0.1596,0.1474,0,0,0,0,0,0,0,0,0,0,0,0,0,0,0,0,0,0,0,0,0,0,0,0,0,0,0,0,0,0,0,0,0,0,0,0,0,0,0,0,0,0,0.0005,0.1196,0.2445,0.2328,0.1949,0,0,0,0,0,0,0,0,0,0,0,0,0,0,0,0,0,0,0,0,0,0,0,0,0,0,0,0,0,0,0,0,0,0,0,0,0,0,0,0,0,0,0.1025,0.3081,0.3508,0.2152,0.1468,0,0,0,0,0,0,0,0,0,0,0,0,0,0,0,0,0,0,0,0,0,0,0,0,0,0,0,0,0,0,0,0,0,0,0,0,0,0,0,0,0,0,0,0.1036,0.1874,0.1303,0.0918,0,0,0,0,0,0,0,0,0,0,0,0,0,0,0,0,0,0,0,0,0,0,0,0,0,0,0,0,0,0,0,0,0,0,0,0,0,0,0,0,0,0,0,-0.0101,-0.04,-0.0609,-0.0619,0,0,0,0,0,0,0,0,0,0,0,0,0,0,0,0,0,0,0,0,0,0,0,0,0,0,0,0,0,0,0,0,0,0,0,0,0,0,0,0,0,0,0,0,-0.024,-0.0486,0,0,0,0,0,0,0,0,0,0,0,0,0,0,0,0,0,0,0,0,0,0,0,0,0,0,0,0,0,0,0,0,0,0,0,0,0,0,0,0,0,0,0,0,0,0,0,0,0,0,0,0,0,0,0,0,0,0,0,0,0,0,0,0,0,0,0,0,0,0,0,0,0,0,0,0,0,0,0,0,0,0,0,0,0,0,0,0,0,0,0,0,0,0,0,0,0,0,0,0,0,0,0,0,0,0,0,0,0,0,0,0,0,0,0,0,0,0,0,0,0,0,0,0,0,0,0,0,0,0,0,0,0,0,0,0,0,0,0,0,0,0,0,0,0,0,0,0,0,0,0,0,0,0,0,0,0,0,0,0,0,0,0,0,0,0,0,0,0,0,0,0,0,0,0,0,0,0,0,0,0,0,0,0,0,0,0,0,0,0,0,0,0,0,0,0,0,0,0,0,0,0,0,0,0,0,0,0,0,0,0,0,0,0,0,0,0,0,0,0,0,0,0,0,0,0,0,0,0,0,0,0,0,0,0,0,0,0,0,0,0,0,0,0,0,0,0,0,0,0,0,0,0,0,0,0,0,0,0,0,0,0,0,0,0,0,0,0,0,0,0,0,0,0,0,0,0,0,0,0,0,0,0,0,0,0,0,0,0,0,0,0,0,0,0,0,0,0,0,0,0,0,0,0,0,0,0,0,0,0,0,0,0]}],[{"header":{"parameterUnit":"kt","parameterCategory":2,"dx":1,"dy":1,"la1":29.764190673828125,"la2":30.86408042907715,"lo1":-88.46762084960938,"lo2":-86.9344482421875,"nx":47,"ny":34,"refTime":"2022-10-07T00:00:00:Z","depth":"6","parameterNumber":3,"parameterNumberName":"V-component_of_CURRENTS"},"data":[0.0288,0.1004,0.1388,0.1741,0.1943,0.1933,0.1847,0.1821,0.1687,0.1265,0.0892,0.0865,0.0972,0.0785,0.063,0.0422,0.0214,0.0182,0.0032,-0.0272,-0.0358,-0.008,-0.0128,-0.0694,-0.1351,-0.1596,-0.1313,-0.0598,0.0198,0.039,0.0208,0.0529,0.1404,0.1751,0.1917,0.2168,0.2504,0.2766,0.2883,0.2899,0.2766,0.2477,0.2136,0.181,0.149,0.1207,0.1127,-0.0299,0.0769,0.1212,0.1607,0.1853,0.1917,0.1943,0.189,0.1644,0.1223,0.0993,0.1068,0.0988,0.079,0.0635,0.0283,0.0214,0.024,0.0182,-0.0192,-0.0432,0.0032,0.0267,-0.0278,-0.1095,-0.1596,-0.1671,-0.1356,-0.079,-0.0155,0.0294,0.039,0.0865,0.1676,0.2066,0.2333,0.2477,0.2611,0.2654,0.2605,0.2483,0.2296,0.2104,0.1901,0.1714,0.1602,0.1741,-0.0731,0.0246,0.0849,0.1276,0.1559,0.1687,0.1639,0.149,0.1313,0.1185,0.1159,0.1116,0.0908,0.0737,0.0448,0.016,0.0203,0.0262,0.0251,0.0,-0.0384,0.0005,0.0577,0.0283,-0.0529,-0.1255,-0.1671,-0.1692,-0.141,-0.0993,-0.0448,0.0219,0.0614,0.1084,0.1623,0.2344,0.2664,0.2958,0.3043,0.2958,0.2798,0.2659,0.2547,0.2435,0.2312,0.2205,0.2274,-0.0609,-0.0155,0.0358,0.0747,0.0998,0.1137,0.1132,0.1089,0.1041,0.1084,0.1121,0.0982,0.0806,0.0571,0.0224,0.0144,0.0187,0.0246,0.0262,0.0144,-0.0219,-0.0198,0.0507,0.0662,0.0192,-0.0539,-0.1249,-0.1612,-0.158,-0.134,-0.1062,-0.0582,0.0182,0.0742,0.1217,0.1564,0.2029,0.2675,0.3065,0.3225,0.315,0.3054,0.2985,0.2888,0.2766,0.2584,0.2504,-0.0107,-0.0091,0.0155,0.04,0.0598,0.0705,0.078,0.0828,0.086,0.0865,0.0822,0.0673,0.0529,0.0304,0.0149,0.0155,0.0182,0.0224,0.0256,0.0214,-0.0059,-0.0363,-0.0016,0.0416,0.0416,0.008,-0.0555,-0.1116,-0.1297,-0.1287,-0.1244,-0.1143,-0.0747,0.0107,0.0924,0.1297,0.1618,0.1917,0.2296,0.275,0.2926,0.2942,0.2904,0.284,0.2798,0.268,0.2584,0.0352,0.0224,0.0214,0.031,0.0454,0.0518,0.0561,0.0593,0.0598,0.0561,0.0475,0.0336,0.0214,0.0149,0.0166,0.0176,0.0187,0.0214,0.024,0.0235,0.0075,-0.0208,-0.0288,-0.0053,0.0085,0.0133,-0.0037,-0.0475,-0.0769,-0.095,-0.1105,-0.1287,-0.1255,-0.0833,-0.0032,0.0934,0.1709,0.1943,0.2168,0.229,0.2355,0.2488,0.2509,0.2536,0.2627,0.267,0.2654,0.0561,0.0475,0.0379,0.0374,0.0427,0.0448,0.0454,0.0448,0.0427,0.0384,0.0304,0.0224,0.0171,0.0166,0.0203,0.0219,0.023,0.024,0.0256,0.0246,0.0171,0.0053,-0.0069,-0.0075,0.0011,0.0123,0.0224,0.0064,-0.0203,-0.0464,-0.0705,-0.0972,-0.1185,-0.1143,-0.0667,0.0123,0.1025,0.1869,0.2461,0.2461,0.2547,0.252,0.2365,0.2413,0.2509,0.2643,0.2718,0.0518,0.0475,0.0432,0.0432,0.0443,0.0454,0.0448,0.0443,0.0438,0.0411,0.0358,0.0304,0.0262,0.0246,0.0256,0.0262,0.0267,0.0272,0.0267,0.0246,0.0192,0.0112,0.0016,0.0005,0.0107,0.0235,0.0352,0.0331,0.0166,-0.0032,-0.0208,-0.039,-0.0667,-0.0886,-0.0726,-0.0117,0.0486,0.1233,0.1863,0.2504,0.2953,0.2862,0.2771,0.2766,0.2632,0.2707,0.2835,0.0379,0.0342,0.0336,0.0363,0.0416,0.0475,0.0502,0.0507,0.0507,0.0491,0.0454,0.04,0.0347,0.0315,0.0304,0.0288,0.0283,0.0272,0.0262,0.0219,0.0144,0.0037,-0.0069,-0.008,0.0037,0.0208,0.0336,0.0352,0.0267,0.0182,0.0112,0.0043,-0.0117,-0.0395,-0.0593,-0.0246,0.0331,0.0844,0.1361,0.189,0.2194,0.2589,0.3033,0.3006,0.2894,0.3006,0.3193,0.031,0.0224,0.0214,0.0283,0.0368,0.0486,0.0561,0.0587,0.0593,0.0571,0.0523,0.0448,0.039,0.0358,0.0347,0.0299,0.0278,0.0262,0.023,0.0171,0.0069,-0.0043,-0.0117,-0.0112,-0.0011,0.0139,0.0256,0.0288,0.0256,0.0219,0.0224,0.0251,0.0203,-0.0005,-0.032,-0.0331,0.0128,0.0587,0.1121,0.1404,0.158,0.189,0.205,0.2296,0.2947,0.33,0.3396,0.0288,0.0128,0.0075,0.0182,0.031,0.0454,0.0571,0.0651,0.0705,0.0689,0.0619,0.0497,0.0411,0.0384,0.0411,0.0278,0.023,0.0203,0.0166,0.0096,0.0,-0.0075,-0.0117,-0.0112,-0.0048,0.0037,0.0112,0.0139,0.0155,0.0182,0.0235,0.0304,0.0342,0.0246,0.0005,-0.024,-0.0043,0.0384,0.0747,0.0988,0.1127,0.1233,0.1287,0.134,0.1655,0.1698,0.2007,0.0256,0.0101,0.0021,0.0112,0.0267,0.0406,0.0593,0.078,0.095,0.094,0.0817,0.0651,0.0416,0.0203,0.0374,0.0214,0.0155,0.0123,0.0091,0.0043,-0.0016,-0.0069,-0.0117,-0.0117,-0.0096,-0.008,-0.0075,-0.0069,-0.0027,0.0064,0.0171,0.0262,0.0352,0.0363,0.0246,0.0016,-0.0069,0.0251,0.047,0.0438,0.0438,0.071,0.1052,0.0742,0.0561,0.0806,0.1089,0.0246,0.0133,0.0069,0.0326,0.0448,0.0454,0.063,0.0785,0.1212,0.1399,0.134,0.1116,0.0427,-0.0304,0.0133,0.0117,0.0091,0.0075,0.0059,0.0037,0.0005,-0.0043,-0.0166,-0.0133,-0.0117,-0.0133,-0.0182,-0.0214,-0.0198,-0.0123,0.0,0.0117,0.0278,0.0368,0.0358,0.0224,0.0091,0.0192,0.0336,0.0246,0.0139,0.0326,0.0545,0.0336,0.039,0.0993,0.1132,0,0,0.1068,0.1132,0.1025,0.0529,0.0705,0.0886,0.1548,0.1564,0.1319,0.1265,0,0.0149,-0.0021,0.0075,0.008,0.0075,0.0064,0.0048,0.0027,-0.0027,-0.04,-0.016,-0.0085,-0.0101,-0.0144,-0.0187,-0.0224,-0.0203,-0.0176,-0.0144,0.0005,0.008,0.0166,0.0219,0.0187,0.0342,0.0481,0.0331,0.008,0.0043,0.0208,0.0117,0.0021,0.0155,0.0304,0.0133,0.0288,0.1746,0.1313,0.1367,0,0,0.2184,0.1799,0.1297,0.1078,0.1249,0.0187,0.1057,0,0,0,0,0,0,0,0,-0.0593,-0.0176,-0.0064,-0.0059,-0.0096,-0.0133,-0.031,-0.008,0.0011,0.0011,0.0037,-0.0085,-0.0176,-0.0107,0.0085,0.0443,0.0678,0.0513,0.0251,0.0,-0.0005,0.0048,0.0016,-0.0011,-0.0059,0.0379,0.0694,0.1228,0.0838,0.0828,-0.0256,-0.031,0.2093,0.15,0,0,0,0.0918,0.1607,-0.0059,-0.0278,-0.0096,-0.0048,-0.0027,0.0107,0.0112,0,0,0,0,0,0,0,-0.0149,-0.0027,0.0278,0.0235,0.0278,-0.0224,0.0117,0.0139,0.0182,0.0219,0.0593,0.0523,0.0406,0.0198,0.0128,0.0133,0.0123,0.0096,0.0037,0.0491,0.0331,0.087,0.0561,-0.024,-0.0737,-0.0619,0.0737,0.1062,0.0,0.0,0.0069,0.1244,0.2152,0.0021,-0.04,-0.0278,-0.0064,0.0096,0.0294,0.0224,0,0,0,0,0,0,0,0,0,0,0,0,-0.0219,0.0352,0.0705,0.1153,0.0822,0.0454,0.0262,0.024,0.0304,0.0267,0.0246,0.0235,0.024,0.0171,0,-0.0133,0.0753,0.0379,-0.0331,-0.0582,0,0,0,0,0,0.047,0.1516,0.1821,0.0198,-0.0352,-0.047,0.0011,0.0224,0.0352,0,0,0,0,0,0,0,0,0,0,0,0,0,0,0,0,0.1046,0.1639,0,0,0.0069,0.0272,0.0246,0.0256,0.0288,0.0342,0.0448,0,0,0,0.0347,0.0021,-0.0192,0,0,0,0,0,0.1127,0.213,0.142,0.0085,-0.0534,-0.04,0.023,0.0208,0,0,0,0,0,0,0,0,0,0,0,0,0,0,0,0,0,0,0.1735,0.1319,0,0,0,0,0,0,0,0.0603,0,0,0,0,0,0,0,0,0,0,0,0.1618,0.2312,0.1415,-0.0144,-0.0833,0.0016,0.0395,0,0,0,0,0,0,0,0,0,0,0,0,0,0,0,0,0,0,0,0,0.2632,0.0198,0.0085,0.0384,0,0,0,0,0,0,0,0,0,0,0,0,0,0,0,0,0.2018,0.2082,0.1495,-0.0139,-0.0977,0.0187,0,0,0,0,0,0,0,0,0,0,0,0,0,0,0,0,0,0,0,0,0,0,0.0395,0.0171,0.0769,0.0,0.0091,0.0085,0,0,0,0,0,0,0,0,0,0,0,0,0,0,0.1981,0.1922,0.0379,-0.0747,0.0272,0,0,0,0,0,0,0,0,0,0,0,0,0,0,0,0,0,0,0,0,0,0,0,0,0,0,0.0182,0.0171,0,0,0,0,0,0,0,0,0,0,0,0,0,0,0.1943,0.2488,0.0849,-0.0619,0.0299,0,0,0,0,0,0,0,0,0,0,0,0,0,0,0,0,0,0,0,0,0,0,0,0,0,0,0,0,0,0,0,0,0,0,0,0,0,0,0,0,0,0,0.2061,0.2573,0.0545,-0.0694,0.0133,0,0,0,0,0,0,0,0,0,0,0,0,0,0,0,0,0,0,0,0,0,0,0,0,0,0,0,0,0,0,0,0,0,0,0,0,0,0,0,0,0,0,0.2403,0.1927,-0.0069,-0.0587,0.0363,0,0,0,0,0,0,0,0,0,0,0,0,0,0,0,0,0,0,0,0,0,0,0,0,0,0,0,0,0,0,0,0,0,0,0,0,0,0,0,0,0,0,0,-0.0053,-0.0256,0.0021,0.0577,0,0,0,0,0,0,0,0,0,0,0,0,0,0,0,0,0,0,0,0,0,0,0,0,0,0,0,0,0,0,0,0,0,0,0,0,0,0,0,0,0,0,0,-0.1474,-0.031,0.0577,0.0539,0,0,0,0,0,0,0,0,0,0,0,0,0,0,0,0,0,0,0,0,0,0,0,0,0,0,0,0,0,0,0,0,0,0,0,0,0,0,0,0,0,0,0,0,-0.0459,0.0705,0,0,0,0,0,0,0,0,0,0,0,0,0,0,0,0,0,0,0,0,0,0,0,0,0,0,0,0,0,0,0,0,0,0,0,0,0,0,0,0,0,0,0,0,0,0,0,0,0,0,0,0,0,0,0,0,0,0,0,0,0,0,0,0,0,0,0,0,0,0,0,0,0,0,0,0,0,0,0,0,0,0,0,0,0,0,0,0,0,0,0,0,0,0,0,0,0,0,0,0,0,0,0,0,0,0,0,0,0,0,0,0,0,0,0,0,0,0,0,0,0,0,0,0,0,0,0,0,0,0,0,0,0,0,0,0,0,0,0,0,0,0,0,0,0,0,0,0,0,0,0,0,0,0,0,0,0,0,0,0,0,0,0,0,0,0,0,0,0,0,0,0,0,0,0,0,0,0,0,0,0,0,0,0,0,0,0,0,0,0,0,0,0,0,0,0,0,0,0,0,0,0,0,0,0,0,0,0,0,0,0,0,0,0,0,0,0,0,0,0,0,0,0,0,0,0,0,0,0,0,0,0,0,0,0,0,0,0,0,0,0,0,0,0,0,0,0,0,0,0,0,0,0,0,0,0,0,0,0,0,0,0,0,0,0,0,0,0,0,0,0,0,0,0,0,0,0,0,0,0,0,0,0,0,0,0,0,0,0,0,0,0,0,0,0,0,0,0,0,0,0,0,0,0,0,0,0,0,0,0,0,0,0]}]],[[{"header":{"parameterUnit":"kt","parameterCategory":2,"dx":1,"dy":1,"la1":29.764190673828125,"la2":30.86408042907715,"lo1":-88.46762084960938,"lo2":-86.9344482421875,"nx":47,"ny":34,"refTime":"2022-10-07T00:00:00:Z","depth":"8","parameterNumber":2,"parameterNumberName":"U-component_of_CURRENTS"},"data":[-0.0902,-0.0395,-0.0096,0.0075,0.0203,0.0246,0.0144,-0.0347,-0.103,-0.1212,-0.0966,-0.0892,-0.1062,-0.1191,-0.1217,-0.1143,-0.0966,-0.087,-0.094,-0.103,-0.1105,-0.1345,-0.1815,-0.236,-0.2819,-0.3059,-0.3075,-0.3091,-0.3043,-0.2696,-0.22,-0.2392,-0.2723,-0.236,-0.2093,-0.2141,-0.2178,-0.2157,-0.2082,-0.2024,-0.2007,-0.2029,-0.2045,-0.2007,-0.1869,-0.1607,-0.1244,-0.1431,-0.126,-0.0961,-0.0785,-0.0721,-0.0828,-0.1148,-0.1543,-0.1639,-0.1351,-0.1089,-0.1127,-0.1228,-0.1175,-0.1036,-0.0828,-0.0651,-0.0641,-0.0758,-0.0822,-0.0849,-0.1052,-0.1463,-0.1991,-0.2472,-0.2819,-0.307,-0.331,-0.3502,-0.3433,-0.3054,-0.252,-0.2536,-0.2787,-0.2541,-0.2221,-0.2056,-0.1991,-0.1879,-0.1751,-0.1719,-0.1714,-0.1671,-0.1564,-0.1335,-0.0961,-0.0566,-0.1607,-0.1959,-0.1981,-0.1911,-0.1922,-0.2018,-0.2072,-0.1922,-0.158,-0.1239,-0.1169,-0.1292,-0.126,-0.1078,-0.0822,-0.0561,-0.047,-0.0513,-0.0593,-0.0603,-0.0619,-0.071,-0.0961,-0.1399,-0.1858,-0.2264,-0.26,-0.2936,-0.3294,-0.3481,-0.3401,-0.3118,-0.2541,-0.2355,-0.2493,-0.2387,-0.2189,-0.1911,-0.1655,-0.1447,-0.1329,-0.1239,-0.1121,-0.0956,-0.0737,-0.047,-0.0251,-0.157,-0.2034,-0.2328,-0.2413,-0.2322,-0.2157,-0.1858,-0.1548,-0.134,-0.1244,-0.1276,-0.1249,-0.11,-0.086,-0.0593,-0.0448,-0.047,-0.055,-0.0614,-0.0587,-0.0545,-0.0534,-0.0545,-0.0731,-0.1132,-0.1522,-0.1869,-0.2221,-0.2595,-0.2974,-0.3241,-0.3251,-0.299,-0.2531,-0.1869,-0.1773,-0.1943,-0.1794,-0.1639,-0.1388,-0.1159,-0.0945,-0.078,-0.063,-0.0497,-0.0374,-0.0288,-0.118,-0.1596,-0.1879,-0.1959,-0.1874,-0.1703,-0.1516,-0.1436,-0.1447,-0.1442,-0.1324,-0.1095,-0.0838,-0.0598,-0.0481,-0.0497,-0.0566,-0.063,-0.0641,-0.0587,-0.0582,-0.0769,-0.0854,-0.0774,-0.0774,-0.0924,-0.1159,-0.142,-0.181,-0.2285,-0.2707,-0.2963,-0.2963,-0.2814,-0.2477,-0.1933,-0.1329,-0.118,-0.1265,-0.1169,-0.1046,-0.0833,-0.0662,-0.0561,-0.0475,-0.039,-0.0315,-0.0715,-0.103,-0.1345,-0.1538,-0.1607,-0.1596,-0.1575,-0.1516,-0.1383,-0.1169,-0.0934,-0.0715,-0.0566,-0.0529,-0.0566,-0.0619,-0.0657,-0.0673,-0.0646,-0.0587,-0.0566,-0.0603,-0.0667,-0.0657,-0.0502,-0.039,-0.047,-0.0715,-0.1089,-0.1543,-0.2018,-0.2419,-0.2707,-0.283,-0.2696,-0.2429,-0.1885,-0.1351,-0.0902,-0.0667,-0.0796,-0.0774,-0.0646,-0.0475,-0.0326,-0.0219,-0.0139,-0.055,-0.0529,-0.0571,-0.0683,-0.0806,-0.0854,-0.0844,-0.0769,-0.0673,-0.0603,-0.0571,-0.0587,-0.0625,-0.0667,-0.0694,-0.071,-0.0705,-0.0683,-0.0646,-0.0593,-0.0539,-0.0502,-0.0438,-0.0315,-0.0176,-0.0085,-0.0048,-0.0085,-0.0326,-0.0678,-0.0988,-0.1335,-0.1735,-0.2098,-0.2355,-0.2269,-0.2093,-0.1853,-0.1287,-0.0886,-0.0561,-0.0374,-0.0464,-0.0352,-0.0117,0.0043,0.016,-0.0726,-0.0673,-0.0619,-0.0577,-0.0539,-0.0523,-0.0523,-0.0545,-0.0582,-0.063,-0.0683,-0.0731,-0.0763,-0.079,-0.0796,-0.078,-0.0742,-0.0699,-0.0651,-0.0587,-0.0502,-0.0406,-0.0304,-0.024,-0.0224,-0.0219,-0.0198,-0.0155,-0.0155,-0.0198,-0.0294,-0.0475,-0.0785,-0.1233,-0.1676,-0.1986,-0.1965,-0.1719,-0.1709,-0.1436,-0.0774,-0.0523,-0.039,-0.0133,0.0016,0.016,0.0283,-0.1116,-0.0977,-0.0838,-0.0726,-0.0641,-0.0603,-0.0603,-0.0635,-0.0673,-0.0721,-0.0763,-0.0801,-0.0828,-0.0849,-0.0865,-0.0849,-0.0812,-0.0753,-0.0683,-0.0603,-0.0507,-0.04,-0.0331,-0.032,-0.0358,-0.0379,-0.0352,-0.0283,-0.0214,-0.0182,-0.0192,-0.024,-0.0374,-0.0699,-0.1207,-0.158,-0.1762,-0.189,-0.1628,-0.1287,-0.1377,-0.1287,-0.0662,-0.0278,-0.0155,0.0182,0.0497,-0.1207,-0.1057,-0.0892,-0.0758,-0.0662,-0.0614,-0.0609,-0.0657,-0.0731,-0.0801,-0.0844,-0.0865,-0.0881,-0.0897,-0.0913,-0.0913,-0.087,-0.0806,-0.0726,-0.063,-0.0545,-0.0481,-0.0459,-0.0475,-0.0486,-0.0459,-0.0384,-0.0278,-0.0187,-0.0149,-0.0171,-0.0208,-0.0267,-0.039,-0.0646,-0.0998,-0.1324,-0.1559,-0.189,-0.2098,-0.1623,-0.0945,-0.095,-0.1143,-0.0566,0.0299,0.0806,-0.1217,-0.1121,-0.0993,-0.0844,-0.0726,-0.0657,-0.0619,-0.0625,-0.0689,-0.079,-0.0892,-0.0945,-0.0934,-0.0913,-0.0934,-0.095,-0.0913,-0.0849,-0.0769,-0.0689,-0.0635,-0.0619,-0.0625,-0.0625,-0.0582,-0.0486,-0.0352,-0.0219,-0.0139,-0.0117,-0.0117,-0.0117,-0.0112,-0.0149,-0.0288,-0.0518,-0.0699,-0.0902,-0.126,-0.1516,-0.15,-0.1527,-0.1324,-0.0657,-0.0219,-0.0347,-0.0374,-0.1281,-0.1228,-0.1207,-0.1148,-0.1025,-0.0886,-0.086,-0.0929,-0.103,-0.1137,-0.1265,-0.1458,-0.157,-0.1447,-0.1169,-0.1004,-0.094,-0.0886,-0.0828,-0.0774,-0.0747,-0.0753,-0.0763,-0.0753,-0.0699,-0.0598,-0.0443,-0.0283,-0.0176,-0.0112,-0.0075,-0.0043,-0.0016,0.0011,0.0,-0.0085,-0.0278,-0.0529,-0.0667,-0.0651,-0.0545,-0.055,-0.0705,-0.0763,-0.0902,-0.0619,-0.0171,-0.1287,-0.1271,-0.142,-0.166,-0.1714,-0.1837,-0.1837,-0.1559,-0.1276,-0.1116,-0.1078,-0.165,-0.213,-0.1789,-0.1324,-0.0998,-0.0924,-0.0908,-0.0897,-0.0886,-0.087,-0.087,-0.0854,-0.0817,-0.0785,-0.0731,-0.0646,-0.055,-0.0459,-0.0336,-0.0192,-0.0048,0.0075,0.0155,0.0187,0.0171,0.0144,0.0037,-0.0144,-0.0283,-0.0352,-0.0368,-0.0374,-0.0464,-0.0731,-0.1046,-0.1228,0,0,-0.0395,-0.1068,-0.1372,-0.1335,-0.1308,-0.0208,0.0155,0.0278,-0.0011,-0.0032,0,-0.0502,-0.1004,-0.095,-0.0892,-0.0897,-0.0918,-0.0929,-0.0929,-0.0961,-0.0881,-0.0758,-0.0763,-0.0774,-0.0763,-0.0747,-0.0737,-0.0683,-0.063,-0.0566,-0.0448,-0.0203,0.0133,0.0336,0.0358,0.0294,0.0128,-0.0021,-0.0166,-0.0379,-0.0534,-0.0699,-0.1041,-0.1329,-0.1415,-0.1271,-0.1297,-0.0774,-0.0203,-0.0166,0,0,0.008,0.0272,0.0299,-0.0059,0.0368,0.0609,0.0117,0,0,0,0,0,0,0,0,-0.024,-0.0566,-0.0694,-0.0758,-0.0785,-0.0865,-0.0854,-0.0731,-0.0646,-0.0651,-0.0635,-0.0609,-0.0518,-0.0224,0.0032,0.0182,0.0235,0.0219,0.0208,0.016,0.016,0.0182,0.0112,-0.0091,-0.0411,-0.1543,-0.1356,-0.0747,-0.0123,0.0411,0.0662,-0.0027,-0.0561,-0.0534,0,0,0,-0.0566,-0.0235,0.0822,0.0945,0.0972,0.0902,0.0625,0.0358,0.023,0,0,0,0,0,0,0,-0.0192,-0.0288,-0.0069,0.0251,0.0486,0.055,0.032,-0.0336,-0.0929,-0.0763,-0.0192,0.0144,0.0384,0.0513,0.055,0.0582,0.0587,0.0534,0.0475,-0.103,-0.0208,0.039,0.0406,0.0454,0.0448,0.0032,-0.0422,-0.0139,0.0331,0.04,0.0123,-0.0598,-0.0037,0.0982,0.087,0.0838,0.0828,0.0347,-0.0032,-0.0091,0,0,0,0,0,0,0,0,0,0,0,0,0.0331,0.0828,0.0817,0.031,-0.0155,-0.0529,-0.0176,0.0203,0.0454,0.0555,0.0641,0.0737,0.078,0.0753,0,0.0246,0.0662,0.0731,0.0662,0.0699,0,0,0,0,0,-0.0502,-0.0587,0.0384,0.0753,0.0539,0.0609,0.0475,0.0139,0.0021,0,0,0,0,0,0,0,0,0,0,0,0,0,0,0,0,0.0432,0.0027,0,0,0.0048,0.0139,0.031,0.0459,0.0657,0.0945,0.103,0,0,0,0.0203,0.0368,0.0326,0,0,0,0,0,-0.0625,-0.0203,0.0822,0.0699,0.0571,0.0208,-0.0203,-0.0214,0,0,0,0,0,0,0,0,0,0,0,0,0,0,0,0,0,0,0.0844,0.1297,0,0,0,0,0,0,0,0.0288,0,0,0,0,0,0,0,0,0,0,0,-0.0352,0.0155,0.0902,0.0721,0.0464,-0.0027,-0.0342,0,0,0,0,0,0,0,0,0,0,0,0,0,0,0,0,0,0,0,0,0.0694,0.1447,0.1078,0.0667,0,0,0,0,0,0,0,0,0,0,0,0,0,0,0,0,-0.0171,0.0267,0.0918,0.0881,0.0523,0.024,0,0,0,0,0,0,0,0,0,0,0,0,0,0,0,0,0,0,0,0,0,0,0.0246,0.0635,0.0961,0.1004,0.0678,0.0486,0,0,0,0,0,0,0,0,0,0,0,0,0,0,0.039,0.078,0.1084,0.0667,0.0235,0,0,0,0,0,0,0,0,0,0,0,0,0,0,0,0,0,0,0,0,0,0,0,0,0,0,0.0032,0.0064,0,0,0,0,0,0,0,0,0,0,0,0,0,0,0.0,0.0705,0.1345,0.0774,0.0267,0,0,0,0,0,0,0,0,0,0,0,0,0,0,0,0,0,0,0,0,0,0,0,0,0,0,0,0,0,0,0,0,0,0,0,0,0,0,0,0,0,0,0.008,0.0881,0.141,0.0598,-0.0021,0,0,0,0,0,0,0,0,0,0,0,0,0,0,0,0,0,0,0,0,0,0,0,0,0,0,0,0,0,0,0,0,0,0,0,0,0,0,0,0,0,0,0.0283,0.0929,0.1148,0.0438,-0.0117,0,0,0,0,0,0,0,0,0,0,0,0,0,0,0,0,0,0,0,0,0,0,0,0,0,0,0,0,0,0,0,0,0,0,0,0,0,0,0,0,0,0,0,0.0294,0.0427,-0.0091,-0.0448,0,0,0,0,0,0,0,0,0,0,0,0,0,0,0,0,0,0,0,0,0,0,0,0,0,0,0,0,0,0,0,0,0,0,0,0,0,0,0,0,0,0,0,0.0091,-0.0358,-0.0753,-0.0598,0,0,0,0,0,0,0,0,0,0,0,0,0,0,0,0,0,0,0,0,0,0,0,0,0,0,0,0,0,0,0,0,0,0,0,0,0,0,0,0,0,0,0,0,-0.0342,-0.0689,0,0,0,0,0,0,0,0,0,0,0,0,0,0,0,0,0,0,0,0,0,0,0,0,0,0,0,0,0,0,0,0,0,0,0,0,0,0,0,0,0,0,0,0,0,0,0,0,0,0,0,0,0,0,0,0,0,0,0,0,0,0,0,0,0,0,0,0,0,0,0,0,0,0,0,0,0,0,0,0,0,0,0,0,0,0,0,0,0,0,0,0,0,0,0,0,0,0,0,0,0,0,0,0,0,0,0,0,0,0,0,0,0,0,0,0,0,0,0,0,0,0,0,0,0,0,0,0,0,0,0,0,0,0,0,0,0,0,0,0,0,0,0,0,0,0,0,0,0,0,0,0,0,0,0,0,0,0,0,0,0,0,0,0,0,0,0,0,0,0,0,0,0,0,0,0,0,0,0,0,0,0,0,0,0,0,0,0,0,0,0,0,0,0,0,0,0,0,0,0,0,0,0,0,0,0,0,0,0,0,0,0,0,0,0,0,0,0,0,0,0,0,0,0,0,0,0,0,0,0,0,0,0,0,0,0,0,0,0,0,0,0,0,0,0,0,0,0,0,0,0,0,0,0,0,0,0,0,0,0,0,0,0,0,0,0,0,0,0,0,0,0,0,0,0,0,0,0,0,0,0,0,0,0,0,0,0,0,0,0,0,0,0,0,0,0,0,0,0,0,0,0,0,0,0,0,0,0,0,0,0,0,0]}],[{"header":{"parameterUnit":"kt","parameterCategory":2,"dx":1,"dy":1,"la1":29.764190673828125,"la2":30.86408042907715,"lo1":-88.46762084960938,"lo2":-86.9344482421875,"nx":47,"ny":34,"refTime":"2022-10-07T00:00:00:Z","depth":"8","parameterNumber":3,"parameterNumberName":"V-component_of_CURRENTS"},"data":[0.0283,0.0998,0.1399,0.1773,0.1975,0.1959,0.1869,0.1842,0.173,0.1324,0.094,0.0902,0.1014,0.0844,0.0689,0.0481,0.0272,0.024,0.0091,-0.0219,-0.031,-0.0027,-0.0059,-0.0609,-0.1255,-0.15,-0.1244,-0.0555,0.023,0.0422,0.0224,0.0529,0.141,0.1767,0.1933,0.2184,0.2515,0.2782,0.2899,0.2904,0.2782,0.2499,0.2157,0.1831,0.1506,0.1217,0.1127,-0.0283,0.0758,0.1212,0.1607,0.1863,0.1927,0.197,0.1938,0.1709,0.1276,0.1036,0.1105,0.1041,0.0844,0.0694,0.0336,0.0251,0.0278,0.023,-0.0133,-0.0374,0.008,0.0331,-0.0192,-0.0988,-0.1474,-0.1554,-0.1255,-0.0715,-0.0096,0.0342,0.0416,0.0876,0.1692,0.2088,0.236,0.2499,0.2632,0.2675,0.2632,0.2509,0.2317,0.212,0.1922,0.173,0.1612,0.1741,-0.0673,0.0278,0.087,0.1303,0.1596,0.173,0.1703,0.1559,0.1367,0.1223,0.1191,0.1159,0.0956,0.079,0.0502,0.0203,0.024,0.0294,0.0288,0.0059,-0.032,0.0059,0.0625,0.0342,-0.0443,-0.1137,-0.1532,-0.1559,-0.1292,-0.0902,-0.0374,0.0272,0.0651,0.1105,0.1639,0.2365,0.2686,0.2979,0.307,0.299,0.283,0.2686,0.2568,0.2451,0.2328,0.2221,0.2285,-0.0523,-0.008,0.0427,0.0812,0.1073,0.1207,0.1201,0.1143,0.1078,0.1116,0.1159,0.1025,0.0844,0.0609,0.0267,0.0182,0.023,0.0288,0.0304,0.0198,-0.0149,-0.0139,0.0555,0.0699,0.024,-0.0454,-0.1137,-0.1474,-0.1447,-0.1228,-0.0966,-0.0497,0.024,0.078,0.1239,0.1575,0.2029,0.268,0.3081,0.3251,0.3187,0.3086,0.3006,0.2904,0.2782,0.2605,0.2525,-0.0032,-0.0011,0.023,0.047,0.0673,0.0769,0.0833,0.0865,0.0902,0.0908,0.087,0.0721,0.0566,0.0342,0.0187,0.0198,0.023,0.0278,0.0304,0.0272,0.0021,-0.0272,0.0064,0.0475,0.0464,0.0128,-0.0475,-0.1009,-0.118,-0.1169,-0.1132,-0.1036,-0.0657,0.0166,0.0966,0.1319,0.1612,0.1917,0.2296,0.276,0.2953,0.2974,0.2926,0.2862,0.2814,0.2696,0.26,0.04,0.0283,0.0278,0.0368,0.0507,0.0566,0.0614,0.0646,0.0651,0.0614,0.0529,0.039,0.0267,0.0198,0.0214,0.0235,0.0251,0.0278,0.0299,0.0299,0.0155,-0.0101,-0.0176,0.0043,0.016,0.0192,0.0021,-0.0395,-0.0673,-0.0838,-0.0977,-0.1153,-0.1127,-0.0742,0.0037,0.0988,0.1741,0.1965,0.2184,0.2301,0.2376,0.252,0.2536,0.2557,0.2632,0.2675,0.2659,0.0582,0.0513,0.0422,0.0416,0.047,0.0491,0.0497,0.0497,0.0475,0.0438,0.0363,0.0288,0.024,0.0235,0.0272,0.0283,0.0294,0.0299,0.031,0.0299,0.023,0.0117,0.0,-0.0011,0.0064,0.0171,0.0267,0.0117,-0.0123,-0.0368,-0.0582,-0.0833,-0.1041,-0.1014,-0.0577,0.0187,0.1084,0.1911,0.2499,0.2493,0.2573,0.2547,0.2397,0.244,0.252,0.2648,0.2723,0.0555,0.0518,0.0475,0.047,0.0486,0.0491,0.0491,0.0486,0.0481,0.0459,0.0416,0.0379,0.0336,0.0315,0.0326,0.0326,0.0326,0.0326,0.0315,0.0288,0.023,0.0133,0.0027,0.0,0.0101,0.023,0.0363,0.0352,0.0214,0.0032,-0.0123,-0.0283,-0.0539,-0.0763,-0.0641,-0.0053,0.0534,0.1276,0.1911,0.2547,0.2995,0.2899,0.2814,0.2814,0.2675,0.2739,0.2862,0.0481,0.0432,0.0411,0.0427,0.0464,0.0523,0.055,0.0555,0.055,0.0545,0.0513,0.0464,0.0411,0.0379,0.0368,0.0352,0.0342,0.0326,0.0304,0.0251,0.0166,0.0043,-0.0069,-0.0085,0.0027,0.0192,0.0331,0.0358,0.0283,0.0198,0.0144,0.0096,-0.0032,-0.0294,-0.0502,-0.0182,0.0368,0.0865,0.1383,0.1922,0.2221,0.2627,0.3081,0.3065,0.2958,0.3065,0.3241,0.0438,0.0342,0.0315,0.0363,0.0432,0.0539,0.0614,0.0646,0.0651,0.0635,0.0587,0.0518,0.0454,0.0416,0.04,0.0347,0.032,0.0294,0.0256,0.0182,0.0069,-0.0043,-0.0107,-0.0101,-0.0005,0.0139,0.0246,0.0278,0.0251,0.0219,0.023,0.0267,0.0256,0.008,-0.0224,-0.0256,0.0187,0.0609,0.1132,0.1404,0.1575,0.1895,0.2056,0.2306,0.2974,0.3332,0.3422,0.0395,0.0235,0.0192,0.0272,0.0395,0.0529,0.0646,0.0742,0.0796,0.0769,0.0694,0.0566,0.0475,0.0443,0.0448,0.0304,0.0246,0.0214,0.0171,0.0096,0.0,-0.0069,-0.0101,-0.0091,-0.0032,0.0048,0.0112,0.0139,0.0155,0.0187,0.024,0.031,0.0368,0.0304,0.0096,-0.0139,0.0032,0.0427,0.0769,0.0993,0.1116,0.1217,0.1249,0.1303,0.1607,0.1634,0.1949,0.0336,0.0192,0.0101,0.0171,0.0352,0.0507,0.0689,0.087,0.1025,0.1009,0.0881,0.0721,0.0486,0.0299,0.039,0.023,0.016,0.0123,0.0091,0.0048,-0.0005,-0.0048,-0.0096,-0.0101,-0.0075,-0.0048,-0.0037,-0.0016,0.0032,0.0117,0.0208,0.0288,0.0374,0.04,0.032,0.0128,0.0032,0.031,0.0523,0.0481,0.0454,0.0699,0.1041,0.0726,0.0502,0.071,0.0988,0.0315,0.0192,0.0096,0.0347,0.0529,0.0566,0.078,0.0945,0.1281,0.1479,0.1196,0.1004,0.0529,-0.0176,0.0133,0.0123,0.0101,0.0085,0.0069,0.0053,0.0021,-0.0021,-0.0139,-0.0112,-0.0091,-0.0101,-0.0123,-0.0112,-0.0064,0.0005,0.0101,0.0187,0.032,0.04,0.0411,0.032,0.0208,0.0272,0.0411,0.0315,0.0198,0.0358,0.0566,0.0352,0.0379,0.0956,0.1089,0,0,0.0758,0.0844,0.0913,0.0678,0.0892,0.0956,0.1116,0.0411,0.0683,0.0956,0,0.0155,-0.0016,0.008,0.0091,0.0091,0.008,0.0064,0.0043,-0.0005,-0.0368,-0.0139,-0.0069,-0.0075,-0.0101,-0.0101,-0.0075,-0.0021,0.0043,0.008,0.0208,0.024,0.0299,0.0342,0.031,0.0438,0.0561,0.0438,0.0208,0.0166,0.031,0.0219,0.0112,0.0203,0.032,0.0149,0.0267,0.1164,0.0785,0.0972,0,0,0.0801,0.0721,-0.0021,0.0368,0.0822,0.0144,0.0753,0,0,0,0,0,0,0,0,-0.0561,-0.016,-0.0048,-0.0043,-0.0064,-0.008,-0.0251,0.0091,0.0304,0.0294,0.032,0.0182,0.0144,0.0155,0.0288,0.0555,0.0737,0.0614,0.0438,0.0208,0.0203,0.024,0.0192,0.0128,0.0053,0.0363,0.0507,0.0646,0.032,0.0555,-0.0053,-0.0075,0.0796,0.0635,0,0,0,0.0368,0.0796,0.0214,0.0235,0.023,0.0187,0.0133,0.0107,0.0112,0,0,0,0,0,0,0,-0.0144,-0.0021,0.0411,0.0502,0.0427,0.0246,0.0406,0.0587,0.0657,0.0427,0.063,0.0598,0.0518,0.0374,0.0331,0.0352,0.0331,0.0278,0.0187,0.0427,0.0149,0.0219,0.0085,0.0149,0.0075,-0.0149,0.0582,0.0763,0.0,0.0,0.0256,0.0363,0.0854,0.0523,0.0481,0.0395,0.0374,0.0262,0.0294,0.0224,0,0,0,0,0,0,0,0,0,0,0,0,0.0497,0.0326,0.0726,0.0849,0.0886,0.0486,0.0278,0.0272,0.0374,0.0352,0.0363,0.0384,0.0406,0.0331,0,-0.0187,0.0096,0.0219,0.0048,0.0037,0,0,0,0,0,0.0609,0.0416,0.0678,0.0448,0.0432,0.0352,0.0155,0.0224,0.0358,0,0,0,0,0,0,0,0,0,0,0,0,0,0,0,0,0.0758,0.1004,0,0,0.008,0.0288,0.0262,0.0283,0.0342,0.0454,0.0523,0,0,0,0.0454,0.0059,-0.0182,0,0,0,0,0,0.0849,0.0774,0.0304,0.0235,0.0358,0.0384,0.0182,0.0198,0,0,0,0,0,0,0,0,0,0,0,0,0,0,0,0,0,0,0.1089,0.0678,0,0,0,0,0,0,0,0.0619,0,0,0,0,0,0,0,0,0,0,0,0.1153,0.1116,0.0048,0.0101,0.0347,0.0481,0.0427,0,0,0,0,0,0,0,0,0,0,0,0,0,0,0,0,0,0,0,0,0.1356,0.0326,0.0176,0.0262,0,0,0,0,0,0,0,0,0,0,0,0,0,0,0,0,0.0998,0.1239,0.0166,0.0053,0.0406,0.0619,0,0,0,0,0,0,0,0,0,0,0,0,0,0,0,0,0,0,0,0,0,0,0.0651,0.0352,0.0523,0.0,0.0096,0.0085,0,0,0,0,0,0,0,0,0,0,0,0,0,0,0.1356,0.0582,0.016,0.0262,0.0587,0,0,0,0,0,0,0,0,0,0,0,0,0,0,0,0,0,0,0,0,0,0,0,0,0,0,0.0187,0.0166,0,0,0,0,0,0,0,0,0,0,0,0,0,0,0.1548,0.118,0.0278,0.0176,0.0529,0,0,0,0,0,0,0,0,0,0,0,0,0,0,0,0,0,0,0,0,0,0,0,0,0,0,0,0,0,0,0,0,0,0,0,0,0,0,0,0,0,0,0.1191,0.1426,0.0278,0.0352,0.0571,0,0,0,0,0,0,0,0,0,0,0,0,0,0,0,0,0,0,0,0,0,0,0,0,0,0,0,0,0,0,0,0,0,0,0,0,0,0,0,0,0,0,0.079,0.1249,0.032,0.0518,0.0561,0,0,0,0,0,0,0,0,0,0,0,0,0,0,0,0,0,0,0,0,0,0,0,0,0,0,0,0,0,0,0,0,0,0,0,0,0,0,0,0,0,0,0,0.0747,0.0603,0.0523,0.0534,0,0,0,0,0,0,0,0,0,0,0,0,0,0,0,0,0,0,0,0,0,0,0,0,0,0,0,0,0,0,0,0,0,0,0,0,0,0,0,0,0,0,0,0.0294,0.0203,0.0358,0.0539,0,0,0,0,0,0,0,0,0,0,0,0,0,0,0,0,0,0,0,0,0,0,0,0,0,0,0,0,0,0,0,0,0,0,0,0,0,0,0,0,0,0,0,0,-0.0384,0.0272,0,0,0,0,0,0,0,0,0,0,0,0,0,0,0,0,0,0,0,0,0,0,0,0,0,0,0,0,0,0,0,0,0,0,0,0,0,0,0,0,0,0,0,0,0,0,0,0,0,0,0,0,0,0,0,0,0,0,0,0,0,0,0,0,0,0,0,0,0,0,0,0,0,0,0,0,0,0,0,0,0,0,0,0,0,0,0,0,0,0,0,0,0,0,0,0,0,0,0,0,0,0,0,0,0,0,0,0,0,0,0,0,0,0,0,0,0,0,0,0,0,0,0,0,0,0,0,0,0,0,0,0,0,0,0,0,0,0,0,0,0,0,0,0,0,0,0,0,0,0,0,0,0,0,0,0,0,0,0,0,0,0,0,0,0,0,0,0,0,0,0,0,0,0,0,0,0,0,0,0,0,0,0,0,0,0,0,0,0,0,0,0,0,0,0,0,0,0,0,0,0,0,0,0,0,0,0,0,0,0,0,0,0,0,0,0,0,0,0,0,0,0,0,0,0,0,0,0,0,0,0,0,0,0,0,0,0,0,0,0,0,0,0,0,0,0,0,0,0,0,0,0,0,0,0,0,0,0,0,0,0,0,0,0,0,0,0,0,0,0,0,0,0,0,0,0,0,0,0,0,0,0,0,0,0,0,0,0,0,0,0,0,0,0,0,0,0,0,0,0,0,0,0,0,0,0,0,0,0,0,0,0,0]}]],[[{"header":{"parameterUnit":"kt","parameterCategory":2,"dx":1,"dy":1,"la1":29.764190673828125,"la2":30.86408042907715,"lo1":-88.46762084960938,"lo2":-86.9344482421875,"nx":47,"ny":34,"refTime":"2022-10-07T00:00:00:Z","depth":"10","parameterNumber":2,"parameterNumberName":"U-component_of_CURRENTS"},"data":[-0.0721,-0.0208,0.0064,0.0224,0.0336,0.0374,0.0272,-0.0198,-0.0822,-0.0972,-0.0753,-0.0705,-0.0876,-0.0988,-0.1009,-0.0934,-0.0769,-0.0678,-0.0753,-0.0865,-0.0966,-0.1201,-0.1644,-0.2168,-0.2638,-0.2904,-0.2926,-0.2936,-0.2888,-0.2541,-0.2024,-0.22,-0.2552,-0.2194,-0.1933,-0.197,-0.1997,-0.1975,-0.1911,-0.1853,-0.1831,-0.1837,-0.1847,-0.1805,-0.166,-0.141,-0.1052,-0.1287,-0.11,-0.0817,-0.0662,-0.0609,-0.0705,-0.0998,-0.1335,-0.1393,-0.1121,-0.0897,-0.0945,-0.1036,-0.0977,-0.0844,-0.0641,-0.0475,-0.0459,-0.0577,-0.0667,-0.0715,-0.0902,-0.1281,-0.1789,-0.228,-0.2648,-0.291,-0.3134,-0.3321,-0.3268,-0.2894,-0.2349,-0.236,-0.2621,-0.2376,-0.205,-0.1879,-0.1821,-0.1719,-0.1602,-0.1548,-0.1527,-0.1468,-0.1356,-0.1132,-0.0774,-0.0379,-0.1506,-0.1831,-0.1847,-0.1789,-0.1789,-0.1853,-0.1863,-0.1692,-0.1356,-0.1041,-0.0988,-0.1111,-0.1068,-0.0892,-0.0641,-0.039,-0.031,-0.0336,-0.0406,-0.0443,-0.0497,-0.0571,-0.078,-0.1196,-0.166,-0.2088,-0.2435,-0.2766,-0.3113,-0.3305,-0.3235,-0.2958,-0.2371,-0.2173,-0.2317,-0.2205,-0.2013,-0.1751,-0.1506,-0.1303,-0.1175,-0.1062,-0.0924,-0.0747,-0.0539,-0.0288,-0.0069,-0.1479,-0.1906,-0.2173,-0.2242,-0.2141,-0.1954,-0.1644,-0.1351,-0.1159,-0.1078,-0.1111,-0.1073,-0.0924,-0.0689,-0.0427,-0.0294,-0.0304,-0.0368,-0.0422,-0.0432,-0.0427,-0.0411,-0.0379,-0.0529,-0.0924,-0.1345,-0.1714,-0.2072,-0.2435,-0.2798,-0.3043,-0.307,-0.2835,-0.2376,-0.1692,-0.158,-0.1746,-0.1623,-0.149,-0.1239,-0.1009,-0.0785,-0.0593,-0.0438,-0.0304,-0.0198,-0.0112,-0.1095,-0.1479,-0.173,-0.1789,-0.1698,-0.1527,-0.1351,-0.1281,-0.1292,-0.1292,-0.1175,-0.0945,-0.0678,-0.0432,-0.0315,-0.0336,-0.0395,-0.0443,-0.0454,-0.0432,-0.0464,-0.0641,-0.0699,-0.0587,-0.0571,-0.0737,-0.1004,-0.1287,-0.1682,-0.2141,-0.2536,-0.2776,-0.2792,-0.267,-0.2322,-0.1762,-0.1148,-0.0988,-0.1095,-0.1014,-0.0897,-0.0678,-0.0497,-0.0379,-0.0294,-0.0214,-0.0144,-0.0635,-0.0934,-0.1228,-0.141,-0.1474,-0.1468,-0.1447,-0.1388,-0.1255,-0.1041,-0.0801,-0.0571,-0.0411,-0.0363,-0.0395,-0.0448,-0.0486,-0.0497,-0.0475,-0.0438,-0.0422,-0.047,-0.0523,-0.0491,-0.0326,-0.0208,-0.031,-0.0587,-0.0977,-0.142,-0.1885,-0.2258,-0.2531,-0.2648,-0.2525,-0.228,-0.1735,-0.1191,-0.0731,-0.0502,-0.0635,-0.0625,-0.0502,-0.0331,-0.0166,-0.0048,0.0037,-0.0459,-0.0448,-0.0486,-0.0593,-0.0699,-0.0753,-0.0731,-0.0657,-0.0566,-0.0486,-0.0443,-0.0443,-0.047,-0.0502,-0.0534,-0.0545,-0.0545,-0.0529,-0.0497,-0.0454,-0.0411,-0.0374,-0.0304,-0.0171,-0.0027,0.0069,0.0101,0.0037,-0.0208,-0.055,-0.086,-0.1212,-0.1607,-0.1938,-0.2162,-0.2098,-0.1943,-0.1714,-0.1143,-0.0737,-0.04,-0.0224,-0.0326,-0.0219,0.0021,0.0208,0.0336,-0.0619,-0.0577,-0.0534,-0.0491,-0.0454,-0.0432,-0.0438,-0.0454,-0.0475,-0.0507,-0.0545,-0.0587,-0.063,-0.0657,-0.0662,-0.0646,-0.0614,-0.0577,-0.0534,-0.0475,-0.0406,-0.032,-0.0219,-0.0133,-0.0091,-0.0075,-0.0053,-0.0027,-0.0032,-0.0075,-0.0176,-0.0368,-0.0694,-0.1132,-0.1532,-0.1826,-0.1789,-0.1532,-0.1538,-0.1281,-0.0625,-0.0379,-0.0256,-0.0011,0.0149,0.0315,0.0454,-0.0998,-0.0881,-0.0758,-0.0657,-0.0571,-0.0534,-0.0534,-0.055,-0.0577,-0.0598,-0.0635,-0.0673,-0.0715,-0.0753,-0.0763,-0.0753,-0.0721,-0.0673,-0.0609,-0.0539,-0.0464,-0.0374,-0.0294,-0.0251,-0.024,-0.024,-0.0219,-0.0155,-0.0096,-0.0064,-0.0075,-0.0139,-0.0304,-0.063,-0.11,-0.1442,-0.1607,-0.1725,-0.1447,-0.11,-0.1207,-0.1137,-0.0545,-0.0144,-0.0016,0.032,0.0651,-0.1105,-0.0982,-0.0838,-0.071,-0.0619,-0.0555,-0.0545,-0.0582,-0.0635,-0.0689,-0.0731,-0.0763,-0.0796,-0.0817,-0.0838,-0.0844,-0.0817,-0.0763,-0.0689,-0.0609,-0.0529,-0.0459,-0.0432,-0.0427,-0.0406,-0.0352,-0.0272,-0.0171,-0.0085,-0.0043,-0.0053,-0.0101,-0.0182,-0.0326,-0.0566,-0.0892,-0.1201,-0.142,-0.173,-0.1922,-0.1458,-0.0796,-0.0806,-0.102,-0.0438,0.0432,0.095,-0.1153,-0.1068,-0.095,-0.0812,-0.0689,-0.0587,-0.0529,-0.0539,-0.0614,-0.0721,-0.0812,-0.0854,-0.0849,-0.0838,-0.0876,-0.0908,-0.0881,-0.0822,-0.0747,-0.0673,-0.0614,-0.0593,-0.0598,-0.0587,-0.0539,-0.0427,-0.0283,-0.0139,-0.0043,-0.0011,-0.0011,-0.0011,-0.0016,-0.0075,-0.0224,-0.0443,-0.0609,-0.078,-0.1089,-0.1319,-0.1335,-0.1388,-0.1196,-0.0523,-0.0101,-0.023,-0.0267,-0.1217,-0.1169,-0.1164,-0.1121,-0.1004,-0.0817,-0.0657,-0.0646,-0.0726,-0.086,-0.1116,-0.1372,-0.1426,-0.1308,-0.1105,-0.0966,-0.0913,-0.086,-0.0801,-0.0753,-0.0726,-0.0726,-0.0731,-0.0721,-0.0667,-0.0555,-0.039,-0.0214,-0.0085,-0.0011,0.0027,0.0048,0.0075,0.0091,0.0053,-0.0059,-0.0235,-0.0427,-0.0529,-0.0497,-0.0395,-0.0406,-0.0577,-0.0662,-0.0796,-0.0454,0.0043,-0.1228,-0.1239,-0.1383,-0.1618,-0.1591,-0.1281,-0.1116,-0.086,-0.0507,-0.024,-0.0662,-0.1212,-0.1548,-0.1148,-0.1105,-0.0956,-0.0897,-0.087,-0.0854,-0.0844,-0.0833,-0.0833,-0.0812,-0.078,-0.0747,-0.0694,-0.0593,-0.047,-0.0363,-0.0246,-0.0107,0.0037,0.0155,0.0219,0.023,0.0182,0.0149,0.0107,-0.0037,-0.0182,-0.0251,-0.0256,-0.0251,-0.0363,-0.0646,-0.0913,-0.1068,0,0,-0.0363,-0.0977,-0.126,-0.0929,-0.0155,0.0379,0.0326,0.0235,-0.0011,-0.0037,0,-0.0486,-0.0961,-0.0897,-0.0844,-0.0844,-0.086,-0.0876,-0.087,-0.0897,-0.0822,-0.0715,-0.0721,-0.0726,-0.071,-0.0683,-0.0657,-0.0593,-0.0481,-0.0358,-0.0219,0.0005,0.0246,0.0352,0.0347,0.0299,0.0198,0.0053,-0.0117,-0.031,-0.0432,-0.0593,-0.0924,-0.118,-0.1244,-0.1185,-0.1169,-0.0683,-0.0187,-0.0166,0,0,0.0059,0.0187,0.0235,-0.0064,0.0176,0.04,0.0101,0,0,0,0,0,0,0,0,-0.0235,-0.0545,-0.0667,-0.0721,-0.0731,-0.0801,-0.079,-0.0667,-0.0481,-0.0336,-0.0294,-0.0272,-0.0182,-0.0016,0.0096,0.0176,0.0267,0.0283,0.0262,0.0224,0.023,0.024,0.0176,0.0011,-0.0272,-0.1372,-0.1105,-0.0518,-0.0059,0.0336,0.0582,-0.0032,-0.0529,-0.0502,0,0,0,-0.0427,-0.0203,0.0555,0.0657,0.0726,0.0763,0.0609,0.0352,0.0224,0,0,0,0,0,0,0,-0.0182,-0.0272,-0.0053,0.0267,0.0609,0.0801,0.0731,0.0464,-0.0155,-0.0593,-0.0176,0.0166,0.0427,0.0566,0.0571,0.0593,0.0609,0.0587,0.055,-0.094,-0.0182,0.0379,0.039,0.0438,0.0432,0.0032,-0.0416,-0.0139,0.0326,0.039,0.0117,-0.0577,-0.0053,0.0849,0.0721,0.0699,0.0726,0.0331,-0.0037,-0.0091,0,0,0,0,0,0,0,0,0,0,0,0,0.032,0.0774,0.0699,0.0224,-0.0139,-0.0294,-0.0166,0.0203,0.0454,0.0545,0.0614,0.071,0.0785,0.0774,0,0.0256,0.0657,0.0705,0.0646,0.0678,0,0,0,0,0,-0.0347,-0.0432,0.0368,0.0731,0.0529,0.0598,0.0464,0.0128,0.0011,0,0,0,0,0,0,0,0,0,0,0,0,0,0,0,0,0.04,0.0005,0,0,0.0048,0.0139,0.031,0.0459,0.0651,0.0934,0.1014,0,0,0,0.0203,0.0363,0.0326,0,0,0,0,0,-0.0352,0.0043,0.0785,0.0673,0.0539,0.0198,-0.0203,-0.0208,0,0,0,0,0,0,0,0,0,0,0,0,0,0,0,0,0,0,0.0742,0.1121,0,0,0,0,0,0,0,0.0288,0,0,0,0,0,0,0,0,0,0,0,-0.0272,0.0198,0.086,0.0699,0.0454,-0.0032,-0.0342,0,0,0,0,0,0,0,0,0,0,0,0,0,0,0,0,0,0,0,0,0.0609,0.1009,0.0721,0.0635,0,0,0,0,0,0,0,0,0,0,0,0,0,0,0,0,-0.0176,0.023,0.087,0.0849,0.0507,0.0235,0,0,0,0,0,0,0,0,0,0,0,0,0,0,0,0,0,0,0,0,0,0,0.024,0.0614,0.0918,0.0966,0.0662,0.0486,0,0,0,0,0,0,0,0,0,0,0,0,0,0,0.0358,0.0731,0.0929,0.0448,0.0037,0,0,0,0,0,0,0,0,0,0,0,0,0,0,0,0,0,0,0,0,0,0,0,0,0,0,0.0032,0.0069,0,0,0,0,0,0,0,0,0,0,0,0,0,0,-0.0011,0.0497,0.0956,0.0545,0.0198,0,0,0,0,0,0,0,0,0,0,0,0,0,0,0,0,0,0,0,0,0,0,0,0,0,0,0,0,0,0,0,0,0,0,0,0,0,0,0,0,0,0,0.0005,0.0529,0.0892,0.0352,-0.0043,0,0,0,0,0,0,0,0,0,0,0,0,0,0,0,0,0,0,0,0,0,0,0,0,0,0,0,0,0,0,0,0,0,0,0,0,0,0,0,0,0,0,0.0262,0.0683,0.0699,0.0208,-0.0139,0,0,0,0,0,0,0,0,0,0,0,0,0,0,0,0,0,0,0,0,0,0,0,0,0,0,0,0,0,0,0,0,0,0,0,0,0,0,0,0,0,0,0,0.0155,0.0187,-0.0187,-0.0438,0,0,0,0,0,0,0,0,0,0,0,0,0,0,0,0,0,0,0,0,0,0,0,0,0,0,0,0,0,0,0,0,0,0,0,0,0,0,0,0,0,0,0,0.0091,-0.0336,-0.0715,-0.0582,0,0,0,0,0,0,0,0,0,0,0,0,0,0,0,0,0,0,0,0,0,0,0,0,0,0,0,0,0,0,0,0,0,0,0,0,0,0,0,0,0,0,0,0,-0.0336,-0.0673,0,0,0,0,0,0,0,0,0,0,0,0,0,0,0,0,0,0,0,0,0,0,0,0,0,0,0,0,0,0,0,0,0,0,0,0,0,0,0,0,0,0,0,0,0,0,0,0,0,0,0,0,0,0,0,0,0,0,0,0,0,0,0,0,0,0,0,0,0,0,0,0,0,0,0,0,0,0,0,0,0,0,0,0,0,0,0,0,0,0,0,0,0,0,0,0,0,0,0,0,0,0,0,0,0,0,0,0,0,0,0,0,0,0,0,0,0,0,0,0,0,0,0,0,0,0,0,0,0,0,0,0,0,0,0,0,0,0,0,0,0,0,0,0,0,0,0,0,0,0,0,0,0,0,0,0,0,0,0,0,0,0,0,0,0,0,0,0,0,0,0,0,0,0,0,0,0,0,0,0,0,0,0,0,0,0,0,0,0,0,0,0,0,0,0,0,0,0,0,0,0,0,0,0,0,0,0,0,0,0,0,0,0,0,0,0,0,0,0,0,0,0,0,0,0,0,0,0,0,0,0,0,0,0,0,0,0,0,0,0,0,0,0,0,0,0,0,0,0,0,0,0,0,0,0,0,0,0,0,0,0,0,0,0,0,0,0,0,0,0,0,0,0,0,0,0,0,0,0,0,0,0,0,0,0,0,0,0,0,0,0,0,0,0,0,0,0,0,0,0,0,0,0,0,0,0,0,0,0,0,0,0,0]}],[{"header":{"parameterUnit":"kt","parameterCategory":2,"dx":1,"dy":1,"la1":29.764190673828125,"la2":30.86408042907715,"lo1":-88.46762084960938,"lo2":-86.9344482421875,"nx":47,"ny":34,"refTime":"2022-10-07T00:00:00:Z","depth":"10","parameterNumber":3,"parameterNumberName":"V-component_of_CURRENTS"},"data":[0.0251,0.0966,0.1393,0.1778,0.1997,0.197,0.1874,0.1842,0.1751,0.1361,0.0961,0.0924,0.1041,0.0876,0.0731,0.0529,0.032,0.0278,0.0123,-0.0182,-0.0283,0.0005,-0.0005,-0.0539,-0.1164,-0.1415,-0.1185,-0.0529,0.024,0.0432,0.0219,0.0507,0.1393,0.1762,0.1933,0.2184,0.2509,0.2776,0.2888,0.2899,0.2782,0.2504,0.2168,0.1842,0.1516,0.1212,0.1105,-0.0283,0.0721,0.118,0.1586,0.1853,0.1917,0.1975,0.197,0.1751,0.1308,0.1057,0.1127,0.1068,0.0876,0.0731,0.0368,0.0278,0.0294,0.0251,-0.0085,-0.0331,0.0117,0.0379,-0.0128,-0.0892,-0.1356,-0.1436,-0.1164,-0.0651,-0.0053,0.0374,0.0427,0.087,0.1692,0.2098,0.2365,0.2504,0.2638,0.2686,0.2643,0.252,0.2322,0.2125,0.1927,0.173,0.1607,0.173,-0.0625,0.0294,0.0876,0.1308,0.1612,0.1757,0.1746,0.1612,0.1404,0.1239,0.1207,0.1175,0.0982,0.0817,0.0534,0.023,0.0256,0.031,0.0304,0.0101,-0.0267,0.0096,0.0657,0.0379,-0.0374,-0.103,-0.1399,-0.1426,-0.1185,-0.0822,-0.031,0.0315,0.0662,0.1105,0.1639,0.2365,0.2686,0.2985,0.3086,0.3011,0.2851,0.2696,0.2573,0.2451,0.2328,0.2226,0.228,-0.0443,-0.0011,0.0481,0.0865,0.1132,0.1265,0.1249,0.1175,0.1095,0.1127,0.1175,0.1052,0.0865,0.063,0.0288,0.0198,0.0251,0.031,0.0326,0.0235,-0.0091,-0.0085,0.0587,0.0721,0.0272,-0.039,-0.1025,-0.1345,-0.1324,-0.1127,-0.0886,-0.0432,0.0283,0.079,0.1233,0.1564,0.2002,0.2659,0.3075,0.3268,0.3209,0.3102,0.3011,0.291,0.2782,0.2611,0.2531,0.0037,0.0059,0.0294,0.0529,0.0726,0.0812,0.087,0.0886,0.0918,0.0929,0.0897,0.0747,0.0593,0.0358,0.0203,0.0224,0.0267,0.0315,0.0342,0.0315,0.0091,-0.0182,0.0133,0.0523,0.0491,0.016,-0.0406,-0.0908,-0.1062,-0.1052,-0.1025,-0.094,-0.0582,0.0203,0.0988,0.1319,0.1586,0.189,0.228,0.2755,0.2969,0.2995,0.2942,0.2862,0.2808,0.2696,0.26,0.0438,0.0336,0.0326,0.0411,0.0545,0.0598,0.0651,0.0683,0.0689,0.0651,0.0566,0.0427,0.031,0.0235,0.0251,0.0278,0.0299,0.0326,0.0347,0.0342,0.0224,0.0,-0.0069,0.0133,0.0224,0.0235,0.0069,-0.032,-0.0582,-0.0726,-0.0854,-0.102,-0.1004,-0.0662,0.0096,0.102,0.1757,0.197,0.2178,0.229,0.2381,0.2536,0.2552,0.2557,0.2627,0.2664,0.2654,0.0587,0.0534,0.0448,0.0448,0.0497,0.0518,0.0529,0.0523,0.0507,0.0475,0.0406,0.0342,0.0294,0.0288,0.032,0.0331,0.0342,0.0347,0.0352,0.0336,0.0272,0.0166,0.0059,0.0043,0.0107,0.0198,0.0294,0.016,-0.0059,-0.0272,-0.0459,-0.0689,-0.0892,-0.0892,-0.0502,0.0235,0.1121,0.1938,0.2531,0.2509,0.2579,0.2563,0.2419,0.2451,0.252,0.2643,0.2712,0.0582,0.0539,0.0497,0.0497,0.0507,0.0513,0.0513,0.0507,0.0502,0.0491,0.0459,0.0427,0.039,0.0368,0.0374,0.0368,0.0368,0.0358,0.0347,0.0315,0.0246,0.0139,0.0005,-0.0037,0.0064,0.0203,0.0347,0.0358,0.0246,0.0085,-0.0048,-0.0176,-0.0411,-0.0646,-0.0571,-0.0005,0.0561,0.1297,0.1938,0.2579,0.3017,0.2926,0.2846,0.2851,0.2707,0.2755,0.2872,0.0566,0.0502,0.0464,0.0464,0.0491,0.0545,0.0571,0.0577,0.0577,0.0571,0.0545,0.0502,0.0448,0.0411,0.0406,0.0384,0.0374,0.0352,0.0326,0.0267,0.0166,0.0032,-0.0085,-0.0112,-0.0005,0.016,0.0304,0.0336,0.0278,0.0198,0.0155,0.0139,0.0048,-0.0192,-0.0427,-0.0133,0.0384,0.087,0.1388,0.1933,0.2232,0.2643,0.3113,0.3118,0.3017,0.3113,0.3284,0.0529,0.0416,0.0379,0.0411,0.0459,0.0561,0.0635,0.0673,0.0683,0.0667,0.0619,0.055,0.0481,0.0438,0.0427,0.0363,0.0331,0.0304,0.0262,0.0182,0.0064,-0.0048,-0.0107,-0.0101,-0.0011,0.0117,0.0219,0.0246,0.0214,0.0187,0.0203,0.0262,0.0288,0.0155,-0.0133,-0.0187,0.023,0.0614,0.1121,0.1377,0.1543,0.1885,0.2034,0.2296,0.2985,0.3358,0.3444,0.0443,0.0294,0.0246,0.0315,0.0427,0.0561,0.0689,0.0785,0.0828,0.0801,0.0726,0.0598,0.0507,0.047,0.0464,0.0315,0.0246,0.0208,0.0166,0.0091,0.0,-0.0064,-0.0096,-0.0085,-0.0032,0.0048,0.0107,0.0128,0.0139,0.0166,0.0224,0.0294,0.0368,0.0342,0.0182,-0.0048,0.0096,0.0454,0.0774,0.0966,0.1078,0.1164,0.1196,0.1255,0.1554,0.1559,0.1863,0.0368,0.0224,0.0133,0.0192,0.0379,0.055,0.0747,0.0886,0.102,0.0993,0.0892,0.0737,0.0534,0.0363,0.039,0.023,0.016,0.0117,0.0091,0.0053,0.0,-0.0043,-0.0091,-0.0091,-0.0069,-0.0037,-0.0021,0.0016,0.0075,0.0149,0.0224,0.0288,0.0368,0.0416,0.0368,0.0208,0.0117,0.0358,0.0555,0.0497,0.0448,0.0662,0.1004,0.0667,0.0427,0.0561,0.079,0.0342,0.0219,0.0128,0.0358,0.055,0.0614,0.086,0.0966,0.1191,0.1084,0.0982,0.0865,0.0598,0.0027,0.0107,0.0123,0.0107,0.0085,0.0075,0.0059,0.0032,-0.0011,-0.0123,-0.0101,-0.008,-0.0085,-0.0096,-0.0053,0.0037,0.0101,0.0176,0.0235,0.0336,0.0411,0.0432,0.0368,0.0278,0.0352,0.047,0.0379,0.0251,0.0368,0.0561,0.0315,0.0363,0.0854,0.0961,0,0,0.0699,0.0801,0.0865,0.0667,0.0844,0.0593,0.0571,0.04,0.0657,0.0806,0,0.0166,-0.0011,0.0075,0.0091,0.0096,0.0085,0.0069,0.0048,0.0005,-0.0342,-0.0128,-0.0059,-0.0059,-0.008,-0.0064,0.0005,0.0123,0.0208,0.0235,0.0315,0.0326,0.0368,0.039,0.0358,0.0497,0.063,0.0534,0.0331,0.0272,0.04,0.031,0.0182,0.0224,0.0299,0.0149,0.0251,0.0998,0.0747,0.0918,0,0,0.0683,0.032,0.0,0.0363,0.0683,0.0117,0.0715,0,0,0,0,0,0,0,0,-0.0539,-0.0155,-0.0043,-0.0032,-0.0048,-0.0059,-0.0224,0.0128,0.0416,0.0502,0.0459,0.0347,0.0368,0.0342,0.0406,0.0598,0.0758,0.0694,0.0582,0.0384,0.039,0.0411,0.0347,0.0251,0.0149,0.0347,0.0475,0.0502,0.032,0.0539,-0.0027,-0.0069,0.0705,0.0481,0,0,0,0.0342,0.0747,0.0176,0.0214,0.0192,0.0166,0.0133,0.0101,0.0112,0,0,0,0,0,0,0,-0.0133,-0.0021,0.0427,0.0518,0.0491,0.0481,0.0422,0.0657,0.0726,0.0657,0.0641,0.0625,0.0598,0.0507,0.0486,0.0507,0.0497,0.0438,0.032,0.0395,0.0128,0.016,0.0085,0.0155,0.0101,-0.0139,0.0561,0.0731,0.0,0.0,0.0251,0.0352,0.0817,0.047,0.0448,0.0347,0.0347,0.0256,0.0288,0.0219,0,0,0,0,0,0,0,0,0,0,0,0,0.0491,0.032,0.0571,0.0694,0.0742,0.0497,0.0288,0.0288,0.04,0.0395,0.0427,0.0464,0.0507,0.0438,0,-0.0198,0.008,0.0219,0.0053,0.0043,0,0,0,0,0,0.0464,0.0331,0.0662,0.0432,0.0416,0.0347,0.0149,0.0224,0.0352,0,0,0,0,0,0,0,0,0,0,0,0,0,0,0,0,0.0731,0.0956,0,0,0.0096,0.0294,0.0272,0.0299,0.0368,0.0497,0.0555,0,0,0,0.0448,0.0064,-0.0176,0,0,0,0,0,0.0464,0.0539,0.0299,0.0235,0.0347,0.0379,0.0176,0.0192,0,0,0,0,0,0,0,0,0,0,0,0,0,0,0,0,0,0,0.1025,0.0598,0,0,0,0,0,0,0,0.063,0,0,0,0,0,0,0,0,0,0,0,0.0593,0.0715,0.0048,0.0107,0.0342,0.0475,0.0422,0,0,0,0,0,0,0,0,0,0,0,0,0,0,0,0,0,0,0,0,0.1196,0.031,0.0171,0.0256,0,0,0,0,0,0,0,0,0,0,0,0,0,0,0,0,0.0667,0.0833,0.016,0.0059,0.04,0.0598,0,0,0,0,0,0,0,0,0,0,0,0,0,0,0,0,0,0,0,0,0,0,0.0614,0.0342,0.0507,0.0,0.0096,0.008,0,0,0,0,0,0,0,0,0,0,0,0,0,0,0.1025,0.055,0.016,0.0326,0.0555,0,0,0,0,0,0,0,0,0,0,0,0,0,0,0,0,0,0,0,0,0,0,0,0,0,0,0.0192,0.0166,0,0,0,0,0,0,0,0,0,0,0,0,0,0,0.0988,0.0801,0.0262,0.023,0.0513,0,0,0,0,0,0,0,0,0,0,0,0,0,0,0,0,0,0,0,0,0,0,0,0,0,0,0,0,0,0,0,0,0,0,0,0,0,0,0,0,0,0,0.0796,0.0812,0.0262,0.0278,0.0561,0,0,0,0,0,0,0,0,0,0,0,0,0,0,0,0,0,0,0,0,0,0,0,0,0,0,0,0,0,0,0,0,0,0,0,0,0,0,0,0,0,0,0.0737,0.0726,0.0283,0.0304,0.055,0,0,0,0,0,0,0,0,0,0,0,0,0,0,0,0,0,0,0,0,0,0,0,0,0,0,0,0,0,0,0,0,0,0,0,0,0,0,0,0,0,0,0,0.0475,0.047,0.0358,0.0529,0,0,0,0,0,0,0,0,0,0,0,0,0,0,0,0,0,0,0,0,0,0,0,0,0,0,0,0,0,0,0,0,0,0,0,0,0,0,0,0,0,0,0,0.0294,0.0107,0.0342,0.0534,0,0,0,0,0,0,0,0,0,0,0,0,0,0,0,0,0,0,0,0,0,0,0,0,0,0,0,0,0,0,0,0,0,0,0,0,0,0,0,0,0,0,0,0,-0.0368,0.0267,0,0,0,0,0,0,0,0,0,0,0,0,0,0,0,0,0,0,0,0,0,0,0,0,0,0,0,0,0,0,0,0,0,0,0,0,0,0,0,0,0,0,0,0,0,0,0,0,0,0,0,0,0,0,0,0,0,0,0,0,0,0,0,0,0,0,0,0,0,0,0,0,0,0,0,0,0,0,0,0,0,0,0,0,0,0,0,0,0,0,0,0,0,0,0,0,0,0,0,0,0,0,0,0,0,0,0,0,0,0,0,0,0,0,0,0,0,0,0,0,0,0,0,0,0,0,0,0,0,0,0,0,0,0,0,0,0,0,0,0,0,0,0,0,0,0,0,0,0,0,0,0,0,0,0,0,0,0,0,0,0,0,0,0,0,0,0,0,0,0,0,0,0,0,0,0,0,0,0,0,0,0,0,0,0,0,0,0,0,0,0,0,0,0,0,0,0,0,0,0,0,0,0,0,0,0,0,0,0,0,0,0,0,0,0,0,0,0,0,0,0,0,0,0,0,0,0,0,0,0,0,0,0,0,0,0,0,0,0,0,0,0,0,0,0,0,0,0,0,0,0,0,0,0,0,0,0,0,0,0,0,0,0,0,0,0,0,0,0,0,0,0,0,0,0,0,0,0,0,0,0,0,0,0,0,0,0,0,0,0,0,0,0,0,0,0,0,0,0,0,0,0,0,0,0,0,0,0,0,0,0,0,0]}]],[[{"header":{"parameterUnit":"kt","parameterCategory":2,"dx":1,"dy":1,"la1":29.764190673828125,"la2":30.86408042907715,"lo1":-88.46762084960938,"lo2":-86.9344482421875,"nx":47,"ny":34,"refTime":"2022-10-07T00:00:00:Z","depth":"12","parameterNumber":2,"parameterNumberName":"U-component_of_CURRENTS"},"data":[-0.0566,-0.0064,0.0192,0.0342,0.0438,0.0475,0.0368,-0.0085,-0.0641,-0.0758,-0.0571,-0.0555,-0.0726,-0.0822,-0.0833,-0.0763,-0.0598,-0.0513,-0.0598,-0.0737,-0.086,-0.11,-0.1516,-0.2013,-0.2488,-0.2776,-0.2814,-0.2819,-0.2776,-0.2445,-0.1901,-0.2056,-0.2419,-0.2082,-0.1789,-0.181,-0.1842,-0.1831,-0.1778,-0.173,-0.1692,-0.1692,-0.1692,-0.1644,-0.15,-0.126,-0.0918,-0.1175,-0.0966,-0.071,-0.0566,-0.0529,-0.0625,-0.0881,-0.1159,-0.1169,-0.0918,-0.0737,-0.0801,-0.0881,-0.0806,-0.0683,-0.0486,-0.0326,-0.0315,-0.0427,-0.055,-0.0619,-0.079,-0.1137,-0.1623,-0.212,-0.2504,-0.2782,-0.299,-0.3182,-0.3161,-0.2782,-0.2216,-0.2216,-0.2493,-0.2232,-0.189,-0.173,-0.1666,-0.1564,-0.1452,-0.1415,-0.1372,-0.1308,-0.1191,-0.0977,-0.0635,-0.0246,-0.1436,-0.1725,-0.1741,-0.1687,-0.1676,-0.1714,-0.1682,-0.1479,-0.1153,-0.086,-0.0838,-0.0961,-0.0913,-0.0737,-0.0491,-0.0251,-0.0182,-0.0192,-0.0246,-0.032,-0.0406,-0.0464,-0.063,-0.102,-0.1495,-0.1943,-0.2296,-0.2627,-0.2963,-0.3171,-0.3118,-0.2835,-0.2248,-0.2029,-0.2173,-0.2061,-0.1863,-0.1623,-0.1383,-0.1169,-0.103,-0.0913,-0.0763,-0.0582,-0.0384,-0.0149,0.0069,-0.1415,-0.1799,-0.2034,-0.2098,-0.1981,-0.1773,-0.1452,-0.1169,-0.1004,-0.0934,-0.0972,-0.0929,-0.078,-0.0545,-0.0288,-0.0171,-0.0182,-0.0219,-0.0267,-0.0304,-0.0347,-0.0315,-0.0246,-0.0352,-0.0747,-0.1196,-0.1591,-0.1954,-0.2306,-0.2648,-0.2878,-0.2915,-0.2723,-0.2264,-0.1548,-0.142,-0.1596,-0.1506,-0.1399,-0.1137,-0.0865,-0.0635,-0.0438,-0.0278,-0.0155,-0.0059,0.0021,-0.1036,-0.1388,-0.1596,-0.1634,-0.1532,-0.1372,-0.1207,-0.1148,-0.1164,-0.1169,-0.1052,-0.0817,-0.055,-0.0294,-0.0182,-0.0214,-0.0262,-0.0294,-0.0304,-0.031,-0.0379,-0.055,-0.0571,-0.0427,-0.0395,-0.0577,-0.0876,-0.1196,-0.1596,-0.2029,-0.2387,-0.26,-0.2638,-0.2541,-0.2194,-0.1628,-0.0993,-0.0833,-0.0972,-0.0918,-0.0774,-0.0545,-0.0352,-0.0235,-0.0149,-0.0075,-0.0016,-0.0593,-0.0865,-0.1137,-0.1303,-0.1361,-0.1361,-0.1345,-0.1287,-0.1153,-0.094,-0.0694,-0.0459,-0.0288,-0.0235,-0.0262,-0.0315,-0.0352,-0.0358,-0.0347,-0.032,-0.0315,-0.0363,-0.0416,-0.0358,-0.0171,-0.0053,-0.0176,-0.0491,-0.0892,-0.1335,-0.1778,-0.2125,-0.2371,-0.2483,-0.2376,-0.2152,-0.1618,-0.1068,-0.0593,-0.0368,-0.0513,-0.0507,-0.0368,-0.0203,-0.0032,0.0085,0.0171,-0.0406,-0.04,-0.0432,-0.0529,-0.063,-0.0678,-0.0662,-0.0587,-0.0491,-0.0411,-0.0352,-0.0336,-0.0358,-0.039,-0.0416,-0.0427,-0.0427,-0.0422,-0.0395,-0.0358,-0.032,-0.0288,-0.0214,-0.0069,0.0096,0.0198,0.0219,0.0133,-0.0128,-0.0459,-0.0763,-0.1121,-0.1506,-0.1799,-0.2002,-0.1965,-0.1815,-0.1591,-0.102,-0.0619,-0.0278,-0.0101,-0.0208,-0.0101,0.0155,0.0347,0.0481,-0.0545,-0.0518,-0.0486,-0.0443,-0.0411,-0.0395,-0.04,-0.0411,-0.0427,-0.0443,-0.047,-0.0513,-0.0561,-0.0593,-0.0593,-0.0571,-0.0545,-0.0513,-0.0475,-0.0427,-0.0374,-0.0304,-0.0208,-0.0107,-0.0021,0.0021,0.0048,0.0064,0.0059,0.0016,-0.0096,-0.031,-0.0651,-0.1062,-0.1426,-0.1687,-0.1644,-0.1377,-0.1393,-0.1159,-0.0513,-0.0272,-0.016,0.0091,0.0262,0.0438,0.0593,-0.0913,-0.0822,-0.0715,-0.0619,-0.0539,-0.0497,-0.0502,-0.0518,-0.0534,-0.0545,-0.0571,-0.0619,-0.0673,-0.0715,-0.0726,-0.0715,-0.0689,-0.0641,-0.0582,-0.0523,-0.0454,-0.0368,-0.0294,-0.0235,-0.0192,-0.016,-0.0133,-0.008,-0.0027,0.0,-0.0011,-0.0096,-0.0299,-0.0614,-0.1036,-0.1345,-0.15,-0.1591,-0.1303,-0.0977,-0.1089,-0.1046,-0.047,-0.0091,0.0101,0.0438,0.078,-0.1041,-0.0945,-0.0812,-0.0694,-0.0598,-0.0534,-0.0523,-0.0555,-0.0598,-0.0641,-0.0683,-0.0721,-0.0758,-0.0785,-0.0806,-0.0817,-0.079,-0.0742,-0.0673,-0.0598,-0.0523,-0.0454,-0.0422,-0.0411,-0.0379,-0.031,-0.0224,-0.0128,-0.0048,-0.0005,-0.0011,-0.0059,-0.0166,-0.0315,-0.0545,-0.0833,-0.1127,-0.1319,-0.1586,-0.1773,-0.126,-0.0625,-0.0742,-0.0956,-0.0379,0.0529,0.1057,-0.1116,-0.1041,-0.0924,-0.0796,-0.0678,-0.0566,-0.0502,-0.0523,-0.0598,-0.0699,-0.0785,-0.0822,-0.0817,-0.0806,-0.0849,-0.0881,-0.0854,-0.0801,-0.0731,-0.0662,-0.0609,-0.0577,-0.0577,-0.0571,-0.0518,-0.0406,-0.0262,-0.0117,-0.0016,0.0027,0.0032,0.0027,0.0011,-0.0059,-0.0219,-0.0422,-0.055,-0.0694,-0.095,-0.1159,-0.1201,-0.1271,-0.1041,-0.0352,0.0016,-0.0155,-0.0166,-0.1159,-0.1121,-0.1127,-0.11,-0.0988,-0.0796,-0.0561,-0.0459,-0.0507,-0.0721,-0.1052,-0.126,-0.1089,-0.0918,-0.094,-0.0934,-0.0881,-0.0828,-0.0774,-0.0731,-0.0699,-0.0699,-0.0705,-0.0689,-0.0641,-0.0534,-0.0368,-0.0187,-0.0053,0.0021,0.0059,0.0075,0.0101,0.0112,0.0064,-0.0064,-0.0235,-0.0368,-0.0416,-0.0363,-0.0278,-0.031,-0.0443,-0.055,-0.0651,-0.0208,0.0395,-0.1143,-0.1164,-0.1319,-0.1522,-0.1447,-0.1036,-0.0545,-0.0182,0.0059,-0.0027,-0.0598,0,-0.1185,0,-0.1062,-0.0913,-0.086,-0.0838,-0.0828,-0.0817,-0.0801,-0.0796,-0.078,-0.0747,-0.0715,-0.0657,-0.0566,-0.0438,-0.0326,-0.0214,-0.0085,0.0048,0.0166,0.023,0.0235,0.0176,0.0133,0.0128,0.0032,-0.0117,-0.0203,-0.0187,-0.0192,-0.0347,-0.063,-0.0892,-0.1009,0,0,0,0,0,-0.0833,0.0091,0,0,0,0,0,0,0,0,0,0,0,0,0,0,0,0,0,0,0,-0.0678,-0.0641,-0.0619,-0.0555,-0.0406,-0.023,-0.0075,0.0112,0.0288,0.0347,0.0331,0.0294,0.0208,0.0064,-0.0128,-0.0299,-0.0379,-0.0545,-0.0833,-0.1062,-0.1127,0,0,0,0,0,0,0,0,0,0,0,0,0,0,0,0,0,0,0,0,0,0,0,0,0,0,0,0,0,-0.0635,-0.0422,-0.0149,0.008,0.0315,0.0352,0.0198,0.0112,0.0166,0.0267,0.0294,0.0278,0.0246,0.0256,0.0256,0.0192,0.0064,-0.0182,0,0,0,0,0,0,0,0,0,0,0,0,0,0,0,0,0,0,0,0,0,0,0,0,0,0,0,0,0,0,0,0,0,0,0,0,0.0107,-0.0326,-0.0171,0.0171,0.0438,0.0571,0.0566,0.0566,0.0598,0.0598,0.0577,0,0,0,0,0,0,0,0,0,0,0,0,0,0,0,0,0,0,0,0,0,0,0,0,0,0,0,0,0,0,0,0,0,0,0,0,0,0,-0.0278,-0.0149,0.0203,0.0448,0.0534,0.0598,0.0683,0.0769,0.0774,0,0,0,0,0,0,0,0,0,0,0,0,0,0,0,0,0,0,0,0,0,0,0,0,0,0,0,0,0,0,0,0,0,0,0,0,0,0,0,0,0,0.0133,0.0304,0.0454,0.0651,0.0924,0.0998,0,0,0,0,0,0,0,0,0,0,0,0,0,0,0,0,0,0,0,0,0,0,0,0,0,0,0,0,0,0,0,0,0,0,0,0,0,0,0,0,0,0,0,0,0,0,0.0288,0,0,0,0,0,0,0,0,0,0,0,0,0,0,0,0,0,0,0,0,0,0,0,0,0,0,0,0,0,0,0,0,0,0,0,0,0,0,0,0,0,0,0,0,0,0,0,0,0,0,0,0,0,0,0,0,0,0,0,0,0,0,0,0,0,0,0,0,0,0,0,0,0,0,0,0,0,0,0,0,0,0,0,0,0,0,0,0,0,0,0,0,0,0,0,0,0,0,0,0,0,0,0,0,0,0,0,0,0,0,0,0,0,0,0,0,0,0,0,0,0,0,0,0,0,0,0,0,0,0,0,0,0,0,0,0,0,0,0,0,0,0,0,0,0,0,0,0,0,0,0,0,0,0,0,0,0,0,0,0,0,0,0,0,0,0,0,0,0,0,0,0,0,0,0,0,0,0,0,0,0,0,0,0,0,0,0,0,0,0,0,0,0,0,0,0,0,0,0,0,0,0,0,0,0,0,0,0,0,0,0,0,0,0,0,0,0,0,0,0,0,0,0,0,0,0,0,0,0,0,0,0,0,0,0,0,0,0,0,0,0,0,0,0,0,0,0,0,0,0,0,0,0,0,0,0,0,0,0,0,0,0,0,0,0,0,0,0,0,0,0,0,0,0,0,0,0,0,0,0,0,0,0,0,0,0,0,0,0,0,0,0,0,0,0,0,0,0,0,0,0,0,0,0,0,0,0,0,0,0,0,0,0,0,0,0,0,0,0,0,0,0,0,0,0,0,0,0,0,0,0,0,0,0,0,0,0,0,0,0,0,0,0,0,0,0,0,0,0,0,0,0,0,0,0,0,0,0,0,0,0,0,0,0,0,0,0,0,0,0,0,0,0,0,0,0,0,0,0,0,0,0,0,0,0,0,0,0,0,0,0,0,0,0,0,0,0,0,0,0,0,0,0,0,0,0,0,0,0,0,0,0,0,0,0,0,0,0,0,0,0,0,0,0,0,0,0,0,0,0,0,0,0,0,0,0,0,0,0,0,0,0,0,0,0,0,0,0,0,0,0,0,0,0,0,0,0,0,0,0,0,0,0,0,0,0,0,0,0,0,0,0,0,0,0,0,0,0,0,0,0,0,0,0,0,0,0,0,0,0,0,0,0,0,0,0,0,0,0,0,0,0,0,0,0,0,0,0,0,0,0,0,0,0,0,0,0,0,0,0,0,0,0,0,0,0,0,0,0,0,0,0,0,0,0,0,0,0,0,0,0,0,0,0,0,0,0,0,0,0,0,0,0,0,0,0,0,0,0,0,0,0,0,0,0,0,0,0,0,0,0,0,0,0,0,0,0,0,0,0,0,0,0,0,0,0,0,0,0,0,0,0,0,0,0,0,0,0,0,0,0,0,0,0,0,0,0,0,0,0,0,0,0,0,0,0,0,0,0,0,0,0,0,0,0,0,0,0,0,0,0,0,0,0,0,0,0,0,0,0,0,0,0,0,0,0,0,0,0,0,0,0,0,0,0,0,0,0,0,0,0,0,0,0,0,0,0,0,0,0,0,0,0,0,0,0,0,0,0,0,0,0,0,0,0,0,0,0,0,0,0,0,0,0,0,0,0,0,0,0,0,0,0,0,0]}],[{"header":{"parameterUnit":"kt","parameterCategory":2,"dx":1,"dy":1,"la1":29.764190673828125,"la2":30.86408042907715,"lo1":-88.46762084960938,"lo2":-86.9344482421875,"nx":47,"ny":34,"refTime":"2022-10-07T00:00:00:Z","depth":"12","parameterNumber":3,"parameterNumberName":"V-component_of_CURRENTS"},"data":[0.0203,0.0918,0.1367,0.1773,0.1997,0.1965,0.1858,0.1826,0.1751,0.1377,0.0977,0.0929,0.1052,0.0902,0.0763,0.0561,0.0347,0.0304,0.0149,-0.016,-0.0262,0.0027,0.0037,-0.0475,-0.1089,-0.1335,-0.1132,-0.0518,0.024,0.0438,0.0198,0.047,0.1361,0.1746,0.1911,0.2157,0.2483,0.275,0.2872,0.2872,0.2771,0.2493,0.2162,0.1842,0.1511,0.1196,0.1078,-0.0294,0.0673,0.1137,0.1548,0.1826,0.189,0.1965,0.1986,0.1773,0.1324,0.1062,0.1132,0.1084,0.0897,0.0758,0.039,0.0283,0.0299,0.0262,-0.0053,-0.0299,0.0144,0.0411,-0.0069,-0.0806,-0.1249,-0.1329,-0.1084,-0.0603,-0.0021,0.039,0.0422,0.0849,0.1682,0.2093,0.236,0.2488,0.2621,0.268,0.2638,0.252,0.2322,0.212,0.1917,0.1725,0.1596,0.1703,-0.0577,0.0294,0.0865,0.1303,0.1612,0.1773,0.1773,0.1644,0.142,0.1233,0.1201,0.118,0.0998,0.0838,0.055,0.024,0.0256,0.031,0.031,0.0133,-0.0219,0.0133,0.0678,0.04,-0.0315,-0.0924,-0.1265,-0.1292,-0.1089,-0.0763,-0.0267,0.0352,0.0667,0.1084,0.1623,0.2355,0.267,0.2974,0.3086,0.3022,0.2856,0.2702,0.2568,0.244,0.2317,0.2221,0.2269,-0.0368,0.0048,0.0529,0.0913,0.118,0.1313,0.1287,0.1185,0.1095,0.1116,0.118,0.1057,0.087,0.0635,0.0294,0.0203,0.0262,0.032,0.0336,0.0262,-0.0037,-0.0037,0.0609,0.0726,0.0288,-0.0331,-0.0918,-0.1212,-0.1201,-0.103,-0.0822,-0.0374,0.0315,0.0785,0.1207,0.1527,0.1949,0.2616,0.3059,0.3273,0.3225,0.3113,0.3011,0.2899,0.2771,0.2605,0.2525,0.0096,0.0128,0.0347,0.0577,0.0769,0.0844,0.0886,0.0892,0.0924,0.0934,0.0913,0.0769,0.0598,0.0358,0.0208,0.024,0.0294,0.0342,0.0363,0.0347,0.016,-0.0096,0.0203,0.0555,0.0507,0.0176,-0.0347,-0.0812,-0.095,-0.0945,-0.0929,-0.0854,-0.0507,0.0235,0.0998,0.1303,0.1538,0.1847,0.2248,0.2739,0.2974,0.3006,0.2942,0.2856,0.2798,0.2686,0.2595,0.0459,0.0374,0.0363,0.0443,0.0566,0.0619,0.0667,0.0705,0.071,0.0678,0.0587,0.0454,0.0331,0.0256,0.0272,0.031,0.0336,0.0363,0.0379,0.0379,0.0288,0.0096,0.0043,0.0224,0.0288,0.0267,0.0112,-0.0251,-0.0491,-0.0619,-0.0726,-0.0892,-0.0881,-0.0582,0.0144,0.1041,0.1762,0.1965,0.2152,0.2274,0.2371,0.2541,0.2557,0.2552,0.2611,0.2638,0.2632,0.0582,0.0539,0.0464,0.0464,0.0513,0.0534,0.0539,0.0539,0.0523,0.0497,0.0438,0.0374,0.0336,0.0326,0.0358,0.0363,0.0379,0.0379,0.0379,0.0363,0.0299,0.0203,0.0107,0.0091,0.0139,0.0219,0.0304,0.0198,0.0005,-0.0176,-0.0336,-0.055,-0.0747,-0.0769,-0.0443,0.0278,0.1148,0.1965,0.2541,0.2515,0.2579,0.2563,0.2429,0.2451,0.2504,0.2616,0.2691,0.0593,0.055,0.0507,0.0507,0.0518,0.0523,0.0518,0.0513,0.0513,0.0507,0.0486,0.0454,0.0416,0.039,0.04,0.0395,0.039,0.0379,0.0363,0.0326,0.0251,0.0133,-0.0011,-0.0075,0.0011,0.016,0.0315,0.0347,0.0267,0.0133,0.0027,-0.0075,-0.0288,-0.0539,-0.0502,0.0021,0.0566,0.1313,0.1954,0.2595,0.3027,0.2936,0.2862,0.2883,0.2728,0.2766,0.2878,0.0619,0.0545,0.0497,0.0481,0.0502,0.055,0.0582,0.0587,0.0582,0.0582,0.0561,0.0513,0.0459,0.0422,0.0422,0.04,0.0384,0.0363,0.0331,0.0267,0.0166,0.0027,-0.0096,-0.0128,-0.0032,0.0123,0.0267,0.031,0.0256,0.0182,0.0155,0.0166,0.0107,-0.0112,-0.0352,-0.0101,0.0384,0.086,0.1372,0.1927,0.2221,0.2648,0.3129,0.3139,0.3081,0.3171,0.3321,0.0582,0.0459,0.0411,0.0427,0.047,0.0566,0.0646,0.0683,0.0689,0.0673,0.063,0.0561,0.0491,0.0448,0.0432,0.0374,0.0336,0.0304,0.0262,0.0182,0.0059,-0.0053,-0.0112,-0.0101,-0.0016,0.0107,0.0198,0.0219,0.0182,0.0155,0.0176,0.0246,0.0299,0.0203,-0.0059,-0.0133,0.0256,0.0609,0.1073,0.1319,0.1484,0.1821,0.2007,0.229,0.2979,0.3374,0.3454,0.047,0.032,0.0278,0.0331,0.0438,0.0571,0.0705,0.0796,0.0838,0.0806,0.0731,0.0603,0.0518,0.0475,0.0464,0.0315,0.0246,0.0208,0.016,0.0085,-0.0005,-0.0069,-0.0096,-0.0085,-0.0027,0.0048,0.0096,0.0117,0.0123,0.0149,0.0208,0.0278,0.0363,0.0358,0.023,0.0032,0.0149,0.047,0.0758,0.0913,0.1009,0.1052,0.1084,0.1159,0.1442,0.1442,0.1746,0.0384,0.0251,0.0166,0.0214,0.0395,0.0566,0.0758,0.0865,0.0961,0.0945,0.0881,0.0726,0.0555,0.0486,0.0352,0.023,0.0155,0.0112,0.0085,0.0048,0.0005,-0.0037,-0.0085,-0.0085,-0.0064,-0.0032,-0.0016,0.0027,0.0096,0.0166,0.023,0.0288,0.0363,0.0416,0.0379,0.0251,0.0182,0.0411,0.0577,0.0497,0.0416,0.0619,0.0897,0.0497,0.024,0.0278,0.0481,0.0352,0.0246,0.0144,0.0363,0.0539,0.0603,0.0769,0.0849,0.0849,0.0876,0.095,0,0.0513,0,0.0101,0.0123,0.0101,0.0085,0.0075,0.0059,0.0032,-0.0005,-0.0112,-0.0096,-0.0075,-0.0075,-0.008,-0.0032,0.0085,0.016,0.0219,0.0251,0.0342,0.0411,0.0438,0.0384,0.031,0.04,0.0518,0.0427,0.0278,0.0368,0.0523,0.0294,0.0336,0.0587,0.0555,0,0,0,0,0,0.0635,0.0694,0,0,0,0,0,0,0,0,0,0,0,0,0,0,0,0,0,0,0,-0.0069,-0.0043,0.0043,0.0176,0.031,0.0347,0.0384,0.0374,0.0406,0.04,0.0379,0.0507,0.0651,0.0598,0.0427,0.0368,0.047,0.0374,0.024,0.0219,0.0251,0,0,0,0,0,0,0,0,0,0,0,0,0,0,0,0,0,0,0,0,0,0,0,0,0,0,0,0,0,0.0144,0.0443,0.055,0.0545,0.0518,0.0507,0.0513,0.0438,0.0603,0.0763,0.0721,0.0683,0.055,0.055,0.0545,0.0464,0.0342,0.0214,0,0,0,0,0,0,0,0,0,0,0,0,0,0,0,0,0,0,0,0,0,0,0,0,0,0,0,0,0,0,0,0,0,0,0,0,0.0609,0.0609,0.0646,0.0635,0.063,0.0582,0.0582,0.0609,0.0603,0.0539,0.0406,0,0,0,0,0,0,0,0,0,0,0,0,0,0,0,0,0,0,0,0,0,0,0,0,0,0,0,0,0,0,0,0,0,0,0,0,0,0,0.0502,0.0304,0.0304,0.0411,0.0411,0.0454,0.0507,0.0561,0.0486,0,0,0,0,0,0,0,0,0,0,0,0,0,0,0,0,0,0,0,0,0,0,0,0,0,0,0,0,0,0,0,0,0,0,0,0,0,0,0,0,0,0.0294,0.0278,0.0304,0.0384,0.0518,0.0571,0,0,0,0,0,0,0,0,0,0,0,0,0,0,0,0,0,0,0,0,0,0,0,0,0,0,0,0,0,0,0,0,0,0,0,0,0,0,0,0,0,0,0,0,0,0,0.0635,0,0,0,0,0,0,0,0,0,0,0,0,0,0,0,0,0,0,0,0,0,0,0,0,0,0,0,0,0,0,0,0,0,0,0,0,0,0,0,0,0,0,0,0,0,0,0,0,0,0,0,0,0,0,0,0,0,0,0,0,0,0,0,0,0,0,0,0,0,0,0,0,0,0,0,0,0,0,0,0,0,0,0,0,0,0,0,0,0,0,0,0,0,0,0,0,0,0,0,0,0,0,0,0,0,0,0,0,0,0,0,0,0,0,0,0,0,0,0,0,0,0,0,0,0,0,0,0,0,0,0,0,0,0,0,0,0,0,0,0,0,0,0,0,0,0,0,0,0,0,0,0,0,0,0,0,0,0,0,0,0,0,0,0,0,0,0,0,0,0,0,0,0,0,0,0,0,0,0,0,0,0,0,0,0,0,0,0,0,0,0,0,0,0,0,0,0,0,0,0,0,0,0,0,0,0,0,0,0,0,0,0,0,0,0,0,0,0,0,0,0,0,0,0,0,0,0,0,0,0,0,0,0,0,0,0,0,0,0,0,0,0,0,0,0,0,0,0,0,0,0,0,0,0,0,0,0,0,0,0,0,0,0,0,0,0,0,0,0,0,0,0,0,0,0,0,0,0,0,0,0,0,0,0,0,0,0,0,0,0,0,0,0,0,0,0,0,0,0,0,0,0,0,0,0,0,0,0,0,0,0,0,0,0,0,0,0,0,0,0,0,0,0,0,0,0,0,0,0,0,0,0,0,0,0,0,0,0,0,0,0,0,0,0,0,0,0,0,0,0,0,0,0,0,0,0,0,0,0,0,0,0,0,0,0,0,0,0,0,0,0,0,0,0,0,0,0,0,0,0,0,0,0,0,0,0,0,0,0,0,0,0,0,0,0,0,0,0,0,0,0,0,0,0,0,0,0,0,0,0,0,0,0,0,0,0,0,0,0,0,0,0,0,0,0,0,0,0,0,0,0,0,0,0,0,0,0,0,0,0,0,0,0,0,0,0,0,0,0,0,0,0,0,0,0,0,0,0,0,0,0,0,0,0,0,0,0,0,0,0,0,0,0,0,0,0,0,0,0,0,0,0,0,0,0,0,0,0,0,0,0,0,0,0,0,0,0,0,0,0,0,0,0,0,0,0,0,0,0,0,0,0,0,0,0,0,0,0,0,0,0,0,0,0,0,0,0,0,0,0,0,0,0,0,0,0,0,0,0,0,0,0,0,0,0,0,0,0,0,0,0,0,0,0,0,0,0,0,0,0,0,0,0,0,0,0,0,0,0,0,0,0,0,0,0,0,0,0,0,0,0,0,0,0,0,0,0,0,0,0,0,0,0,0,0,0,0,0,0,0,0,0,0,0,0,0,0,0,0,0,0,0,0,0,0,0,0,0,0,0,0,0,0,0,0,0,0,0,0,0,0,0,0,0,0,0,0,0,0,0,0,0,0,0,0,0,0,0,0,0,0,0,0,0,0,0,0,0,0,0,0,0,0,0,0,0,0,0,0,0,0,0,0,0,0,0,0,0,0,0,0,0,0,0,0,0,0,0,0,0,0,0,0,0,0,0,0,0,0,0,0,0,0,0,0]}]],[[{"header":{"parameterUnit":"kt","parameterCategory":2,"dx":1,"dy":1,"la1":29.764190673828125,"la2":30.86408042907715,"lo1":-88.46762084960938,"lo2":-86.9344482421875,"nx":47,"ny":34,"refTime":"2022-10-07T00:00:00:Z","depth":"15","parameterNumber":2,"parameterNumberName":"U-component_of_CURRENTS"},"data":[-0.0347,0.0133,0.0347,0.0475,0.0561,0.0587,0.0454,0.0027,-0.0406,-0.047,-0.0352,-0.0379,-0.0545,-0.0614,-0.0619,-0.0545,-0.039,-0.0315,-0.0411,-0.0587,-0.0753,-0.1004,-0.1377,-0.1815,-0.228,-0.26,-0.2702,-0.275,-0.268,-0.2344,-0.1789,-0.1885,-0.2301,-0.1949,-0.166,-0.1644,-0.1628,-0.1623,-0.1591,-0.1543,-0.1516,-0.1516,-0.1527,-0.1479,-0.134,-0.1143,-0.0838,-0.1046,-0.0812,-0.0587,-0.0481,-0.047,-0.0577,-0.0774,-0.0934,-0.0854,-0.0646,-0.0545,-0.0625,-0.0694,-0.0603,-0.0486,-0.0304,-0.016,-0.0149,-0.0246,-0.0422,-0.0534,-0.0673,-0.0972,-0.142,-0.1901,-0.2306,-0.2611,-0.283,-0.3054,-0.307,-0.2664,-0.2034,-0.204,-0.2333,-0.2098,-0.1714,-0.1522,-0.1484,-0.1372,-0.1255,-0.1207,-0.1164,-0.1121,-0.1025,-0.0844,-0.0545,-0.0149,-0.1361,-0.1596,-0.1607,-0.157,-0.1559,-0.1548,-0.1447,-0.1196,-0.087,-0.0625,-0.0646,-0.0785,-0.0726,-0.055,-0.032,-0.0112,-0.0059,-0.0043,-0.0064,-0.0187,-0.0336,-0.0358,-0.0459,-0.0806,-0.1292,-0.1751,-0.2114,-0.2451,-0.2798,-0.3049,-0.3022,-0.2675,-0.2066,-0.1821,-0.2002,-0.1917,-0.1714,-0.1463,-0.1249,-0.103,-0.0854,-0.0705,-0.0555,-0.0395,-0.0224,-0.0016,0.0203,-0.1345,-0.166,-0.1858,-0.1906,-0.1767,-0.1538,-0.1196,-0.094,-0.0806,-0.0763,-0.0812,-0.0758,-0.0603,-0.0379,-0.0144,-0.0059,-0.0069,-0.0064,-0.0085,-0.0171,-0.0288,-0.0246,-0.0085,-0.0133,-0.0518,-0.1009,-0.1442,-0.1815,-0.2141,-0.2445,-0.267,-0.2728,-0.2541,-0.2098,-0.1356,-0.1217,-0.142,-0.1367,-0.1303,-0.1073,-0.0758,-0.0454,-0.023,-0.0085,0.0021,0.0096,0.0166,-0.0988,-0.1287,-0.1426,-0.142,-0.1313,-0.1169,-0.1025,-0.0982,-0.1009,-0.1014,-0.0913,-0.0673,-0.0395,-0.0139,-0.0053,-0.0107,-0.0139,-0.0139,-0.0139,-0.0198,-0.032,-0.0464,-0.0427,-0.0224,-0.0166,-0.0374,-0.0731,-0.1111,-0.1516,-0.1895,-0.2178,-0.2381,-0.2467,-0.2392,-0.1997,-0.141,-0.0801,-0.0641,-0.0812,-0.0817,-0.0715,-0.0427,-0.016,-0.0032,0.0048,0.0085,0.0128,-0.0571,-0.0812,-0.1036,-0.1175,-0.1228,-0.1233,-0.1228,-0.1175,-0.1036,-0.0822,-0.0577,-0.0336,-0.0166,-0.0107,-0.0144,-0.0198,-0.0224,-0.023,-0.0224,-0.0219,-0.0224,-0.0267,-0.0299,-0.0203,0.0011,0.0139,-0.0016,-0.0395,-0.0828,-0.1265,-0.1666,-0.1949,-0.2136,-0.2258,-0.2221,-0.2024,-0.1415,-0.087,-0.04,-0.0198,-0.0395,-0.0422,-0.0251,-0.0016,0.0155,0.0246,0.032,-0.0379,-0.0379,-0.0406,-0.0486,-0.0577,-0.0619,-0.0609,-0.0545,-0.0454,-0.0368,-0.0304,-0.0278,-0.0299,-0.0326,-0.0342,-0.0347,-0.0352,-0.0347,-0.0331,-0.0304,-0.0267,-0.023,-0.0155,0.0011,0.0192,0.0315,0.0336,0.0208,-0.0059,-0.0379,-0.0678,-0.103,-0.1393,-0.1623,-0.1757,-0.1773,-0.1741,-0.1468,-0.0817,-0.04,-0.0064,0.0112,-0.0085,0.0011,0.0272,0.0497,0.0635,-0.0507,-0.0486,-0.0454,-0.0416,-0.0384,-0.0368,-0.0379,-0.039,-0.04,-0.0411,-0.0432,-0.047,-0.0523,-0.0555,-0.0555,-0.0534,-0.0513,-0.0481,-0.0443,-0.04,-0.0358,-0.0299,-0.0214,-0.0101,0.0005,0.008,0.0107,0.0112,0.0112,0.0075,-0.0053,-0.0288,-0.0641,-0.1004,-0.1276,-0.1522,-0.1484,-0.1228,-0.1249,-0.102,-0.031,-0.0043,0.0059,0.0219,0.0368,0.0582,0.0769,-0.0854,-0.078,-0.0689,-0.0593,-0.0513,-0.047,-0.0475,-0.0491,-0.0502,-0.0513,-0.0534,-0.0582,-0.0641,-0.0683,-0.0694,-0.0683,-0.0662,-0.0619,-0.0561,-0.0507,-0.0448,-0.0374,-0.0294,-0.023,-0.0171,-0.0123,-0.0085,-0.0043,0.0,0.0021,0.0005,-0.0096,-0.032,-0.063,-0.0961,-0.1228,-0.1383,-0.1436,-0.0972,-0.0635,-0.0934,-0.0892,-0.0331,0.0043,0.016,0.0561,0.094,-0.0988,-0.0913,-0.079,-0.0673,-0.0577,-0.0507,-0.0497,-0.0529,-0.0566,-0.0598,-0.0641,-0.0683,-0.0721,-0.0747,-0.0763,-0.0774,-0.0753,-0.071,-0.0646,-0.0582,-0.0518,-0.0454,-0.0416,-0.04,-0.0358,-0.0288,-0.0198,-0.0107,-0.0032,0.0011,0.0005,-0.0053,-0.0166,-0.0331,-0.0545,-0.0796,-0.1068,-0.1191,-0.1351,-0.1484,-0.0908,-0.0315,-0.0529,-0.0806,-0.0235,0.0603,0.1148,-0.1041,-0.0982,-0.0886,-0.0769,-0.0657,-0.0545,-0.0475,-0.0497,-0.0571,-0.0657,-0.0731,-0.0774,-0.0774,-0.0769,-0.0806,-0.0838,-0.0817,-0.0763,-0.0705,-0.0641,-0.0587,-0.0555,-0.0555,-0.0545,-0.0497,-0.039,-0.0246,-0.0101,-0.0005,0.0043,0.0053,0.0043,0.0016,-0.0064,-0.0224,-0.0422,-0.0518,-0.0587,-0.0774,-0.0913,-0.0945,-0.1068,-0.0641,0.0198,0.0326,-0.0037,-0.0123,0,0,-0.1078,-0.1052,-0.0945,-0.0753,-0.0507,-0.0358,-0.0395,-0.0635,-0.0961,0,0,0,0,0,0,0,0,0,0,0,0,0,-0.0619,-0.0507,-0.0352,-0.0176,-0.0037,0.0037,0.0075,0.0091,0.0112,0.0123,0.0064,-0.008,-0.0251,-0.0326,-0.0283,-0.0198,-0.0144,-0.0214,-0.023,-0.0304,-0.0219,0.0224,0.0902,0,0,0,0,0,0,-0.0422,-0.0091,0,0,0,0,0,0,0,0,0,0,0,0,0,0,0,0,0,0,-0.0539,-0.0411,-0.031,-0.0203,-0.008,0.0053,0.0171,0.0235,0.0235,0.0166,0.0117,0.0112,0.0043,-0.0107,-0.0208,-0.0155,-0.0155,-0.0336,-0.0646,-0.0918,-0.1057,0,0,0,0,0,0,0,0,0,0,0,0,0,0,0,0,0,0,0,0,0,0,0,0,0,0,0,0,-0.0593,-0.0529,-0.0374,-0.0155,0.0107,0.0288,0.0342,0.0342,0.032,0.0283,0.0214,0.0064,-0.0155,-0.031,-0.0363,-0.0497,-0.0742,-0.0956,-0.1036,0,0,0,0,0,0,0,0,0,0,0,0,0,0,0,0,0,0,0,0,0,0,0,0,0,0,0,0,0,0,0,0,0,0,0,0.0347,0.0155,0.0155,0.0267,0.0299,0.0272,0.0246,0.0262,0.0256,0.0187,0.0091,-0.0085,0,0,0,0,0,0,0,0,0,0,0,0,0,0,0,0,0,0,0,0,0,0,0,0,0,0,0,0,0,0,0,0,0,0,0,0,0,0,-0.0155,0.0176,0.0438,0.0566,0.0545,0.0534,0.0566,0.0593,0.0582,0,0,0,0,0,0,0,0,0,0,0,0,0,0,0,0,0,0,0,0,0,0,0,0,0,0,0,0,0,0,0,0,0,0,0,0,0,0,0,0,0,0.0438,0.0513,0.0577,0.0662,0.0747,0.0758,0,0,0,0,0,0,0,0,0,0,0,0,0,0,0,0,0,0,0,0,0,0,0,0,0,0,0,0,0,0,0,0,0,0,0,0,0,0,0,0,0,0,0.0299,0.0443,0.0635,0.0908,0.0972,0,0,0,0,0,0,0,0,0,0,0,0,0,0,0,0,0,0,0,0,0,0,0,0,0,0,0,0,0,0,0,0,0,0,0,0,0,0,0,0,0,0,0,0,0,0,0.0283,0,0,0,0,0,0,0,0,0,0,0,0,0,0,0,0,0,0,0,0,0,0,0,0,0,0,0,0,0,0,0,0,0,0,0,0,0,0,0,0,0,0,0,0,0,0,0,0,0,0,0,0,0,0,0,0,0,0,0,0,0,0,0,0,0,0,0,0,0,0,0,0,0,0,0,0,0,0,0,0,0,0,0,0,0,0,0,0,0,0,0,0,0,0,0,0,0,0,0,0,0,0,0,0,0,0,0,0,0,0,0,0,0,0,0,0,0,0,0,0,0,0,0,0,0,0,0,0,0,0,0,0,0,0,0,0,0,0,0,0,0,0,0,0,0,0,0,0,0,0,0,0,0,0,0,0,0,0,0,0,0,0,0,0,0,0,0,0,0,0,0,0,0,0,0,0,0,0,0,0,0,0,0,0,0,0,0,0,0,0,0,0,0,0,0,0,0,0,0,0,0,0,0,0,0,0,0,0,0,0,0,0,0,0,0,0,0,0,0,0,0,0,0,0,0,0,0,0,0,0,0,0,0,0,0,0,0,0,0,0,0,0,0,0,0,0,0,0,0,0,0,0,0,0,0,0,0,0,0,0,0,0,0,0,0,0,0,0,0,0,0,0,0,0,0,0,0,0,0,0,0,0,0,0,0,0,0,0,0,0,0,0,0,0,0,0,0,0,0,0,0,0,0,0,0,0,0,0,0,0,0,0,0,0,0,0,0,0,0,0,0,0,0,0,0,0,0,0,0,0,0,0,0,0,0,0,0,0,0,0,0,0,0,0,0,0,0,0,0,0,0,0,0,0,0,0,0,0,0,0,0,0,0,0,0,0,0,0,0,0,0,0,0,0,0,0,0,0,0,0,0,0,0,0,0,0,0,0,0,0,0,0,0,0,0,0,0,0,0,0,0,0,0,0,0,0,0,0,0,0,0,0,0,0,0,0,0,0,0,0,0,0,0,0,0,0,0,0,0,0,0,0,0,0,0,0,0,0,0,0,0,0,0,0,0,0,0,0,0,0,0,0,0,0,0,0,0,0,0,0,0,0,0,0,0,0,0,0,0,0,0,0,0,0,0,0,0,0,0,0,0,0,0,0,0,0,0,0,0,0,0,0,0,0,0,0,0,0,0,0,0,0,0,0,0,0,0,0,0,0,0,0,0,0,0,0,0,0,0,0,0,0,0,0,0,0,0,0,0,0,0,0,0,0,0,0,0,0,0,0,0,0,0,0,0,0,0,0,0,0,0,0,0,0,0,0,0,0,0,0,0,0,0,0,0,0,0,0,0,0,0,0,0,0,0,0,0,0,0,0,0,0,0,0,0,0,0,0,0,0,0,0,0,0,0,0,0,0,0,0,0,0,0,0,0,0,0,0,0,0,0,0,0,0,0,0,0,0,0,0,0,0,0,0,0,0,0,0,0,0,0,0,0,0,0,0,0,0,0,0,0,0,0,0,0,0,0,0,0,0,0,0,0,0,0,0,0,0,0,0,0,0,0,0,0,0,0,0,0,0,0,0,0,0,0,0,0,0,0,0,0,0,0,0,0,0,0,0,0,0,0,0,0,0,0,0,0,0,0,0,0,0,0,0,0]}],[{"header":{"parameterUnit":"kt","parameterCategory":2,"dx":1,"dy":1,"la1":29.764190673828125,"la2":30.86408042907715,"lo1":-88.46762084960938,"lo2":-86.9344482421875,"nx":47,"ny":34,"refTime":"2022-10-07T00:00:00:Z","depth":"15","parameterNumber":3,"parameterNumberName":"V-component_of_CURRENTS"},"data":[0.0096,0.0785,0.1292,0.1735,0.1975,0.1933,0.1815,0.1783,0.1735,0.1388,0.0977,0.0924,0.1046,0.0918,0.0796,0.0598,0.0384,0.0326,0.0166,-0.0144,-0.0251,0.0053,0.0085,-0.0406,-0.0988,-0.1249,-0.1068,-0.0507,0.0235,0.0411,0.0171,0.0384,0.1319,0.1682,0.1879,0.2114,0.2413,0.268,0.2835,0.2819,0.2707,0.2461,0.2141,0.1831,0.15,0.1169,0.1041,-0.0331,0.0566,0.1041,0.1447,0.1751,0.1837,0.1922,0.1986,0.1783,0.1324,0.1046,0.1121,0.1089,0.0918,0.0785,0.0411,0.0278,0.0283,0.0256,-0.0011,-0.024,0.0182,0.0454,0.0,-0.0689,-0.1089,-0.1175,-0.0988,-0.0555,0.0005,0.04,0.0384,0.079,0.1612,0.2056,0.2317,0.244,0.2584,0.2632,0.2584,0.2467,0.2296,0.2088,0.189,0.1698,0.158,0.1671,-0.0507,0.0283,0.0822,0.126,0.1591,0.1783,0.1799,0.1676,0.142,0.1201,0.1169,0.1169,0.1004,0.0849,0.0566,0.024,0.0251,0.0294,0.0299,0.0171,-0.0133,0.0198,0.0689,0.0422,-0.024,-0.0769,-0.1057,-0.11,-0.0982,-0.0699,-0.0224,0.0368,0.063,0.0977,0.1554,0.2296,0.26,0.2904,0.3043,0.3011,0.2862,0.2696,0.2531,0.2403,0.2285,0.2205,0.2242,-0.0251,0.0133,0.0587,0.0961,0.1233,0.1361,0.1319,0.1185,0.1062,0.1073,0.1153,0.1052,0.086,0.063,0.0288,0.0198,0.0262,0.0326,0.0347,0.0294,0.0053,0.0043,0.0635,0.071,0.0288,-0.0251,-0.0753,-0.1004,-0.1036,-0.0918,-0.0742,-0.0331,0.0326,0.0758,0.1078,0.1404,0.181,0.2509,0.3001,0.3262,0.3235,0.3113,0.2985,0.2862,0.2739,0.2589,0.2515,0.016,0.0208,0.0416,0.063,0.0817,0.0876,0.0897,0.0881,0.0908,0.0924,0.0918,0.0774,0.0593,0.0347,0.0203,0.0251,0.0315,0.0368,0.039,0.0379,0.0251,0.0043,0.031,0.0598,0.0507,0.0187,-0.0262,-0.0657,-0.0774,-0.0785,-0.079,-0.0753,-0.0438,0.0251,0.0934,0.1228,0.142,0.1714,0.213,0.2686,0.2963,0.3017,0.2926,0.2814,0.2755,0.2648,0.2568,0.0475,0.0411,0.0406,0.047,0.0582,0.063,0.0678,0.071,0.0721,0.0694,0.0603,0.0475,0.0352,0.0272,0.0294,0.0336,0.0374,0.0406,0.0411,0.0411,0.0352,0.024,0.0214,0.0363,0.0374,0.0304,0.016,-0.0144,-0.0342,-0.0448,-0.0545,-0.071,-0.0726,-0.0491,0.0166,0.1046,0.1714,0.1922,0.2061,0.2205,0.2328,0.2536,0.2557,0.2515,0.2541,0.2568,0.2563,0.0571,0.0545,0.0475,0.047,0.0518,0.0534,0.0545,0.0545,0.0523,0.0507,0.0454,0.04,0.0363,0.0347,0.0379,0.039,0.04,0.0406,0.04,0.0379,0.032,0.024,0.0176,0.016,0.0182,0.024,0.031,0.0251,0.0101,-0.0037,-0.016,-0.0347,-0.0545,-0.0619,-0.0379,0.0283,0.1153,0.197,0.2515,0.2472,0.2525,0.2509,0.2419,0.2445,0.2467,0.2552,0.2632,0.0598,0.0555,0.0518,0.0513,0.0518,0.0523,0.0523,0.0518,0.0513,0.0513,0.0497,0.047,0.0432,0.04,0.0411,0.0406,0.04,0.039,0.0368,0.0331,0.0251,0.0128,-0.0027,-0.0096,-0.0032,0.0112,0.0272,0.0326,0.0288,0.0187,0.0117,0.0043,-0.016,-0.04,-0.0411,0.0037,0.055,0.1308,0.1938,0.2584,0.2985,0.2899,0.283,0.2878,0.2771,0.2776,0.2883,0.0657,0.0577,0.0518,0.0497,0.0513,0.0555,0.0587,0.0587,0.0587,0.0582,0.0566,0.0523,0.0464,0.0432,0.0427,0.0406,0.039,0.0368,0.0336,0.0272,0.016,0.0021,-0.0107,-0.0139,-0.0053,0.0096,0.0235,0.0283,0.0235,0.0166,0.0155,0.0182,0.0139,-0.0048,-0.0251,-0.0059,0.0363,0.0817,0.126,0.1714,0.2157,0.2573,0.3113,0.3166,0.3118,0.3257,0.3374,0.0614,0.0486,0.0438,0.0448,0.0486,0.0571,0.0646,0.0683,0.0689,0.0678,0.0635,0.0566,0.0497,0.0448,0.0438,0.0374,0.0336,0.0304,0.0256,0.0176,0.0053,-0.0059,-0.0112,-0.0101,-0.0021,0.0096,0.0182,0.0198,0.016,0.0128,0.0155,0.0235,0.0299,0.023,0.0032,-0.0059,0.0272,0.0577,0.094,0.1062,0.1249,0.1596,0.1821,0.221,0.2953,0.3374,0.3465,0.0481,0.0342,0.0304,0.0352,0.0454,0.0577,0.071,0.0801,0.0838,0.0801,0.0721,0.0593,0.0513,0.0475,0.0454,0.031,0.024,0.0198,0.0155,0.008,-0.0011,-0.0069,-0.0091,-0.008,-0.0027,0.0043,0.0091,0.0107,0.0112,0.0139,0.0192,0.0262,0.0352,0.0363,0.0256,0.0085,0.0187,0.0475,0.071,0.0796,0.0689,0.0609,0.0539,0.0539,0.0806,0.0865,0.1249,0,0,0.0187,0.023,0.0406,0.0566,0.0747,0.0822,0.0892,0.0902,0.0854,0,0,0,0,0,0,0,0,0,0,0,0,0,-0.0059,-0.0027,-0.0011,0.0032,0.0112,0.0171,0.023,0.0283,0.0352,0.0411,0.039,0.0283,0.0208,0.047,0.0598,0.0481,0.032,0.055,0.0523,0.0064,-0.0283,-0.0539,-0.0523,0,0,0,0,0,0,0.0721,0.0721,0,0,0,0,0,0,0,0,0,0,0,0,0,0,0,0,0,0,-0.0069,-0.0005,0.0117,0.0192,0.024,0.0262,0.0336,0.0411,0.0438,0.0395,0.0326,0.0443,0.0555,0.0459,0.0288,0.0358,0.0422,0.024,0.0149,-0.0043,-0.0064,0,0,0,0,0,0,0,0,0,0,0,0,0,0,0,0,0,0,0,0,0,0,0,0,0,0,0,0,0.0064,0.0208,0.0352,0.04,0.0459,0.0454,0.0432,0.0406,0.039,0.0513,0.0662,0.063,0.0491,0.0443,0.0523,0.0422,0.0278,0.0198,0.0208,0,0,0,0,0,0,0,0,0,0,0,0,0,0,0,0,0,0,0,0,0,0,0,0,0,0,0,0,0,0,0,0,0,0,0,0.0464,0.0491,0.0603,0.0763,0.0737,0.0731,0.0651,0.0657,0.0646,0.0561,0.0411,0.0272,0,0,0,0,0,0,0,0,0,0,0,0,0,0,0,0,0,0,0,0,0,0,0,0,0,0,0,0,0,0,0,0,0,0,0,0,0,0,0.0641,0.0646,0.0651,0.0619,0.0619,0.0657,0.0662,0.0609,0.0464,0,0,0,0,0,0,0,0,0,0,0,0,0,0,0,0,0,0,0,0,0,0,0,0,0,0,0,0,0,0,0,0,0,0,0,0,0,0,0,0,0,0.0416,0.0422,0.0475,0.0534,0.0593,0.0518,0,0,0,0,0,0,0,0,0,0,0,0,0,0,0,0,0,0,0,0,0,0,0,0,0,0,0,0,0,0,0,0,0,0,0,0,0,0,0,0,0,0,0.0278,0.031,0.0395,0.0539,0.0582,0,0,0,0,0,0,0,0,0,0,0,0,0,0,0,0,0,0,0,0,0,0,0,0,0,0,0,0,0,0,0,0,0,0,0,0,0,0,0,0,0,0,0,0,0,0,0.0635,0,0,0,0,0,0,0,0,0,0,0,0,0,0,0,0,0,0,0,0,0,0,0,0,0,0,0,0,0,0,0,0,0,0,0,0,0,0,0,0,0,0,0,0,0,0,0,0,0,0,0,0,0,0,0,0,0,0,0,0,0,0,0,0,0,0,0,0,0,0,0,0,0,0,0,0,0,0,0,0,0,0,0,0,0,0,0,0,0,0,0,0,0,0,0,0,0,0,0,0,0,0,0,0,0,0,0,0,0,0,0,0,0,0,0,0,0,0,0,0,0,0,0,0,0,0,0,0,0,0,0,0,0,0,0,0,0,0,0,0,0,0,0,0,0,0,0,0,0,0,0,0,0,0,0,0,0,0,0,0,0,0,0,0,0,0,0,0,0,0,0,0,0,0,0,0,0,0,0,0,0,0,0,0,0,0,0,0,0,0,0,0,0,0,0,0,0,0,0,0,0,0,0,0,0,0,0,0,0,0,0,0,0,0,0,0,0,0,0,0,0,0,0,0,0,0,0,0,0,0,0,0,0,0,0,0,0,0,0,0,0,0,0,0,0,0,0,0,0,0,0,0,0,0,0,0,0,0,0,0,0,0,0,0,0,0,0,0,0,0,0,0,0,0,0,0,0,0,0,0,0,0,0,0,0,0,0,0,0,0,0,0,0,0,0,0,0,0,0,0,0,0,0,0,0,0,0,0,0,0,0,0,0,0,0,0,0,0,0,0,0,0,0,0,0,0,0,0,0,0,0,0,0,0,0,0,0,0,0,0,0,0,0,0,0,0,0,0,0,0,0,0,0,0,0,0,0,0,0,0,0,0,0,0,0,0,0,0,0,0,0,0,0,0,0,0,0,0,0,0,0,0,0,0,0,0,0,0,0,0,0,0,0,0,0,0,0,0,0,0,0,0,0,0,0,0,0,0,0,0,0,0,0,0,0,0,0,0,0,0,0,0,0,0,0,0,0,0,0,0,0,0,0,0,0,0,0,0,0,0,0,0,0,0,0,0,0,0,0,0,0,0,0,0,0,0,0,0,0,0,0,0,0,0,0,0,0,0,0,0,0,0,0,0,0,0,0,0,0,0,0,0,0,0,0,0,0,0,0,0,0,0,0,0,0,0,0,0,0,0,0,0,0,0,0,0,0,0,0,0,0,0,0,0,0,0,0,0,0,0,0,0,0,0,0,0,0,0,0,0,0,0,0,0,0,0,0,0,0,0,0,0,0,0,0,0,0,0,0,0,0,0,0,0,0,0,0,0,0,0,0,0,0,0,0,0,0,0,0,0,0,0,0,0,0,0,0,0,0,0,0,0,0,0,0,0,0,0,0,0,0,0,0,0,0,0,0,0,0,0,0,0,0,0,0,0,0,0,0,0,0,0,0,0,0,0,0,0,0,0,0,0,0,0,0,0,0,0,0,0,0,0,0,0,0,0,0,0,0,0,0,0,0,0,0,0,0,0,0,0,0,0,0,0,0,0,0,0,0,0,0,0,0,0,0,0,0,0,0,0,0,0,0,0,0,0,0,0,0,0,0,0,0,0,0,0,0,0,0,0,0,0,0,0,0,0,0,0,0,0,0,0,0,0,0]}]],[[{"header":{"parameterUnit":"kt","parameterCategory":2,"dx":1,"dy":1,"la1":29.764190673828125,"la2":30.86408042907715,"lo1":-88.46762084960938,"lo2":-86.9344482421875,"nx":47,"ny":34,"refTime":"2022-10-07T00:00:00:Z","depth":"20","parameterNumber":2,"parameterNumberName":"U-component_of_CURRENTS"},"data":[-0.0043,0.0545,0.0683,0.0876,0.0993,0.1025,0.0758,0.0219,0.0043,0.0016,-0.0021,-0.0069,-0.024,-0.0304,-0.0331,-0.0283,-0.0149,-0.0101,-0.0198,-0.0459,-0.0721,-0.0961,-0.1196,-0.1436,-0.1805,-0.2088,-0.2429,-0.2718,-0.2664,-0.2184,-0.1287,-0.1612,-0.1986,-0.1687,-0.1383,-0.1415,-0.1442,-0.1452,-0.1447,-0.1404,-0.1335,-0.1372,-0.1415,-0.1335,-0.1191,-0.1046,-0.079,-0.0876,-0.0534,-0.0374,-0.0368,-0.0438,-0.0561,-0.0678,-0.0523,-0.0203,-0.0096,-0.0101,-0.0235,-0.031,-0.0299,-0.0256,-0.0123,-0.0053,-0.0048,-0.0096,-0.032,-0.0534,-0.0646,-0.0828,-0.1164,-0.1538,-0.1901,-0.2248,-0.2525,-0.2872,-0.2953,-0.2456,-0.1431,-0.1703,-0.2018,-0.1805,-0.1436,-0.1196,-0.1127,-0.1073,-0.1025,-0.1073,-0.1057,-0.102,-0.0929,-0.0769,-0.0502,-0.0123,-0.1271,-0.1415,-0.1511,-0.1522,-0.1479,-0.1372,-0.1105,-0.0625,-0.0203,-0.0016,-0.0128,-0.0331,-0.0347,-0.0315,-0.0149,-0.0021,-0.0016,0.0027,0.0048,-0.0112,-0.0358,-0.0374,-0.0294,-0.0534,-0.1014,-0.1447,-0.1778,-0.2066,-0.2269,-0.2557,-0.2814,-0.2403,-0.142,-0.1276,-0.1666,-0.1618,-0.141,-0.1089,-0.0812,-0.0667,-0.0673,-0.0587,-0.0454,-0.031,-0.0171,0.0005,0.0246,-0.1271,-0.1447,-0.149,-0.1522,-0.1377,-0.1121,-0.0726,-0.0406,-0.024,-0.0256,-0.0379,-0.0384,-0.0336,-0.0203,-0.0037,-0.0016,-0.0027,0.0016,0.0027,-0.0101,-0.0315,-0.0288,0.0027,0.0139,-0.0219,-0.0763,-0.1223,-0.1522,-0.1719,-0.1874,-0.2066,-0.2392,-0.2264,-0.1511,-0.0571,-0.0812,-0.1089,-0.1052,-0.095,-0.0715,-0.0571,-0.0363,-0.0149,0.0016,0.0123,0.0166,0.0246,-0.0956,-0.1169,-0.11,-0.0934,-0.079,-0.0646,-0.0513,-0.0481,-0.0539,-0.063,-0.0614,-0.0464,-0.0219,-0.0005,0.0011,-0.0064,-0.008,-0.0059,-0.0053,-0.0149,-0.031,-0.0432,-0.0278,0.0043,0.0139,-0.0101,-0.0566,-0.1046,-0.1436,-0.1596,-0.1623,-0.1821,-0.2136,-0.2269,-0.181,-0.0902,-0.0144,-0.023,-0.0427,-0.047,-0.0432,-0.0304,-0.0101,0.0075,0.0176,0.0187,0.0208,-0.0555,-0.0769,-0.0913,-0.0956,-0.094,-0.0918,-0.0924,-0.0886,-0.0796,-0.0657,-0.0459,-0.0251,-0.0096,-0.0048,-0.0091,-0.0155,-0.0176,-0.0171,-0.0171,-0.0182,-0.0182,-0.0198,-0.0182,-0.0011,0.024,0.0358,0.0144,-0.0347,-0.0844,-0.1233,-0.1468,-0.1548,-0.158,-0.1628,-0.1746,-0.1773,-0.1164,-0.0395,0.0198,0.0406,0.0112,-0.0021,-0.0112,0.0048,0.0256,0.0336,0.0395,-0.0358,-0.0363,-0.0395,-0.047,-0.0545,-0.0587,-0.0577,-0.0513,-0.0432,-0.0352,-0.0283,-0.0251,-0.0267,-0.0288,-0.0304,-0.031,-0.0315,-0.0315,-0.0299,-0.0278,-0.0246,-0.0214,-0.0144,0.0027,0.0219,0.0352,0.0363,0.0214,-0.0059,-0.0342,-0.0593,-0.0908,-0.1169,-0.1185,-0.1095,-0.1223,-0.1516,-0.1255,-0.0464,0.0304,0.087,0.1046,0.0705,0.0358,0.0352,0.0534,0.0667,-0.0481,-0.0459,-0.0432,-0.0395,-0.0358,-0.0347,-0.0352,-0.0368,-0.0368,-0.0374,-0.0384,-0.0416,-0.047,-0.0507,-0.0507,-0.0491,-0.047,-0.0448,-0.0416,-0.0379,-0.0342,-0.0299,-0.0219,-0.0107,0.0016,0.0101,0.0128,0.0123,0.0117,0.008,-0.0059,-0.0304,-0.0651,-0.0934,-0.0833,-0.0715,-0.0742,-0.0635,-0.0918,-0.0769,0.016,0.0753,0.1052,0.1046,0.0715,0.0614,0.0822,-0.0785,-0.0721,-0.0641,-0.0555,-0.0475,-0.0432,-0.0432,-0.0454,-0.0459,-0.0464,-0.0486,-0.0534,0,0,0,0,0,-0.0587,-0.0534,-0.0486,-0.0438,-0.0374,-0.0299,-0.023,-0.0155,-0.0101,-0.0064,-0.0027,0.0011,0.0027,0.0005,-0.0107,-0.0347,-0.0641,-0.078,-0.0673,-0.0908,-0.0774,-0.0064,0.0422,-0.0411,-0.0651,0.0171,0.0796,0.0908,0.0934,0.1089,0,0,0,0,-0.055,-0.0475,-0.0464,0,0,0,0,0,0,0,0,0,0,0,0,0,0,0,0,0,-0.0342,-0.0262,-0.0182,-0.0096,-0.0027,0.0016,0.0016,-0.0048,-0.0176,-0.0347,-0.0561,-0.0539,-0.0416,-0.0801,-0.0945,-0.0699,-0.0011,0.071,0.0363,-0.0641,-0.0117,0.0929,0.1511,0,0,0,0,0,0,0,0,0,0,0,0,0,0,0,0,0,0,0,0,0,0,0,0,0,0,-0.023,-0.0096,0.0005,0.0053,0.0064,0.0048,0.0021,-0.0075,-0.023,-0.0416,-0.0219,0.0112,0.0107,-0.0149,-0.0432,-0.0326,0.0203,0.0806,0.1276,0.0336,-0.0219,0,0,0,0,0,0,0,0,0,0,0,0,0,0,0,0,0,0,0,0,0,0,0,0,0,0,0,0,-0.0032,0.0048,0.008,0.0096,0.0123,0.0128,0.0059,-0.0091,-0.0283,-0.0075,0.0432,0.0651,0.0635,0.0571,0.0342,0.0283,0.0646,0.0699,0.0502,0,0,0,0,0,0,0,0,0,0,0,0,0,0,0,0,0,0,0,0,0,0,0,0,0,0,0,0,0,-0.0198,-0.0075,0.0053,0.0171,0.0235,0.023,0.0144,0.008,0.0107,0.0112,0.0027,0.0016,0.0358,0.0619,0.0406,-0.0198,-0.0763,-0.0988,0,0,0,0,0,0,0,0,0,0,0,0,0,0,0,0,0,0,0,0,0,0,0,0,0,0,0,0,0,0,0,0,0,0,0,0,0,0.0256,0.0214,0.0064,-0.0176,-0.0283,-0.0235,-0.0235,-0.0294,-0.0427,-0.0464,0,0,0,0,0,0,0,0,0,0,0,0,0,0,0,0,0,0,0,0,0,0,0,0,0,0,0,0,0,0,0,0,0,0,0,0,0,0,0.0256,0.0288,0.0256,0.023,0.0256,0.0246,0.0182,0.0101,0.0059,0,0,0,0,0,0,0,0,0,0,0,0,0,0,0,0,0,0,0,0,0,0,0,0,0,0,0,0,0,0,0,0,0,0,0,0,0,0,0,0,0,0.0545,0.0513,0.0491,0.0523,0.0566,0.0571,0,0,0,0,0,0,0,0,0,0,0,0,0,0,0,0,0,0,0,0,0,0,0,0,0,0,0,0,0,0,0,0,0,0,0,0,0,0,0,0,0,0,0,0,0.0619,0.0699,0.0715,0,0,0,0,0,0,0,0,0,0,0,0,0,0,0,0,0,0,0,0,0,0,0,0,0,0,0,0,0,0,0,0,0,0,0,0,0,0,0,0,0,0,0,0,0,0.0865,0.0924,0,0,0,0,0,0,0,0,0,0,0,0,0,0,0,0,0,0,0,0,0,0,0,0,0,0,0,0,0,0,0,0,0,0,0,0,0,0,0,0,0,0,0,0,0,0,0,0,0,0,0,0,0,0,0,0,0,0,0,0,0,0,0,0,0,0,0,0,0,0,0,0,0,0,0,0,0,0,0,0,0,0,0,0,0,0,0,0,0,0,0,0,0,0,0,0,0,0,0,0,0,0,0,0,0,0,0,0,0,0,0,0,0,0,0,0,0,0,0,0,0,0,0,0,0,0,0,0,0,0,0,0,0,0,0,0,0,0,0,0,0,0,0,0,0,0,0,0,0,0,0,0,0,0,0,0,0,0,0,0,0,0,0,0,0,0,0,0,0,0,0,0,0,0,0,0,0,0,0,0,0,0,0,0,0,0,0,0,0,0,0,0,0,0,0,0,0,0,0,0,0,0,0,0,0,0,0,0,0,0,0,0,0,0,0,0,0,0,0,0,0,0,0,0,0,0,0,0,0,0,0,0,0,0,0,0,0,0,0,0,0,0,0,0,0,0,0,0,0,0,0,0,0,0,0,0,0,0,0,0,0,0,0,0,0,0,0,0,0,0,0,0,0,0,0,0,0,0,0,0,0,0,0,0,0,0,0,0,0,0,0,0,0,0,0,0,0,0,0,0,0,0,0,0,0,0,0,0,0,0,0,0,0,0,0,0,0,0,0,0,0,0,0,0,0,0,0,0,0,0,0,0,0,0,0,0,0,0,0,0,0,0,0,0,0,0,0,0,0,0,0,0,0,0,0,0,0,0,0,0,0,0,0,0,0,0,0,0,0,0,0,0,0,0,0,0,0,0,0,0,0,0,0,0,0,0,0,0,0,0,0,0,0,0,0,0,0,0,0,0,0,0,0,0,0,0,0,0,0,0,0,0,0,0,0,0,0,0,0,0,0,0,0,0,0,0,0,0,0,0,0,0,0,0,0,0,0,0,0,0,0,0,0,0,0,0,0,0,0,0,0,0,0,0,0,0,0,0,0,0,0,0,0,0,0,0,0,0,0,0,0,0,0,0,0,0,0,0,0,0,0,0,0,0,0,0,0,0,0,0,0,0,0,0,0,0,0,0,0,0,0,0,0,0,0,0,0,0,0,0,0,0,0,0,0,0,0,0,0,0,0,0,0,0,0,0,0,0,0,0,0,0,0,0,0,0,0,0,0,0,0,0,0,0,0,0,0,0,0,0,0,0,0,0,0,0,0,0,0,0,0,0,0,0,0,0,0,0,0,0,0,0,0,0,0,0,0,0,0,0,0,0,0,0,0,0,0,0,0,0,0,0,0,0,0,0,0,0,0,0,0,0,0,0,0,0,0,0,0,0,0,0,0,0,0,0,0,0,0,0,0,0,0,0,0,0,0,0,0,0,0,0,0,0,0,0,0,0,0,0,0,0,0,0,0,0,0,0,0,0,0,0,0,0,0,0,0,0,0,0,0,0,0,0,0,0,0,0,0,0,0,0,0,0,0,0,0,0,0,0,0,0,0,0,0,0,0,0,0,0,0,0,0,0,0,0,0,0,0,0,0,0,0,0,0,0,0,0,0,0,0,0,0,0,0,0,0,0,0,0,0,0,0,0,0,0,0,0,0,0,0,0,0,0,0,0,0,0,0,0,0,0,0,0,0,0,0,0,0,0,0,0]}],[{"header":{"parameterUnit":"kt","parameterCategory":2,"dx":1,"dy":1,"la1":29.764190673828125,"la2":30.86408042907715,"lo1":-88.46762084960938,"lo2":-86.9344482421875,"nx":47,"ny":34,"refTime":"2022-10-07T00:00:00:Z","depth":"20","parameterNumber":3,"parameterNumberName":"V-component_of_CURRENTS"},"data":[-0.063,-0.0149,0.055,0.1175,0.1538,0.1709,0.1543,0.1516,0.1511,0.1345,0.0929,0.0812,0.0918,0.0908,0.0822,0.0641,0.0416,0.0336,0.0171,-0.0128,-0.0256,0.0037,0.0123,-0.0331,-0.086,-0.1143,-0.1057,-0.0518,0.0032,-0.0053,-0.0294,0.0149,0.078,0.1046,0.1319,0.1735,0.2141,0.2531,0.2734,0.2734,0.2477,0.2333,0.2082,0.1799,0.1452,0.1121,0.0988,-0.0571,-0.008,0.0534,0.1052,0.1436,0.1709,0.1837,0.1847,0.1628,0.118,0.0886,0.0902,0.0977,0.0918,0.0812,0.0411,0.0267,0.0262,0.023,0.0032,-0.0166,0.0214,0.0502,0.0091,-0.0502,-0.0833,-0.095,-0.0817,-0.0513,-0.0053,0.0064,-0.0043,0.0374,0.1052,0.1543,0.1863,0.1933,0.2077,0.2216,0.2355,0.2392,0.221,0.2029,0.1837,0.1655,0.1548,0.1639,-0.04,0.0133,0.0641,0.1185,0.1538,0.1773,0.1805,0.1575,0.1244,0.0844,0.0892,0.0924,0.0934,0.0849,0.0566,0.0235,0.024,0.0278,0.0278,0.0192,0.0005,0.0278,0.0705,0.0427,-0.0144,-0.0507,-0.0715,-0.0747,-0.0758,-0.0635,-0.0256,0.0091,0.0032,0.0422,0.0966,0.1725,0.1997,0.2248,0.2403,0.2589,0.2664,0.2605,0.2472,0.2355,0.2253,0.2194,0.2226,-0.0096,0.024,0.0619,0.0961,0.126,0.1399,0.126,0.103,0.0705,0.0694,0.0908,0.0913,0.0812,0.0598,0.0267,0.0192,0.0262,0.0326,0.0347,0.0304,0.0149,0.0149,0.0667,0.0651,0.0262,-0.0149,-0.0464,-0.063,-0.0667,-0.0731,-0.0657,-0.039,-0.008,-0.0037,0.031,0.0876,0.1223,0.1863,0.2381,0.2755,0.2963,0.3027,0.2936,0.2808,0.2696,0.2573,0.2499,0.0214,0.0304,0.0523,0.063,0.0812,0.079,0.0747,0.0619,0.0619,0.0715,0.0801,0.0731,0.0555,0.0315,0.0198,0.0251,0.0326,0.0384,0.0406,0.0395,0.031,0.0235,0.0491,0.0651,0.0481,0.0155,-0.0139,-0.039,-0.0448,-0.0497,-0.0561,-0.0667,-0.0518,-0.0037,0.0246,0.0379,0.0646,0.1207,0.158,0.221,0.2643,0.2888,0.2888,0.2766,0.267,0.2573,0.2515,0.0481,0.0438,0.0448,0.047,0.0539,0.0539,0.0577,0.0619,0.0646,0.0662,0.0582,0.047,0.0347,0.0278,0.0304,0.0347,0.0395,0.0422,0.0427,0.0427,0.039,0.04,0.0459,0.0539,0.0459,0.031,0.0203,0.0,-0.0101,-0.0139,-0.0235,-0.0395,-0.0523,-0.0545,-0.0208,0.0497,0.094,0.1233,0.1532,0.1602,0.1842,0.2157,0.2451,0.2472,0.2435,0.2413,0.2467,0.0561,0.0539,0.0475,0.047,0.0507,0.0529,0.0539,0.0539,0.0523,0.0507,0.0459,0.0411,0.0379,0.0363,0.039,0.04,0.0411,0.0416,0.0406,0.0384,0.0331,0.0262,0.023,0.0208,0.0219,0.0256,0.031,0.0288,0.0235,0.0182,0.0075,-0.0069,-0.0251,-0.0411,-0.0406,-0.0064,0.0865,0.1575,0.1869,0.1826,0.1751,0.1783,0.1799,0.2109,0.2349,0.244,0.2547,0.0593,0.0555,0.0518,0.0513,0.0518,0.0523,0.0523,0.0513,0.0513,0.0513,0.0497,0.0475,0.0438,0.0411,0.0416,0.0406,0.04,0.039,0.0368,0.0326,0.0251,0.0117,-0.0043,-0.0117,-0.0059,0.0085,0.0246,0.031,0.0294,0.023,0.0182,0.0128,-0.0048,-0.024,-0.0331,-0.031,0.0112,0.0587,0.1255,0.1826,0.229,0.2168,0.2226,0.2397,0.2573,0.2792,0.2883,0.0673,0.0593,0.0529,0.0502,0.0513,0.0555,0.0582,0.0582,0.0577,0.0571,0.0555,0.0518,0,0,0,0,0,0.0363,0.0331,0.0267,0.0155,0.0011,-0.0117,-0.0155,-0.0075,0.0075,0.0214,0.0262,0.0219,0.0149,0.0144,0.0187,0.016,0.0,-0.0171,-0.0171,-0.0043,0.0107,0.0256,0.039,0.1095,0.1687,0.244,0.2712,0.2904,0.3182,0.3417,0,0,0,0,0.0486,0.0566,0.0641,0,0,0,0,0,0,0,0,0,0,0,0,0,0,0,0,0,-0.0027,0.0085,0.016,0.0176,0.0133,0.0107,0.0139,0.0219,0.0294,0.0246,0.0075,0.0005,0.0053,0.0192,-0.0053,-0.0176,-0.0374,-0.0448,-0.0016,0.0977,0.1874,0.2472,0.2862,0,0,0,0,0,0,0,0,0,0,0,0,0,0,0,0,0,0,0,0,0,0,0,0,0,0,0.0085,0.0091,0.0096,0.0123,0.0176,0.0246,0.0342,0.0363,0.0278,0.0187,0.0139,0.0155,0.0299,0.0053,-0.0577,-0.0523,-0.0518,-0.0731,-0.1132,-0.1127,-0.0609,0,0,0,0,0,0,0,0,0,0,0,0,0,0,0,0,0,0,0,0,0,0,0,0,0,0,0,0,0.0117,0.0176,0.023,0.0272,0.0342,0.0406,0.0395,0.0336,0.0256,0.0272,0.0352,0.0144,-0.0043,-0.0198,-0.055,-0.0731,-0.0699,-0.0993,-0.1345,0,0,0,0,0,0,0,0,0,0,0,0,0,0,0,0,0,0,0,0,0,0,0,0,0,0,0,0,0,0.0214,0.0256,0.0267,0.0336,0.04,0.0432,0.04,0.039,0.0443,0.0523,0.0347,0.0117,0.0075,-0.0075,-0.04,-0.079,-0.126,-0.079,0,0,0,0,0,0,0,0,0,0,0,0,0,0,0,0,0,0,0,0,0,0,0,0,0,0,0,0,0,0,0,0,0,0,0,0,0,0.0507,0.0641,0.0641,0.0507,0.0395,0.031,0.0283,0.0166,-0.0112,-0.0299,0,0,0,0,0,0,0,0,0,0,0,0,0,0,0,0,0,0,0,0,0,0,0,0,0,0,0,0,0,0,0,0,0,0,0,0,0,0,0.0747,0.0731,0.0747,0.0689,0.0694,0.0683,0.0593,0.0438,0.0326,0,0,0,0,0,0,0,0,0,0,0,0,0,0,0,0,0,0,0,0,0,0,0,0,0,0,0,0,0,0,0,0,0,0,0,0,0,0,0,0,0,0.063,0.0635,0.0678,0.0694,0.0641,0.0502,0,0,0,0,0,0,0,0,0,0,0,0,0,0,0,0,0,0,0,0,0,0,0,0,0,0,0,0,0,0,0,0,0,0,0,0,0,0,0,0,0,0,0,0,0.0545,0.0603,0.0534,0,0,0,0,0,0,0,0,0,0,0,0,0,0,0,0,0,0,0,0,0,0,0,0,0,0,0,0,0,0,0,0,0,0,0,0,0,0,0,0,0,0,0,0,0,0.0539,0.0582,0,0,0,0,0,0,0,0,0,0,0,0,0,0,0,0,0,0,0,0,0,0,0,0,0,0,0,0,0,0,0,0,0,0,0,0,0,0,0,0,0,0,0,0,0,0,0,0,0,0,0,0,0,0,0,0,0,0,0,0,0,0,0,0,0,0,0,0,0,0,0,0,0,0,0,0,0,0,0,0,0,0,0,0,0,0,0,0,0,0,0,0,0,0,0,0,0,0,0,0,0,0,0,0,0,0,0,0,0,0,0,0,0,0,0,0,0,0,0,0,0,0,0,0,0,0,0,0,0,0,0,0,0,0,0,0,0,0,0,0,0,0,0,0,0,0,0,0,0,0,0,0,0,0,0,0,0,0,0,0,0,0,0,0,0,0,0,0,0,0,0,0,0,0,0,0,0,0,0,0,0,0,0,0,0,0,0,0,0,0,0,0,0,0,0,0,0,0,0,0,0,0,0,0,0,0,0,0,0,0,0,0,0,0,0,0,0,0,0,0,0,0,0,0,0,0,0,0,0,0,0,0,0,0,0,0,0,0,0,0,0,0,0,0,0,0,0,0,0,0,0,0,0,0,0,0,0,0,0,0,0,0,0,0,0,0,0,0,0,0,0,0,0,0,0,0,0,0,0,0,0,0,0,0,0,0,0,0,0,0,0,0,0,0,0,0,0,0,0,0,0,0,0,0,0,0,0,0,0,0,0,0,0,0,0,0,0,0,0,0,0,0,0,0,0,0,0,0,0,0,0,0,0,0,0,0,0,0,0,0,0,0,0,0,0,0,0,0,0,0,0,0,0,0,0,0,0,0,0,0,0,0,0,0,0,0,0,0,0,0,0,0,0,0,0,0,0,0,0,0,0,0,0,0,0,0,0,0,0,0,0,0,0,0,0,0,0,0,0,0,0,0,0,0,0,0,0,0,0,0,0,0,0,0,0,0,0,0,0,0,0,0,0,0,0,0,0,0,0,0,0,0,0,0,0,0,0,0,0,0,0,0,0,0,0,0,0,0,0,0,0,0,0,0,0,0,0,0,0,0,0,0,0,0,0,0,0,0,0,0,0,0,0,0,0,0,0,0,0,0,0,0,0,0,0,0,0,0,0,0,0,0,0,0,0,0,0,0,0,0,0,0,0,0,0,0,0,0,0,0,0,0,0,0,0,0,0,0,0,0,0,0,0,0,0,0,0,0,0,0,0,0,0,0,0,0,0,0,0,0,0,0,0,0,0,0,0,0,0,0,0,0,0,0,0,0,0,0,0,0,0,0,0,0,0,0,0,0,0,0,0,0,0,0,0,0,0,0,0,0,0,0,0,0,0,0,0,0,0,0,0,0,0,0,0,0,0,0,0,0,0,0,0,0,0,0,0,0,0,0,0,0,0,0,0,0,0,0,0,0,0,0,0,0,0,0,0,0,0,0,0,0,0,0,0,0,0,0,0,0,0,0,0,0,0,0,0,0,0,0,0,0,0,0,0,0,0,0,0,0,0,0,0,0,0,0,0,0,0,0,0,0,0,0,0,0,0,0,0,0,0,0,0,0,0,0,0,0,0,0,0,0,0,0,0,0,0,0,0,0,0,0,0,0,0,0,0,0,0,0,0,0,0,0,0,0,0,0,0,0,0,0,0,0,0,0,0,0,0,0,0,0,0,0,0,0,0,0,0,0,0,0,0,0,0,0,0,0,0,0,0,0]}]],[[{"header":{"parameterUnit":"kt","parameterCategory":2,"dx":1,"dy":1,"la1":29.764190673828125,"la2":30.86408042907715,"lo1":-88.46762084960938,"lo2":-86.9344482421875,"nx":47,"ny":34,"refTime":"2022-10-07T00:00:00:Z","depth":"25","parameterNumber":2,"parameterNumberName":"U-component_of_CURRENTS"},"data":[-0.0139,-0.0523,-0.0763,-0.0689,-0.0096,0.0545,0.0838,0.0982,0.1105,0.1313,0.1313,0.1036,0.0731,0.047,0.0155,-0.0021,-0.0027,-0.0011,-0.0005,-0.0187,-0.0374,-0.0534,-0.0625,-0.0667,-0.0822,-0.103,-0.1719,-0.2381,-0.2451,-0.2002,-0.1393,-0.0507,-0.1287,-0.1212,-0.0641,-0.0838,-0.0908,-0.0934,-0.0918,-0.0961,-0.1073,-0.1095,-0.0934,-0.0763,-0.0539,-0.039,-0.0315,-0.0545,-0.0539,-0.0641,-0.0582,-0.0336,-0.0011,0.0374,0.0753,0.1175,0.142,0.1223,0.0913,0.0678,0.0352,0.0048,-0.0027,-0.0027,-0.0032,-0.0037,-0.0262,-0.0529,-0.063,-0.0763,-0.0945,-0.1068,-0.1175,-0.142,-0.181,-0.1975,-0.2093,-0.1954,-0.1297,-0.0406,-0.1468,-0.1116,-0.0699,-0.0448,-0.0331,-0.0219,-0.0187,-0.0299,-0.0384,-0.0379,-0.0288,-0.0187,-0.0091,0.0096,-0.0913,-0.0753,-0.0731,-0.0753,-0.0619,-0.0272,0.024,0.0918,0.149,0.1426,0.0998,0.0699,0.047,0.0144,0.0069,0.0021,-0.0005,0.0043,0.0069,-0.0101,-0.0368,-0.0384,-0.0267,-0.0384,-0.0753,-0.1004,-0.118,-0.1281,-0.1175,-0.118,-0.1618,-0.1725,-0.1132,-0.0219,-0.0977,-0.1201,-0.0956,-0.0502,-0.0064,0.0171,0.0182,0.0096,0.0107,0.016,0.0214,0.0251,0.0368,-0.1052,-0.0966,-0.0539,-0.0278,-0.0032,0.0422,0.0854,0.1148,0.1153,0.0817,0.0577,0.0374,0.0133,0.0043,0.0085,0.0,-0.0016,0.0037,0.0053,-0.0091,-0.0331,-0.032,0.0043,0.0299,0.0027,-0.0502,-0.0806,-0.0886,-0.0625,-0.0069,0.0123,-0.0555,-0.1308,-0.1137,-0.0256,0.0315,-0.0416,-0.0673,-0.0523,-0.0096,0.0144,0.0155,0.0198,0.0235,0.0315,0.0315,0.0384,-0.0806,-0.0924,-0.0593,-0.0043,0.0374,0.0662,0.0726,0.0582,0.0214,-0.0069,-0.016,-0.0144,-0.0011,0.0123,0.0043,-0.0048,-0.0064,-0.0032,-0.0027,-0.0133,-0.0304,-0.0438,-0.0251,0.0171,0.0352,0.0123,-0.0368,-0.0812,-0.0833,-0.04,0.0144,0.04,-0.0075,-0.1132,-0.134,-0.0731,0.0262,0.1046,0.0379,0.0219,0.0235,0.031,0.0283,0.0272,0.0368,0.0384,0.04,-0.0529,-0.0635,-0.0678,-0.055,-0.0406,-0.0374,-0.0368,-0.0358,-0.0352,-0.0342,-0.0256,-0.0123,-0.0048,-0.0027,-0.0075,-0.0133,-0.0149,-0.0149,-0.0149,-0.0166,-0.0171,-0.0176,-0.0133,0.008,0.0352,0.0448,0.0214,-0.032,-0.0838,-0.1068,-0.0876,-0.0518,-0.0278,-0.016,-0.0502,-0.1244,-0.1143,-0.0187,0.0678,0.1554,0.1575,0.1078,0.0849,0.0619,0.0555,0.0593,0.0598,-0.0336,-0.0347,-0.0379,-0.04,-0.039,-0.0374,-0.0368,-0.04,-0.04,-0.0331,-0.0267,-0.0235,0,0,0,0,0,-0.0294,-0.0283,-0.0262,-0.023,-0.0208,-0.0139,0.0027,0.0219,0.0352,0.0368,0.0214,-0.0053,-0.0262,-0.0448,-0.0603,-0.0459,-0.0053,0.0128,0.0053,-0.031,-0.0828,-0.0507,0.0577,0.1452,0.2136,0.2184,0.1538,0.1105,0.071,0.0774,-0.0459,-0.0438,-0.0411,-0.0374,-0.0342,-0.0331,-0.0342,0,0,0,0,0,0,0,0,0,0,0,0,0,0,0,0,-0.0112,0.0016,0.0107,0.0133,0.0123,0.0117,0.008,-0.0064,-0.0315,-0.0561,-0.0384,0.0069,0.0363,0.0502,0.0406,0.0294,-0.0817,-0.0187,0.0838,0.1773,0.2296,0.2098,0.1543,0.1292,0,0,0,0,0,0,0,0,0,0,0,0,0,0,0,0,0,0,0,0,0,0,0,0,0,0,-0.0053,-0.0016,0.0011,0.0027,0.0005,-0.0117,-0.0358,-0.0523,-0.0112,0.0214,0.0411,0.0737,0.0294,0.0422,0.047,-0.0315,-0.0027,0.0982,0.1676,0.2088,0.2157,0,0,0,0,0,0,0,0,0,0,0,0,0,0,0,0,0,0,0,0,0,0,0,0,0,0,0,0,0,0.0016,0.0016,-0.0048,-0.0182,-0.0358,-0.0246,0.0096,0.031,0.0603,0.095,0.1132,0.0384,-0.0155,0.0507,0.0128,-0.0331,0.0486,0.1308,0,0,0,0,0,0,0,0,0,0,0,0,0,0,0,0,0,0,0,0,0,0,0,0,0,0,0,0,0,0,0,0,0,-0.008,-0.0203,0.0016,0.0342,0.0481,0.1025,0.1393,0.1361,0.1463,0.0998,0.0182,0.0593,0.0886,0.0053,0,0,0,0,0,0,0,0,0,0,0,0,0,0,0,0,0,0,0,0,0,0,0,0,0,0,0,0,0,0,0,0,0,0,0,0,0,0.0491,0.0641,0.0908,0.1036,0.1089,0.1185,0.1442,0.1548,0.0731,0.0037,0,0,0,0,0,0,0,0,0,0,0,0,0,0,0,0,0,0,0,0,0,0,0,0,0,0,0,0,0,0,0,0,0,0,0,0,0,0,0.0555,0.0571,0.0513,0.0486,0.0566,0.0614,0.0715,0.0683,0.0598,0,0,0,0,0,0,0,0,0,0,0,0,0,0,0,0,0,0,0,0,0,0,0,0,0,0,0,0,0,0,0,0,0,0,0,0,0,0,0,0.0133,-0.0059,-0.0043,0.0021,-0.0005,0.0246,0.0587,0.0571,0,0,0,0,0,0,0,0,0,0,0,0,0,0,0,0,0,0,0,0,0,0,0,0,0,0,0,0,0,0,0,0,0,0,0,0,0,0,0,0,0,0,0,0,0.0176,0.0117,0.0251,0,0,0,0,0,0,0,0,0,0,0,0,0,0,0,0,0,0,0,0,0,0,0,0,0,0,0,0,0,0,0,0,0,0,0,0,0,0,0,0,0,0,0,0,0,0,0,0,0,0,0,0,0,0,0,0,0,0,0,0,0,0,0,0,0,0,0,0,0,0,0,0,0,0,0,0,0,0,0,0,0,0,0,0,0,0,0,0,0,0,0,0,0,0,0,0,0,0,0,0,0,0,0,0,0,0,0,0,0,0,0,0,0,0,0,0,0,0,0,0,0,0,0,0,0,0,0,0,0,0,0,0,0,0,0,0,0,0,0,0,0,0,0,0,0,0,0,0,0,0,0,0,0,0,0,0,0,0,0,0,0,0,0,0,0,0,0,0,0,0,0,0,0,0,0,0,0,0,0,0,0,0,0,0,0,0,0,0,0,0,0,0,0,0,0,0,0,0,0,0,0,0,0,0,0,0,0,0,0,0,0,0,0,0,0,0,0,0,0,0,0,0,0,0,0,0,0,0,0,0,0,0,0,0,0,0,0,0,0,0,0,0,0,0,0,0,0,0,0,0,0,0,0,0,0,0,0,0,0,0,0,0,0,0,0,0,0,0,0,0,0,0,0,0,0,0,0,0,0,0,0,0,0,0,0,0,0,0,0,0,0,0,0,0,0,0,0,0,0,0,0,0,0,0,0,0,0,0,0,0,0,0,0,0,0,0,0,0,0,0,0,0,0,0,0,0,0,0,0,0,0,0,0,0,0,0,0,0,0,0,0,0,0,0,0,0,0,0,0,0,0,0,0,0,0,0,0,0,0,0,0,0,0,0,0,0,0,0,0,0,0,0,0,0,0,0,0,0,0,0,0,0,0,0,0,0,0,0,0,0,0,0,0,0,0,0,0,0,0,0,0,0,0,0,0,0,0,0,0,0,0,0,0,0,0,0,0,0,0,0,0,0,0,0,0,0,0,0,0,0,0,0,0,0,0,0,0,0,0,0,0,0,0,0,0,0,0,0,0,0,0,0,0,0,0,0,0,0,0,0,0,0,0,0,0,0,0,0,0,0,0,0,0,0,0,0,0,0,0,0,0,0,0,0,0,0,0,0,0,0,0,0,0,0,0,0,0,0,0,0,0,0,0,0,0,0,0,0,0,0,0,0,0,0,0,0,0,0,0,0,0,0,0,0,0,0,0,0,0,0,0,0,0,0,0,0,0,0,0,0,0,0,0,0,0,0,0,0,0,0,0,0,0,0,0,0,0,0,0,0,0,0,0,0,0,0,0,0,0,0,0,0,0,0,0,0,0,0,0,0,0,0,0,0,0,0,0,0,0,0,0,0,0,0,0,0,0,0,0,0,0,0,0,0,0,0,0,0,0,0,0,0,0,0,0,0,0,0,0,0,0,0,0,0,0,0,0,0,0,0,0,0,0,0,0,0,0,0,0,0,0,0,0,0,0,0,0,0,0,0,0,0,0,0,0,0,0,0,0,0,0,0,0,0,0,0,0,0,0,0,0,0,0,0,0,0,0,0,0,0,0,0,0,0,0,0,0,0,0,0,0,0,0,0,0,0,0,0,0,0,0,0,0,0,0,0,0,0,0,0,0,0,0,0,0,0,0,0,0,0,0,0,0,0,0,0,0,0,0,0,0,0,0,0,0,0,0,0,0,0,0,0,0,0,0,0,0,0,0,0,0,0,0,0,0,0,0,0,0,0,0,0,0,0,0,0,0,0,0,0,0,0,0,0,0,0,0,0,0,0,0,0,0,0,0,0,0,0,0,0,0,0,0,0,0,0,0,0,0,0,0,0,0,0,0,0,0,0,0,0,0,0,0,0,0,0,0,0,0,0,0,0,0,0,0,0,0,0,0,0,0,0,0,0,0,0,0,0,0,0,0,0,0,0,0,0,0,0,0,0,0,0,0,0,0,0,0,0,0,0,0,0,0,0,0,0,0,0,0,0,0,0,0,0,0,0,0,0,0,0,0,0,0,0,0,0,0,0,0,0,0,0,0]}],[{"header":{"parameterUnit":"kt","parameterCategory":2,"dx":1,"dy":1,"la1":29.764190673828125,"la2":30.86408042907715,"lo1":-88.46762084960938,"lo2":-86.9344482421875,"nx":47,"ny":34,"refTime":"2022-10-07T00:00:00:Z","depth":"25","parameterNumber":3,"parameterNumberName":"V-component_of_CURRENTS"},"data":[-0.2242,-0.2088,-0.1997,-0.1426,-0.0934,-0.0769,-0.0982,-0.0769,0.008,0.0192,-0.0758,-0.1116,-0.0571,0.0438,0.0763,0.0662,0.0411,0.0336,0.0139,-0.0251,-0.0502,-0.0219,0.0,-0.0368,-0.0881,-0.1377,-0.126,-0.0998,-0.1137,-0.1143,-0.1159,-0.149,-0.0619,-0.0454,-0.0384,0.0246,0.0715,0.118,0.1554,0.1863,0.2093,0.1917,0.1698,0.1388,0.0945,0.0443,0.0267,-0.1682,-0.1981,-0.1682,-0.118,-0.0689,-0.0299,-0.0048,0.0331,0.0166,-0.0582,-0.1185,-0.1004,-0.0107,0.071,0.0785,0.0379,0.0262,0.0256,0.0208,0.0021,-0.024,0.0117,0.0491,0.0144,-0.0342,-0.0715,-0.086,-0.078,-0.086,-0.1062,-0.1239,-0.1041,-0.1303,-0.0294,0.0176,0.0294,0.0342,0.0529,0.0721,0.1009,0.1313,0.1393,0.141,0.126,0.1095,0.1014,0.1212,-0.0566,-0.1004,-0.1111,-0.0673,0.0032,0.0336,0.0432,-0.0037,-0.0812,-0.1233,-0.1078,-0.0475,0.0331,0.0726,0.0411,0.0224,0.0235,0.0272,0.0272,0.0198,0.0021,0.0288,0.071,0.0438,-0.0064,-0.0283,-0.0406,-0.0464,-0.063,-0.0956,-0.1276,-0.1281,-0.0966,-0.1452,-0.0523,0.04,0.0587,0.0721,0.087,0.1169,0.1484,0.1714,0.1863,0.1847,0.1831,0.1863,0.2029,0.0027,0.0155,-0.0032,-0.0208,-0.0048,-0.0117,-0.0406,-0.0897,-0.1116,-0.0828,-0.0363,0.0251,0.0539,0.0411,0.0155,0.0187,0.0256,0.032,0.0347,0.031,0.0166,0.0176,0.0689,0.0614,0.0224,-0.0091,-0.0192,-0.0219,-0.0352,-0.0619,-0.1084,-0.1602,-0.1495,-0.0774,-0.0972,-0.1345,-0.0646,0.04,0.0918,0.1345,0.1757,0.2162,0.2424,0.2488,0.2429,0.2381,0.2381,0.0283,0.0363,0.0464,0.0272,-0.0005,-0.0176,-0.0481,-0.032,-0.0144,0.016,0.0379,0.0534,0.04,0.0176,0.0187,0.0251,0.0326,0.039,0.0406,0.0395,0.0336,0.0315,0.0598,0.0683,0.0459,0.0091,-0.0037,-0.008,-0.0005,-0.0176,-0.0443,-0.0924,-0.1602,-0.1826,-0.0737,-0.032,-0.078,-0.0929,-0.0027,0.0657,0.1399,0.1917,0.236,0.2483,0.2371,0.2328,0.2312,0.0481,0.0438,0.0406,0.0336,0.0256,0.0187,0.0187,0.0278,0.04,0.0427,0.04,0.0342,0.0315,0.0278,0.0304,0.0352,0.0395,0.0427,0.0427,0.0427,0.04,0.0454,0.0539,0.0593,0.0513,0.0294,0.0208,0.0144,0.0171,0.0155,0.0032,-0.0166,-0.0502,-0.094,-0.1773,-0.1105,-0.0048,0.0187,-0.0053,-0.0283,-0.0059,0.055,0.1116,0.1682,0.1965,0.2114,0.2136,0.0539,0.0529,0.0459,0.04,0.0347,0.0331,0.0347,0.04,0.0491,0.0491,0.0448,0.0411,0,0,0,0,0,0.0416,0.0406,0.0384,0.0331,0.0267,0.024,0.0219,0.023,0.0256,0.0304,0.0315,0.0278,0.024,0.0171,0.0166,0.0128,-0.0037,-0.0481,-0.1303,-0.1628,-0.0336,0.0235,0.0571,0.0491,0.0208,0.0347,0.0742,0.1388,0.2077,0.2312,0.0582,0.0545,0.0507,0.0502,0.0507,0.0513,0.0507,0,0,0,0,0,0,0,0,0,0,0,0,0,0,0,0,-0.0128,-0.0075,0.0069,0.0224,0.0299,0.0294,0.0235,0.0203,0.0155,0.0085,0.0112,0.0005,-0.0635,-0.1623,-0.1911,-0.1458,-0.0235,0.0443,0.1078,0.1217,0.1329,0.1634,0.2056,0.2536,0,0,0,0,0,0,0,0,0,0,0,0,0,0,0,0,0,0,0,0,0,0,0,0,0,0,0.0198,0.0246,0.0203,0.0139,0.0139,0.0187,0.0171,0.0091,0.0219,-0.0176,-0.1004,-0.1906,-0.212,-0.1767,-0.1522,-0.0817,0.0272,0.1484,0.1805,0.2146,0.2568,0,0,0,0,0,0,0,0,0,0,0,0,0,0,0,0,0,0,0,0,0,0,0,0,0,0,0,0,0,0.0096,0.0123,0.0208,0.0294,0.0256,0.0278,0.0235,-0.0166,-0.0945,-0.181,-0.2061,-0.197,-0.1874,-0.1559,-0.1143,-0.0411,0.0422,0.0977,0,0,0,0,0,0,0,0,0,0,0,0,0,0,0,0,0,0,0,0,0,0,0,0,0,0,0,0,0,0,0,0,0,0.0358,0.031,0.0422,0.0176,0.0011,-0.0326,-0.0961,-0.1532,-0.1751,-0.166,-0.1297,-0.1559,-0.1938,-0.213,0,0,0,0,0,0,0,0,0,0,0,0,0,0,0,0,0,0,0,0,0,0,0,0,0,0,0,0,0,0,0,0,0,0,0,0,0,0.0208,0.0192,0.0075,-0.0096,-0.0384,-0.0929,-0.1372,-0.1853,-0.1447,-0.1196,0,0,0,0,0,0,0,0,0,0,0,0,0,0,0,0,0,0,0,0,0,0,0,0,0,0,0,0,0,0,0,0,0,0,0,0,0,0,0.023,0.0224,0.023,0.0182,-0.0053,-0.0272,-0.0812,-0.166,-0.1815,0,0,0,0,0,0,0,0,0,0,0,0,0,0,0,0,0,0,0,0,0,0,0,0,0,0,0,0,0,0,0,0,0,0,0,0,0,0,0,0.0539,0.0491,0.0363,0.0331,0.0347,0.0256,-0.0123,-0.0347,0,0,0,0,0,0,0,0,0,0,0,0,0,0,0,0,0,0,0,0,0,0,0,0,0,0,0,0,0,0,0,0,0,0,0,0,0,0,0,0,0,0,0,0,0.0598,0.0438,0.0278,0,0,0,0,0,0,0,0,0,0,0,0,0,0,0,0,0,0,0,0,0,0,0,0,0,0,0,0,0,0,0,0,0,0,0,0,0,0,0,0,0,0,0,0,0,0,0,0,0,0,0,0,0,0,0,0,0,0,0,0,0,0,0,0,0,0,0,0,0,0,0,0,0,0,0,0,0,0,0,0,0,0,0,0,0,0,0,0,0,0,0,0,0,0,0,0,0,0,0,0,0,0,0,0,0,0,0,0,0,0,0,0,0,0,0,0,0,0,0,0,0,0,0,0,0,0,0,0,0,0,0,0,0,0,0,0,0,0,0,0,0,0,0,0,0,0,0,0,0,0,0,0,0,0,0,0,0,0,0,0,0,0,0,0,0,0,0,0,0,0,0,0,0,0,0,0,0,0,0,0,0,0,0,0,0,0,0,0,0,0,0,0,0,0,0,0,0,0,0,0,0,0,0,0,0,0,0,0,0,0,0,0,0,0,0,0,0,0,0,0,0,0,0,0,0,0,0,0,0,0,0,0,0,0,0,0,0,0,0,0,0,0,0,0,0,0,0,0,0,0,0,0,0,0,0,0,0,0,0,0,0,0,0,0,0,0,0,0,0,0,0,0,0,0,0,0,0,0,0,0,0,0,0,0,0,0,0,0,0,0,0,0,0,0,0,0,0,0,0,0,0,0,0,0,0,0,0,0,0,0,0,0,0,0,0,0,0,0,0,0,0,0,0,0,0,0,0,0,0,0,0,0,0,0,0,0,0,0,0,0,0,0,0,0,0,0,0,0,0,0,0,0,0,0,0,0,0,0,0,0,0,0,0,0,0,0,0,0,0,0,0,0,0,0,0,0,0,0,0,0,0,0,0,0,0,0,0,0,0,0,0,0,0,0,0,0,0,0,0,0,0,0,0,0,0,0,0,0,0,0,0,0,0,0,0,0,0,0,0,0,0,0,0,0,0,0,0,0,0,0,0,0,0,0,0,0,0,0,0,0,0,0,0,0,0,0,0,0,0,0,0,0,0,0,0,0,0,0,0,0,0,0,0,0,0,0,0,0,0,0,0,0,0,0,0,0,0,0,0,0,0,0,0,0,0,0,0,0,0,0,0,0,0,0,0,0,0,0,0,0,0,0,0,0,0,0,0,0,0,0,0,0,0,0,0,0,0,0,0,0,0,0,0,0,0,0,0,0,0,0,0,0,0,0,0,0,0,0,0,0,0,0,0,0,0,0,0,0,0,0,0,0,0,0,0,0,0,0,0,0,0,0,0,0,0,0,0,0,0,0,0,0,0,0,0,0,0,0,0,0,0,0,0,0,0,0,0,0,0,0,0,0,0,0,0,0,0,0,0,0,0,0,0,0,0,0,0,0,0,0,0,0,0,0,0,0,0,0,0,0,0,0,0,0,0,0,0,0,0,0,0,0,0,0,0,0,0,0,0,0,0,0,0,0,0,0,0,0,0,0,0,0,0,0,0,0,0,0,0,0,0,0,0,0,0,0,0,0,0,0,0,0,0,0,0,0,0,0,0,0,0,0,0,0,0,0,0,0,0,0,0,0,0,0,0,0,0,0,0,0,0,0,0,0,0,0,0,0,0,0,0,0,0,0,0,0,0,0,0,0,0,0,0,0,0,0,0,0,0,0,0,0,0,0,0,0,0,0,0,0,0,0,0,0,0,0,0,0,0,0,0,0,0,0,0,0,0,0,0,0,0,0,0,0,0,0,0,0,0,0,0,0,0,0,0,0,0,0,0,0,0,0,0,0,0,0,0,0,0,0,0,0,0,0,0,0,0,0,0,0,0,0,0,0,0,0,0,0,0,0,0,0,0,0,0,0,0,0,0,0,0,0,0,0,0,0,0,0,0,0,0,0,0,0,0,0,0,0,0,0,0,0,0,0,0,0,0,0,0,0,0,0,0,0,0,0,0,0,0,0,0,0,0,0,0,0,0,0,0,0,0,0,0,0,0,0,0,0,0,0,0,0,0,0,0,0,0,0,0,0,0,0,0]}]]]